[[{"header":{"parameterUnit":"m.s-1","parameterCategory":1,"la1":30.6,"la2":29.2853,"lo1":-89.7004,"lo2":-87.6739,"dy":0.0162,"dx":0.0183,"nx":112,"ny":82,"refTime":"2026-04-17T12:00:00:Z","depth":0,"parameterNumber":2,"parameterNumberName":"U-component_of_WINDS"},"data":[0.0,0.0,0.0,0.0,0.0,0.0,0.0,0.0,0.0,0.0,0.0,0.0,0.0,0.0,0.0,0.0,0.0,0.0,0.0,0.0,0.0,0.0,0.0,0.0,0.0,0.0,0.0,0.0,0.0,0.0,0.0,0.0,0.0,0.0,0.0,0.0,0.0,0.0,0.0,0.0,0.0,0.0,0.0,0.0,0.0,0.0,0.0,0.0,0.0,0.0,0.0,0.0,0.0,0.0,0.0,0.0,0.0,0.0,0.0,0.0,0.0,0.0,0.0,0.0,0.0,0.0,0.0,0.0,0.0,0.0,0.0,0.0,0.0,0.0,0.0,0.0,0.0,0.0,0.0,0.0,0.0,0.0,0.0,0.0,0.0,0.0,0.0,0.0,0.0,0.0,-5.2935,-5.768,-6.1517,-6.3099,-6.1598,-5.8761,-5.6012,-5.3521,0.0,0.0,0.0,0.0,0.0,0.0,0.0,0.0,0.0,0.0,0.0,0.0,0.0,0.0,0.0,0.0,0.0,0.0,0.0,0.0,0.0,0.0,0.0,0.0,0.0,0.0,0.0,0.0,0.0,0.0,0.0,0.0,0.0,0.0,0.0,0.0,0.0,0.0,0.0,0.0,0.0,0.0,0.0,0.0,0.0,0.0,0.0,0.0,0.0,0.0,0.0,0.0,0.0,0.0,0.0,0.0,0.0,0.0,0.0,0.0,0.0,0.0,0.0,0.0,0.0,0.0,0.0,0.0,0.0,0.0,0.0,0.0,0.0,0.0,0.0,0.0,0.0,0.0,0.0,0.0,0.0,0.0,0.0,0.0,0.0,0.0,0.0,0.0,0.0,0.0,0.0,0.0,0.0,0.0,0.0,0.0,0.0,0.0,0.0,0.0,0.0,0.0,0.0,0.0,-5.6042,-6.0801,-6.3075,-6.3646,-6.2051,-5.9611,-5.7168,-5.4809,0.0,0.0,0.0,0.0,0.0,0.0,0.0,0.0,0.0,0.0,0.0,0.0,0.0,0.0,0.0,0.0,0.0,0.0,0.0,0.0,0.0,0.0,0.0,0.0,0.0,0.0,0.0,0.0,0.0,0.0,0.0,0.0,0.0,0.0,0.0,0.0,0.0,0.0,0.0,0.0,0.0,0.0,0.0,0.0,0.0,0.0,0.0,0.0,0.0,0.0,0.0,0.0,0.0,0.0,0.0,0.0,0.0,0.0,0.0,0.0,0.0,0.0,0.0,0.0,0.0,0.0,0.0,0.0,0.0,0.0,0.0,0.0,0.0,0.0,0.0,0.0,0.0,0.0,0.0,0.0,0.0,0.0,0.0,0.0,0.0,0.0,0.0,0.0,0.0,0.0,0.0,0.0,0.0,0.0,0.0,0.0,0.0,0.0,0.0,0.0,0.0,0.0,0.0,-5.4942,-5.8559,-6.1652,-6.3056,-6.3092,-6.1498,-5.9144,-5.6573,-5.3784,-4.9719,0.0,0.0,0.0,0.0,0.0,0.0,0.0,0.0,0.0,0.0,0.0,0.0,0.0,0.0,0.0,0.0,0.0,0.0,0.0,0.0,0.0,0.0,0.0,0.0,0.0,0.0,0.0,0.0,0.0,0.0,0.0,0.0,0.0,0.0,0.0,0.0,0.0,0.0,0.0,0.0,0.0,0.0,0.0,0.0,0.0,0.0,0.0,0.0,0.0,0.0,0.0,0.0,0.0,0.0,0.0,0.0,0.0,0.0,0.0,0.0,0.0,0.0,0.0,0.0,0.0,0.0,0.0,0.0,0.0,0.0,0.0,0.0,0.0,0.0,0.0,0.0,0.0,0.0,0.0,0.0,0.0,0.0,0.0,0.0,0.0,0.0,0.0,0.0,0.0,0.0,0.0,0.0,0.0,0.0,0.0,0.0,0.0,0.0,0.0,0.0,0.0,0.0,-5.7903,-6.0332,-6.2031,-6.263,-6.2331,-6.0919,-5.8239,-5.545,-5.2661,-4.9293,0.0,0.0,0.0,0.0,0.0,0.0,0.0,0.0,0.0,0.0,0.0,0.0,0.0,0.0,0.0,0.0,0.0,0.0,0.0,0.0,0.0,0.0,0.0,0.0,0.0,0.0,0.0,0.0,0.0,0.0,0.0,0.0,0.0,0.0,0.0,0.0,0.0,0.0,0.0,0.0,0.0,0.0,0.0,0.0,0.0,0.0,0.0,0.0,0.0,0.0,0.0,0.0,0.0,0.0,0.0,0.0,0.0,0.0,0.0,0.0,0.0,0.0,0.0,0.0,0.0,0.0,0.0,0.0,0.0,0.0,0.0,0.0,0.0,0.0,0.0,0.0,0.0,0.0,0.0,0.0,0.0,0.0,0.0,0.0,0.0,0.0,0.0,0.0,0.0,0.0,0.0,0.0,0.0,0.0,0.0,0.0,0.0,0.0,0.0,0.0,0.0,0.0,-5.8925,-6.1135,-6.2759,-6.2429,-6.1752,-6.0883,-5.7261,-5.4327,-5.2625,-4.8786,0.0,0.0,0.0,0.0,0.0,0.0,0.0,0.0,0.0,0.0,0.0,0.0,0.0,0.0,0.0,0.0,0.0,0.0,0.0,0.0,0.0,0.0,0.0,0.0,0.0,0.0,0.0,0.0,0.0,0.0,0.0,0.0,0.0,0.0,0.0,0.0,0.0,0.0,0.0,0.0,0.0,0.0,0.0,0.0,0.0,0.0,0.0,0.0,0.0,0.0,0.0,0.0,0.0,0.0,0.0,0.0,0.0,0.0,0.0,0.0,0.0,0.0,0.0,0.0,0.0,0.0,0.0,0.0,0.0,0.0,0.0,0.0,0.0,0.0,0.0,0.0,0.0,0.0,0.0,0.0,0.0,0.0,0.0,0.0,0.0,0.0,0.0,0.0,0.0,0.0,0.0,0.0,0.0,0.0,0.0,0.0,0.0,0.0,0.0,0.0,0.0,0.0,-5.741,-5.9645,-6.0927,-6.1358,-6.0896,-5.9204,-5.6753,-5.4229,-5.1669,0.0,0.0,0.0,0.0,0.0,0.0,0.0,0.0,0.0,0.0,0.0,0.0,0.0,0.0,0.0,0.0,0.0,0.0,0.0,0.0,0.0,0.0,0.0,0.0,0.0,0.0,0.0,0.0,0.0,0.0,0.0,0.0,0.0,0.0,0.0,0.0,0.0,0.0,0.0,0.0,0.0,0.0,0.0,0.0,0.0,0.0,0.0,0.0,0.0,0.0,0.0,0.0,0.0,0.0,0.0,0.0,0.0,0.0,0.0,0.0,0.0,0.0,0.0,0.0,0.0,0.0,0.0,0.0,0.0,0.0,0.0,0.0,0.0,0.0,0.0,0.0,0.0,0.0,0.0,0.0,0.0,0.0,0.0,0.0,0.0,0.0,0.0,0.0,0.0,0.0,0.0,0.0,0.0,0.0,0.0,0.0,0.0,0.0,0.0,0.0,0.0,0.0,-5.3023,-5.5994,-5.8245,-5.9294,-6.0167,-5.9866,-5.7898,-5.5953,-5.3612,-5.07,0.0,0.0,0.0,0.0,0.0,0.0,0.0,0.0,0.0,0.0,0.0,0.0,0.0,0.0,0.0,0.0,0.0,0.0,0.0,0.0,0.0,0.0,0.0,0.0,0.0,0.0,0.0,0.0,0.0,0.0,0.0,0.0,0.0,0.0,0.0,0.0,0.0,0.0,0.0,0.0,0.0,0.0,0.0,0.0,0.0,0.0,0.0,0.0,0.0,0.0,0.0,0.0,0.0,0.0,0.0,0.0,0.0,0.0,0.0,0.0,0.0,0.0,0.0,0.0,0.0,0.0,0.0,0.0,0.0,0.0,0.0,0.0,0.0,0.0,0.0,0.0,0.0,0.0,0.0,0.0,0.0,0.0,0.0,0.0,0.0,0.0,0.0,0.0,0.0,0.0,0.0,0.0,0.0,0.0,0.0,0.0,0.0,0.0,0.0,0.0,0.0,0.0,-5.2201,-5.5081,-5.7235,-5.8159,-5.8866,-5.8692,-5.7313,-5.474,-5.2197,0.0,0.0,0.0,0.0,0.0,0.0,0.0,0.0,0.0,0.0,0.0,0.0,0.0,0.0,0.0,0.0,0.0,0.0,0.0,0.0,0.0,0.0,0.0,0.0,0.0,0.0,0.0,0.0,0.0,0.0,0.0,0.0,0.0,0.0,0.0,0.0,0.0,0.0,0.0,0.0,0.0,0.0,0.0,0.0,0.0,0.0,0.0,0.0,0.0,0.0,0.0,0.0,0.0,0.0,0.0,0.0,0.0,0.0,0.0,0.0,0.0,0.0,0.0,0.0,0.0,0.0,0.0,0.0,0.0,0.0,0.0,0.0,0.0,0.0,0.0,0.0,0.0,0.0,0.0,0.0,0.0,0.0,0.0,0.0,0.0,0.0,0.0,0.0,0.0,0.0,0.0,0.0,0.0,0.0,0.0,0.0,0.0,0.0,0.0,0.0,0.0,0.0,0.0,-5.011,-5.332,-5.5615,-5.6184,-5.7123,-5.7192,-5.5894,-5.4148,-5.2192,-4.9968,0.0,0.0,0.0,0.0,0.0,0.0,0.0,0.0,0.0,0.0,0.0,0.0,0.0,0.0,0.0,0.0,0.0,0.0,0.0,0.0,0.0,0.0,0.0,0.0,0.0,0.0,0.0,0.0,0.0,0.0,0.0,0.0,0.0,0.0,0.0,0.0,0.0,0.0,0.0,0.0,0.0,0.0,0.0,0.0,0.0,0.0,0.0,0.0,0.0,0.0,0.0,0.0,0.0,0.0,0.0,0.0,0.0,0.0,0.0,0.0,0.0,0.0,0.0,0.0,0.0,0.0,0.0,0.0,0.0,0.0,0.0,0.0,0.0,0.0,0.0,0.0,0.0,0.0,0.0,0.0,0.0,0.0,0.0,0.0,0.0,0.0,0.0,0.0,0.0,0.0,0.0,0.0,0.0,0.0,0.0,0.0,0.0,0.0,0.0,0.0,0.0,0.0,-4.8839,-5.2066,-5.4361,-5.4669,-5.5756,-5.5916,-5.4721,-5.3714,-5.2136,-4.9722,0.0,0.0,0.0,0.0,0.0,0.0,0.0,0.0,0.0,0.0,0.0,0.0,0.0,0.0,0.0,0.0,0.0,0.0,0.0,0.0,0.0,0.0,0.0,0.0,0.0,0.0,0.0,0.0,0.0,0.0,0.0,0.0,0.0,0.0,0.0,0.0,0.0,0.0,0.0,0.0,0.0,0.0,0.0,0.0,0.0,0.0,0.0,0.0,0.0,0.0,0.0,0.0,0.0,0.0,0.0,0.0,0.0,0.0,0.0,0.0,0.0,0.0,0.0,0.0,0.0,0.0,0.0,0.0,0.0,0.0,0.0,0.0,0.0,0.0,0.0,0.0,0.0,0.0,0.0,0.0,0.0,0.0,0.0,0.0,0.0,0.0,0.0,0.0,0.0,0.0,0.0,0.0,0.0,0.0,0.0,0.0,0.0,0.0,0.0,0.0,0.0,0.0,-4.8054,-5.1187,-5.3268,-5.3418,-5.4487,-5.4702,-5.3617,-5.322,-5.1908,-4.9152,0.0,0.0,0.0,0.0,0.0,0.0,0.0,0.0,0.0,0.0,0.0,0.0,0.0,0.0,0.0,0.0,0.0,0.0,0.0,0.0,0.0,0.0,0.0,0.0,0.0,0.0,0.0,0.0,0.0,0.0,0.0,0.0,0.0,0.0,0.0,0.0,0.0,0.0,0.0,0.0,0.0,0.0,0.0,0.0,0.0,0.0,0.0,0.0,0.0,0.0,0.0,0.0,0.0,0.0,0.0,0.0,0.0,0.0,0.0,0.0,-4.2922,-4.1734,0.0,0.0,0.0,0.0,0.0,0.0,0.0,0.0,0.0,0.0,0.0,0.0,0.0,0.0,0.0,0.0,0.0,0.0,0.0,0.0,0.0,0.0,0.0,0.0,0.0,0.0,0.0,0.0,0.0,0.0,0.0,0.0,0.0,0.0,0.0,0.0,0.0,0.0,0.0,0.0,-4.6877,-4.9976,-5.2013,-5.1636,-5.1916,-5.2094,-5.1965,-5.1463,-5.0511,-4.8995,-4.6383,0.0,0.0,0.0,0.0,0.0,0.0,0.0,0.0,0.0,0.0,0.0,0.0,0.0,0.0,0.0,0.0,0.0,0.0,0.0,0.0,0.0,0.0,0.0,0.0,0.0,0.0,0.0,0.0,0.0,0.0,0.0,0.0,0.0,0.0,0.0,0.0,0.0,0.0,0.0,0.0,0.0,0.0,0.0,0.0,0.0,0.0,0.0,0.0,0.0,0.0,0.0,0.0,0.0,0.0,0.0,0.0,0.0,0.0,0.0,-4.4595,-4.3346,0.0,0.0,0.0,0.0,0.0,0.0,0.0,0.0,0.0,0.0,0.0,0.0,0.0,0.0,0.0,0.0,0.0,0.0,0.0,0.0,0.0,0.0,0.0,0.0,0.0,0.0,0.0,0.0,0.0,0.0,0.0,0.0,0.0,0.0,0.0,0.0,0.0,0.0,0.0,0.0,-4.6388,-4.8981,-5.0618,-5.0366,-5.0404,-5.0344,-5.0084,-5.0087,-4.946,-4.7888,-4.595,0.0,0.0,0.0,0.0,0.0,0.0,0.0,0.0,0.0,0.0,0.0,0.0,0.0,0.0,0.0,0.0,0.0,0.0,0.0,0.0,0.0,0.0,0.0,0.0,0.0,0.0,0.0,0.0,0.0,0.0,0.0,0.0,0.0,0.0,0.0,0.0,0.0,0.0,0.0,0.0,0.0,0.0,0.0,0.0,0.0,0.0,0.0,0.0,0.0,0.0,0.0,0.0,0.0,-4.7988,-4.8364,-4.848,-4.9117,-4.9117,-4.8557,-4.7289,-4.6112,-4.5068,-4.5068,0.0,0.0,0.0,0.0,0.0,0.0,0.0,0.0,0.0,0.0,0.0,0.0,0.0,0.0,0.0,0.0,0.0,0.0,0.0,0.0,0.0,0.0,-4.2794,-4.304,-4.3634,-4.395,-4.3352,0.0,0.0,0.0,0.0,0.0,0.0,0.0,0.0,0.0,0.0,0.0,-4.5962,-4.805,-4.9358,-4.9295,-4.9428,-4.9232,-4.8644,-4.9265,-4.8942,-4.7177,-4.5983,-4.4447,0.0,0.0,0.0,0.0,0.0,0.0,0.0,0.0,0.0,0.0,0.0,0.0,0.0,0.0,0.0,0.0,0.0,0.0,0.0,0.0,0.0,0.0,0.0,0.0,0.0,0.0,0.0,0.0,0.0,0.0,0.0,0.0,-4.4238,-4.4457,0.0,0.0,0.0,0.0,0.0,0.0,0.0,0.0,0.0,0.0,0.0,0.0,0.0,-4.7317,-4.7404,-4.8355,-4.9133,-4.9766,-5.0118,-5.0589,-5.1109,-5.1819,-5.2047,-5.1933,-5.1202,0.0,-4.6528,-4.6528,0.0,0.0,0.0,0.0,0.0,0.0,0.0,0.0,0.0,0.0,0.0,0.0,0.0,0.0,0.0,0.0,0.0,0.0,0.0,0.0,0.0,0.0,-4.4199,-4.5287,-4.562,-4.5809,-4.6264,-4.5135,-4.4052,-4.4051,-4.3148,-4.207,0.0,0.0,0.0,0.0,0.0,0.0,-4.4982,-4.7205,-4.8441,-4.801,-4.8638,-4.9069,-4.8972,-4.9621,-4.9726,-4.8993,-4.7831,-4.6684,-4.57,-4.2506,0.0,0.0,0.0,0.0,0.0,0.0,0.0,0.0,0.0,0.0,0.0,0.0,0.0,0.0,0.0,0.0,0.0,0.0,0.0,0.0,0.0,0.0,0.0,0.0,0.0,0.0,0.0,0.0,0.0,-4.4574,-4.5697,-4.5391,-4.6238,-4.6209,0.0,0.0,0.0,0.0,0.0,0.0,0.0,0.0,0.0,-4.6621,-4.8798,-5.0179,-5.0753,-5.192,-5.2541,-5.2587,-5.3137,-5.354,-5.3797,-5.4425,-5.4539,-5.4223,-5.3966,-5.2615,-5.05,-4.9063,-4.7568,-4.6045,0.0,0.0,0.0,0.0,-4.3418,-4.4209,-4.444,-4.4065,-4.333,-4.2131,0.0,0.0,0.0,0.0,0.0,0.0,0.0,-4.1412,-4.2776,-4.4532,-4.5751,-4.5214,-4.5685,-4.6166,-4.6225,-4.5643,-4.5128,-4.5171,-4.3928,-4.2607,-4.1992,-3.993,0.0,0.0,0.0,-4.2084,-4.4006,-4.5823,-4.688,-4.6777,-4.7745,-4.8447,-4.8447,-4.9483,-4.9844,-4.917,-4.8627,-4.7816,-4.6675,-4.4398,-4.2606,0.0,0.0,0.0,0.0,0.0,0.0,0.0,0.0,0.0,0.0,0.0,0.0,0.0,0.0,0.0,0.0,0.0,0.0,0.0,0.0,0.0,0.0,0.0,0.0,0.0,0.0,0.0,0.0,-4.5917,-4.6969,-4.6651,-4.7507,-4.7449,0.0,0.0,0.0,0.0,0.0,0.0,-4.6882,-4.7633,-4.8471,-4.9424,-5.1157,-5.2439,-5.307,-5.4049,-5.4456,-5.4262,-5.4572,-5.4825,-5.5023,-5.5503,-5.5447,-5.4995,-5.4685,-5.4093,-5.3218,-5.1498,-5.0001,-4.8717,-4.7004,-4.6272,-4.6121,-4.5279,-4.5638,-4.6607,-4.7059,-4.6701,-4.5886,-4.4987,-4.3663,-4.2147,-4.0732,0.0,0.0,0.0,0.0,-4.3562,-4.4252,-4.5833,-4.6869,-4.5464,-4.5858,-4.6412,-4.5957,-4.5912,-4.5865,-4.5537,-4.4339,-4.3116,-4.2049,-4.0076,0.0,-4.0715,-4.0538,-4.098,-4.31,-4.4489,-4.5405,-4.566,-4.6869,-4.7709,-4.7709,-4.8836,-4.9383,-4.8992,-4.8799,-4.822,-4.7194,-4.581,-4.4263,-4.2623,0.0,0.0,0.0,0.0,0.0,0.0,0.0,0.0,0.0,0.0,0.0,0.0,0.0,0.0,0.0,0.0,0.0,0.0,0.0,0.0,0.0,0.0,0.0,0.0,0.0,0.0,0.0,0.0,0.0,-4.8603,-4.8717,0.0,0.0,0.0,0.0,-4.7689,-4.861,-4.9291,-4.9601,-5.0714,-5.1399,-5.1456,-5.2766,-5.3371,-5.31,-5.3192,-5.3351,-5.3671,-5.3025,-5.3087,-5.3685,-5.3713,-5.3685,-5.3604,-5.2493,-5.2276,-5.2775,-5.3219,-5.268,-5.1371,-5.0087,-4.9421,-4.911,-4.8409,-4.8427,-4.8949,-4.9619,-4.8977,-4.7965,-4.7909,-4.6002,-4.3704,-4.3619,-4.2846,0.0,0.0,-4.4083,-4.4828,-4.5878,-4.6673,-4.7178,-4.7094,-4.7122,-4.701,-4.6392,-4.6417,-4.6139,-4.4821,-4.4556,-4.3747,-4.0977,0.0,-3.9622,-3.9853,-3.9786,-4.041,-4.2209,-4.354,-4.4434,-4.4812,-4.6065,-4.6877,-4.6877,-4.7542,-4.8276,-4.8871,-4.8231,-4.7852,-4.7757,-4.6392,-4.4721,-4.2633,-4.1242,0.0,0.0,0.0,0.0,0.0,0.0,0.0,0.0,0.0,0.0,0.0,0.0,0.0,0.0,0.0,0.0,0.0,0.0,0.0,0.0,0.0,0.0,0.0,0.0,0.0,0.0,0.0,0.0,-5.0543,-5.1,0.0,-4.9832,-4.8973,-4.877,-4.9354,-5.0628,-5.1543,-5.1846,-5.3665,-5.451,-5.4111,-5.4966,-5.5055,-5.4369,-5.3899,-5.3385,-5.2883,-5.2215,-5.2015,-5.2227,-5.2227,-5.2015,-5.1644,-5.1221,-5.0717,-5.0274,-5.0927,-5.1162,-5.0989,-4.9387,-4.8947,-4.9087,-4.8428,-4.854,-4.9172,-4.9776,-4.9172,-4.7963,-4.673,-4.5161,-4.3726,-4.3678,-4.3121,-4.2673,-4.3526,-4.4138,-4.4716,-4.5106,-4.5958,-4.6448,-4.5443,-4.5641,-4.5928,-4.5539,-4.5332,-4.495,-4.4015,-4.4464,-4.4534,-4.307,-4.1328,-4.0274,-4.0758,-4.0123,-4.0144,-4.1755,-4.2683,-4.3279,-4.3554,-4.4755,-4.5573,-4.5573,-4.6377,-4.6911,-4.6978,-4.6872,-4.6748,-4.6568,-4.5665,-4.461,-4.3402,-4.1186,-3.9751,0.0,0.0,0.0,0.0,0.0,0.0,0.0,0.0,0.0,0.0,0.0,0.0,0.0,0.0,0.0,0.0,0.0,0.0,0.0,0.0,0.0,0.0,0.0,0.0,0.0,-4.8701,-5.0276,-5.1537,-5.2014,-5.1932,-5.0989,-5.0019,-4.9843,-5.0567,-5.1688,-5.2525,-5.299,-5.4552,-5.5241,-5.4848,-5.5046,-5.4834,-5.4199,-5.351,-5.278,-5.1855,-5.1168,-5.0853,-5.0853,-5.0853,-5.0647,-5.026,-4.9873,-4.928,-4.8584,-4.8584,-4.902,-4.9526,-4.8786,-4.8715,-4.8899,-4.8311,-4.8364,-4.8769,-4.8769,-4.8423,-4.7616,-4.6035,-4.4938,-4.4323,-4.4271,-4.3844,-4.3443,-4.3844,-4.4296,-4.459,-4.459,-4.5179,-4.5472,-4.4142,-4.4489,-4.4914,-4.4215,-4.4115,-4.3975,-4.3582,-4.4422,-4.4691,-4.3259,-4.2136,-4.1398,-4.1213,-4.0603,-4.0601,-4.1652,-4.2457,-4.2989,-4.3196,-4.4124,-4.471,-4.4469,-4.5052,-4.5334,-4.5182,-4.5334,-4.5334,-4.5182,-4.472,-4.4048,-4.3106,-4.0775,-3.9243,-3.8524,0.0,0.0,0.0,0.0,0.0,0.0,0.0,0.0,0.0,0.0,0.0,0.0,0.0,0.0,0.0,0.0,0.0,0.0,0.0,0.0,0.0,0.0,0.0,-4.7187,-4.887,-5.0357,-5.1575,-5.1738,-5.1561,-5.1266,-5.0082,-4.9943,-5.138,-5.1778,-5.228,-5.2922,-5.3349,-5.3531,-5.3504,-5.2968,-5.2554,-5.25,-5.1846,-5.122,-5.0525,-4.9847,-4.9525,-4.9525,-4.9525,-4.9525,-4.9475,-4.8347,-4.787,-4.777,-4.6667,-4.6541,-4.7115,-4.8394,-4.893,-4.8878,-4.8244,-4.8035,-4.7879,-4.673,-4.6761,-4.7022,-4.5898,-4.5506,-4.5506,-4.5506,-4.5033,-4.4483,-4.4483,-4.4483,-4.4483,-4.4483,-4.4483,-4.4304,-4.3414,-4.387,-4.4017,-4.2569,-4.2916,-4.3424,-4.3452,-4.4406,-4.4266,-4.1306,-4.2289,-4.2879,-4.1025,-4.125,0.0,-4.1992,-4.2853,-4.3574,-4.3835,-4.4222,-4.417,-4.3566,-4.3578,-4.3549,-4.359,-4.3602,-4.3602,-4.3632,-4.3602,-4.2942,-4.1508,-3.9995,-3.8432,-3.6949,0.0,0.0,0.0,0.0,0.0,0.0,0.0,0.0,0.0,0.0,0.0,0.0,0.0,0.0,0.0,0.0,0.0,0.0,0.0,0.0,0.0,-4.307,-4.4553,-4.6362,-4.8311,-5.0101,-5.1347,-5.1848,-5.2046,-5.1895,-5.1088,-5.0662,-5.0861,-5.1565,-5.1867,-5.146,-5.1878,-5.1954,-5.153,-5.0948,-5.0619,-5.0483,-5.0205,-4.9707,-4.9087,-4.8396,-4.8092,-4.8092,-4.8092,-4.8092,-4.8043,-4.7361,-4.685,-4.6372,-4.5691,-4.5254,-4.522,-4.6537,-4.7247,-4.7551,-4.6993,-4.6764,-4.6612,-4.5494,-4.5214,-4.524,-4.4503,-4.4021,-4.3746,-4.3721,-4.3314,-4.2751,-4.2398,-4.2296,-4.2296,-4.2296,-4.2296,-4.22,-4.1931,-4.2343,-4.2666,-4.2257,-4.1924,-4.1854,-4.2246,-4.2649,-4.2857,-4.2744,-4.316,-4.316,-4.2205,-4.2205,-4.2362,-4.2451,-4.2681,-4.2883,-4.2972,-4.306,-4.2864,-4.2237,-4.2353,-4.2195,-4.1568,-4.1238,-4.1251,-4.1511,-4.1112,-4.0256,-3.8934,-3.8773,-3.7746,0.0,0.0,0.0,0.0,0.0,0.0,0.0,0.0,0.0,0.0,0.0,0.0,0.0,0.0,0.0,0.0,0.0,0.0,0.0,0.0,0.0,0.0,-4.3507,-4.4848,-4.5908,-4.8044,-4.9948,-5.1165,-5.1601,-5.1674,-5.1478,-5.0972,-5.0695,-5.074,-5.1309,-5.1355,-5.0811,-5.078,-5.047,-4.9904,-4.9338,-4.9066,-4.9128,-4.911,-4.8828,-4.8264,-4.7762,-4.7497,-4.7497,-4.7497,-4.7497,-4.7473,-4.6704,-4.6199,-4.5862,-4.5053,-4.4573,-4.4409,0.0,0.0,0.0,0.0,-4.5489,-4.5341,-4.4255,-4.386,-4.3736,-4.2971,-4.2502,-4.2206,-4.1959,-4.1515,-4.0997,-4.0454,-4.0162,-3.9989,-3.9989,-4.0162,-4.024,-4.0092,-4.0744,-4.1261,-4.0913,-4.061,-4.0481,-4.0781,-4.0909,0.0,-4.218,-4.3238,-4.378,-4.3258,-4.3311,-4.3357,-4.3357,-4.3357,-4.3357,-4.3357,-4.3357,-4.3076,-4.2458,-4.2535,0.0,0.0,0.0,-4.0731,-4.0688,-4.035,0.0,0.0,0.0,0.0,0.0,-3.7368,0.0,0.0,-3.7704,-3.7569,0.0,0.0,0.0,0.0,0.0,0.0,0.0,0.0,0.0,0.0,0.0,0.0,0.0,0.0,0.0,0.0,-4.3866,-4.5381,-4.6102,-4.8059,-4.9856,-5.0855,-5.108,-5.1021,-5.0659,-5.0321,-5.043,-5.0921,-5.0945,-5.0856,-5.0535,-4.98,0.0,0.0,0.0,-4.7807,-4.8125,-4.8321,-4.8264,-4.796,-4.763,-4.7497,-4.7497,-4.7497,-4.7497,-4.7449,-4.6391,-4.5934,-4.5838,-4.4717,-4.4285,-4.4285,-4.4285,-4.4285,-4.4285,-4.4285,-4.4285,-4.4141,-4.312,0.0,0.0,-4.1533,-4.1172,-4.1076,-4.0475,-3.997,-3.9489,-3.8888,-3.8359,-3.7974,-3.7974,-3.8359,-3.8653,-3.8465,-3.9318,-4.0022,-3.9272,-3.9261,-3.9336,-3.9414,-3.9388,-3.9615,-4.0503,-4.2755,-4.4298,-4.3962,-4.4162,-4.4425,-4.4425,-4.4425,-4.4425,-4.4425,-4.4425,0.0,-4.3554,-4.3497,-4.2992,-4.1783,-4.1643,-4.1306,-4.0631,-4.0659,-4.0435,-3.9901,-4.0069,-4.0048,-3.9814,-3.9843,-4.0043,-4.0313,-3.801,-3.736,0.0,0.0,0.0,0.0,0.0,0.0,0.0,0.0,0.0,0.0,0.0,0.0,0.0,0.0,0.0,-4.3721,-4.4525,-4.5766,-4.7569,-4.8633,-4.9252,-4.947,-5.0271,-5.0734,-5.0664,-5.0594,-5.0642,-5.0739,-5.0763,-5.0398,-4.9475,-4.8476,-4.7652,-4.7118,-4.6585,-4.6496,-4.7029,-4.7496,-4.7696,-4.763,-4.7497,0.0,-4.7497,-4.7497,-4.7497,-4.7449,-4.6391,-4.5934,-4.5838,-4.4717,-4.4285,-4.4285,-4.4285,-4.4285,-4.4285,-4.4285,-4.4285,-4.4141,-4.312,-4.2819,-4.2651,-4.1533,-4.1172,-4.1004,-4.0042,-3.9681,0.0,-3.8431,-3.807,-3.7974,-3.7974,-3.807,-3.8171,-3.8392,-3.8757,-3.9149,-3.9237,-3.9069,-3.9045,-3.9576,-3.9247,-3.9246,-4.036,-4.2016,-4.3197,-4.3328,-4.3974,-4.4425,-4.4425,-4.4425,-4.4425,-4.4425,-4.4425,-4.4172,-4.3554,-4.3497,-4.3188,-4.243,-4.1896,-4.1109,-4.0013,-4.0435,-4.0659,-4.0519,-4.0562,-4.0548,-4.0492,-4.0492,-4.0534,-4.059,-3.9482,-3.9287,0.0,0.0,0.0,0.0,0.0,0.0,0.0,0.0,0.0,0.0,0.0,-4.2038,-4.2303,0.0,-4.4202,-4.502,-4.5573,-4.6487,-4.8074,-4.8964,-4.9589,-4.9854,-5.0359,-5.0696,-5.0696,-5.0696,-5.0696,-5.0696,-5.0696,-5.0239,-4.9133,-4.8339,-4.7521,-4.6728,-4.6463,-4.6439,-4.6704,-4.7233,-4.7497,-4.7497,-4.7497,-4.7497,-4.7497,-4.7233,-4.7112,-4.704,-4.5982,-4.5525,-4.5477,-4.4621,-4.4285,-4.4285,-4.4285,-4.4285,-4.4285,-4.4285,-4.4285,-4.4141,-4.312,-4.2819,-4.2651,-4.1533,-4.1172,-4.1028,-4.0234,-3.9826,-3.9441,-3.8623,-3.819,-3.7926,-3.7661,-3.7781,-3.7979,-3.7819,-3.8121,-3.8473,-3.8631,-3.8515,-3.8497,-3.8792,-3.862,-3.86,-3.9312,-4.0184,-4.1225,-4.2452,-4.3211,-4.3689,-4.3832,-4.3926,-4.4068,-4.4162,-4.4303,-4.4284,-4.3975,-4.3666,-4.3245,-4.2626,-4.198,-4.1193,-4.0294,-4.0828,-4.1165,-4.1165,-4.1474,-4.1643,-4.1643,-4.1643,-4.1643,-4.1615,-4.124,-4.1015,0.0,0.0,0.0,0.0,0.0,0.0,0.0,-4.1485,-4.1798,-4.1798,-4.288,-4.3818,-4.3818,-4.4635,-4.5453,-4.6006,-4.6535,-4.7233,-4.8291,-4.9277,-5.0022,-5.0479,-5.0648,-5.0696,-5.0696,-5.0696,-5.0696,-5.0696,-5.0696,-5.0239,-4.9133,-4.8676,-4.7954,-4.6896,-4.6872,-4.6872,-4.6872,-4.7281,-4.7497,-4.7497,-4.7497,-4.7449,-4.7329,-4.692,-4.6655,-4.6511,-4.5486,-4.5005,-4.4885,-4.4453,-4.4285,-4.4285,-4.4285,-4.4285,-4.4285,-4.4285,-4.4285,-4.4141,-4.312,-4.2819,-4.2651,-4.1533,-4.1172,-4.1076,-4.0547,-4.009,-3.9657,-3.9128,-3.8647,-3.819,-3.7781,-3.7974,-3.8166,-3.7637,-3.7829,-3.8118,-3.7998,-3.7974,-3.7974,-3.7974,-3.7974,-3.8104,-3.8344,-3.8603,-3.9449,-4.1392,-4.2133,-4.2544,-4.2943,-4.328,-4.3566,-4.3832,-4.4162,-4.4425,-4.4425,-4.3947,-4.3413,-4.2795,-4.2261,-4.1699,-4.1081,-4.1531,-4.1868,-4.198,-4.2486,-4.2823,-4.2935,-4.2935,-4.2935,-4.2935,-4.2935,-4.2514,-3.6699,-3.8238,-4.0379,-4.1509,-4.2952,-4.3997,0.0,-4.3901,-4.3925,-4.3925,-4.4453,-4.4885,-4.4885,-4.5429,-4.6006,-4.6535,-4.7064,-4.7786,-4.8844,-4.9493,-4.9878,-4.995,-5.0407,-5.0696,-5.0696,-5.0696,-5.0696,-5.0696,-5.0696,-5.0239,-4.9133,-4.9012,-4.8507,-4.7449,-4.7425,-4.7425,-4.7425,-4.7473,-4.7497,-4.7497,-4.7497,-4.7257,-4.68,-4.6728,-4.6463,-4.5982,-4.5381,-4.4813,-4.4381,-4.4309,-4.4285,-4.4285,-4.4285,-4.4285,-4.4285,-4.4285,-4.4285,-4.4141,-4.312,-4.2819,-4.2651,-4.1533,-4.1172,-4.1076,-4.0547,-4.0355,-4.0186,-3.9657,-3.9465,-3.9417,-3.9345,-3.9393,-3.9296,-3.8767,-3.8671,-3.8599,-3.8094,-3.7974,-3.7974,-3.7974,-3.7974,-3.8104,-3.8344,-3.8635,-3.9107,-4.0083,-4.0504,-4.0939,-4.1686,-4.2452,-4.2985,-4.328,-4.3974,-4.4425,-4.4425,-4.434,-4.4059,-4.3441,-4.3329,-4.302,-4.2402,-4.243,-4.2739,-4.3273,-4.3357,-4.3666,-4.42,-4.42,-4.42,-4.42,-4.42,-4.3582,-3.8383,-3.9994,-4.1942,-4.2687,-4.4539,-4.6102,-4.579,-4.6199,-4.6631,-4.6631,-4.7064,-4.7329,-4.7016,-4.6896,-4.7016,-4.7545,-4.781,-4.8339,-4.9373,-4.9998,-5.0239,-4.9902,-4.9541,-4.9421,-4.9734,-5.0046,-5.0215,-5.0215,-5.0527,-5.0359,-4.9589,-4.9253,-4.8724,-4.7978,-4.7666,-4.7497,-4.7497,-4.7497,-4.7497,-4.7497,-4.7497,-4.7233,-4.6704,-4.6391,-4.579,-4.4933,-4.4717,-4.4501,-4.4285,-4.4285,-4.4285,-4.4285,-4.4285,-4.4285,-4.4285,-4.4285,-4.4285,-4.4141,-4.312,-4.2819,-4.2651,-4.1533,-4.1172,-4.1148,-4.0932,-4.086,-4.0812,-4.0595,-4.0523,-4.0451,-4.0138,-4.0066,-3.9922,-3.9393,-3.9032,-3.8767,-3.8527,-3.8214,-3.7974,-3.7974,-3.7974,-3.8027,-3.8133,-3.7996,-3.8108,-3.8767,-3.9246,-3.9849,-4.0843,-4.1255,-4.186,-4.2916,-4.3307,-4.3499,-4.3499,-4.3642,-4.3535,-4.3083,-4.3148,-4.308,-4.2598,-4.2935,-4.3245,-4.3497,-4.3835,-4.4144,-4.4425,-4.4425,-4.4425,-4.4425,-4.4425,-4.4144,-3.9922,-4.1485,-4.3205,-4.3794,-4.5862,-4.7617,-4.7233,-4.7858,-4.8459,-4.8315,-4.8483,-4.8531,-4.8147,-4.7762,-4.7666,-4.8195,-4.8531,-4.8988,-4.9758,-5.0335,-5.0455,-4.9734,-4.8964,-4.8555,-4.8628,-4.9109,-4.9541,-4.9924,-5.0383,-5.0455,-4.9902,-4.9373,-4.8844,-4.8315,-4.7786,-4.7497,-4.7497,-4.7497,-4.7497,-4.7497,-4.7497,-4.7136,-4.6487,-4.579,-4.5005,-4.4285,-4.4285,-4.4285,-4.4285,-4.4285,-4.4285,-4.4285,-4.4285,-4.4285,-4.4285,-4.4285,-4.4189,-4.3986,-4.3072,-4.2723,-4.2458,-4.1485,-4.1172,-4.1172,-4.1172,-4.1172,-4.1172,-4.1172,-4.1172,-4.11,-4.0715,-4.0619,-4.0475,-3.9946,-3.9537,-3.9224,-3.908,-3.8719,-3.8383,-3.8238,-3.8214,-3.8166,-3.8022,-3.7661,-3.7541,-3.7926,-3.8246,-3.8715,-3.96,-3.9976,-4.0717,-4.2257,-4.2409,-4.2409,-4.2409,-4.2652,-4.2801,-4.2716,-4.2951,-4.3111,-4.3104,-4.3526,-4.375,-4.375,-4.42,-4.4425,-4.4425,-4.4425,-4.4425,-4.4425,-4.4425,-4.4425,-4.0715,-4.2362,-4.3831,-4.4828,-4.668,-4.8267,-4.8243,-4.8652,-4.8916,-4.8387,-4.7906,-4.7545,-4.7521,-4.7521,-4.7666,-4.8195,-4.9157,-4.983,-4.9924,-5.0335,-5.0311,-4.9229,-4.9084,-4.8652,-4.7642,-4.8026,-4.8772,-4.9782,-5.0383,-5.0455,-4.9902,-4.9373,-4.8844,-4.8315,-4.7786,-4.7497,-4.7497,-4.7497,-4.7497,-4.7497,-4.7497,-4.6968,-4.591,-4.4813,-4.4309,-4.4285,-4.4285,-4.4285,-4.4285,-4.4285,-4.4285,-4.4285,-4.4285,-4.4285,-4.4285,-4.4285,-4.3949,-4.3457,-4.2952,-4.2482,-4.1918,-4.1365,-4.1172,-4.1172,-4.1172,-4.1172,-4.1172,-4.1172,-4.1172,-4.1172,-4.1172,-4.1172,-4.1028,-4.0499,-4.0355,-4.021,-3.9705,-3.9561,-3.9417,-3.8888,-3.8791,-3.8623,-3.807,-3.7974,-3.7974,-3.7974,-3.7593,-3.736,-3.7643,-3.8616,-3.9749,-4.1117,-4.1269,-4.1269,-4.1269,-4.1518,-4.1985,-4.2765,-4.3033,-4.3539,-4.4322,-4.4369,-4.4369,-4.4369,-4.4397,-4.4425,-4.4425,-4.4425,-4.4425,-4.4425,-4.4425,-4.4425,-4.1365,-4.312,-4.4852,-4.591,-4.7521,-4.8892,-4.9253,-4.9758,-4.9902,-4.8988,-4.8387,-4.7906,-4.7569,-4.7786,-4.8195,-4.8724,-4.971,-5.0431,-5.0431,-5.0576,-5.0431,-4.9686,-4.8988,-4.8411,-4.805,-4.8195,-4.8435,-4.8796,-4.9638,-4.9926,-4.9373,-4.9181,-4.8844,-4.8315,-4.7786,-4.7497,-4.7497,-4.7497,-4.7497,-4.7497,-4.68,-4.6078,-4.5317,-4.4621,-4.4285,-4.4285,-4.4285,-4.4285,-4.4285,-4.4285,-4.4285,-4.4285,-4.4285,-4.4285,-4.4285,-4.4285,-4.3925,-4.3433,-4.2928,-4.2482,-4.1894,-4.1365,-4.1172,-4.1172,-4.1172,-4.1172,-4.1172,-4.1172,-4.1172,-4.1172,-4.1172,-4.1172,-4.1124,-4.0956,-4.0643,-4.0355,-4.0162,-3.985,-3.9561,-3.9369,-3.9056,-3.8767,-3.8575,-3.8238,-3.7853,-3.7517,-3.777,-3.7955,-3.79,-3.8685,-3.9497,-4.016,-4.0211,-4.0211,-4.0211,-4.0618,-4.1172,-4.1792,-4.2213,-4.2749,-4.3355,-4.3403,-4.3403,-4.3403,-4.3594,-4.3737,-4.3851,-4.4068,-4.4209,-4.4425,-4.4425,-4.4425,-4.2471,-4.4106,-4.5621,-4.6487,-4.7906,-4.9157,-4.9517,-4.9998,-5.0095,-4.9012,-4.8074,-4.7353,-4.6992,-4.7377,-4.7954,-4.8676,-4.9878,-5.0696,-5.0696,-5.0696,-5.0503,-4.9926,-4.9277,-4.87,-4.8339,-4.8122,-4.8002,-4.8002,-4.8628,-4.8964,-4.8796,-4.8796,-4.8652,-4.8291,-4.7786,-4.7497,-4.7497,-4.7497,-4.7401,-4.7209,-4.615,-4.539,-4.5053,-4.4525,-4.4285,-4.4285,-4.4285,-4.4285,-4.4285,-4.4285,-4.4285,-4.4285,-4.4285,-4.4285,-4.4285,-4.4285,-4.3925,-4.3433,-4.2928,-4.2482,-4.1894,-4.1365,-4.1172,-4.1172,-4.1172,-4.1172,-4.1172,-4.1172,-4.1172,-4.1172,-4.1172,-4.1172,-4.1172,-4.1172,-4.0932,-4.0691,-4.0691,-4.0403,-4.0114,-3.9922,-3.9609,-3.932,-3.9128,-3.8791,-3.8455,-3.8094,-3.835,-3.834,-3.7795,-3.8221,-3.8672,-3.9025,-3.9102,-3.9102,-3.9102,-3.9517,-4.0006,-4.0642,-4.1095,-4.162,-4.2262,-4.2311,-4.2311,-4.2311,-4.2555,-4.2895,-4.33,-4.3566,-4.3974,-4.4425,-4.4425,-4.4537,-4.3997,-4.5197,-4.6199,-4.6704,-4.7954,-4.9084,-4.9084,-4.9469,-4.9517,-4.8435,-4.6944,-4.5838,-4.5838,-4.6271,-4.6992,-4.8074,-4.9638,-5.0696,-5.0696,-5.0696,-5.0503,-4.9974,-4.9902,-4.9493,-4.8435,-4.7834,-4.7497,-4.7473,-4.7473,-4.7714,-4.8219,-4.8267,-4.8267,-4.8243,-4.7762,-4.7497,-4.7497,-4.7473,-4.7185,-4.6631,-4.5621,-4.5053,-4.5005,-4.4525,-4.4285,-4.4285,-4.4285,-4.4285,-4.4285,-4.4285,-4.4285,-4.4285,-4.4285,-4.4285,-4.4285,-4.4285,-4.3949,-4.3481,-4.2976,-4.2506,-4.1894,-4.1389,-4.1196,-4.1172,-4.1172,-4.1172,-4.1172,-4.1172,-4.1172,-4.1172,-4.1172,-4.1172,-4.1172,-4.1172,-4.1172,-4.1172,-4.1172,-4.1172,-4.1028,-4.0523,-4.0403,-4.0234,-3.9705,-3.9609,-3.9609,-3.9561,-3.9176,-3.8479,-3.7421,-3.7252,-3.7421,-3.7926,-3.7974,-3.7974,-3.7974,-3.8262,-3.8712,-3.9519,-3.9827,-4.0338,-4.1069,-4.1119,-4.1145,-4.1172,-4.1445,-4.2016,-4.2776,-4.3067,-4.3622,-4.4359,-4.4359,-4.4668,-4.5886,-4.7161,-4.8315,-4.8435,-4.8772,-4.9084,-4.9084,-4.9181,-4.8868,-4.7425,-4.5862,-4.4693,-4.4693,-4.5125,-4.6006,-4.7473,-4.9397,-5.0696,-5.0696,-5.0696,-5.0648,-5.0503,-5.0503,-5.007,-4.8988,-4.805,-4.7329,-4.6944,-4.7281,-4.7569,-4.769,-4.8074,-4.8098,-4.7714,-4.7569,-4.7497,-4.7497,-4.7112,-4.6439,-4.5462,-4.5197,-4.4861,-4.4477,-4.4357,-4.4285,-4.4285,-4.4285,-4.4285,-4.4285,-4.4285,-4.4285,-4.4285,-4.4285,-4.4285,-4.4285,-4.4285,-4.4189,-4.3997,-4.3505,-4.2735,-4.2,-4.1822,-4.1509,-4.1172,-4.1172,-4.1172,-4.1172,-4.1172,-4.1172,-4.1172,-4.1172,-4.1172,-4.1172,-4.1172,-4.1172,-4.1172,-4.1172,-4.1172,-4.1148,-4.1004,-4.0667,-4.0234,-3.9705,-3.9609,-3.9465,-3.908,-3.9248,-3.9152,-3.8503,-3.8046,-3.7829,-3.7974,-3.7974,-3.7974,-3.7974,-3.8262,-3.8579,-3.8973,-3.9285,-3.9672,-4.0083,-4.0083,-4.0261,-4.0615,-4.1106,-4.1878,-4.2886,-4.2918,-4.3301,-4.3889,-4.3889,-4.3971,-4.7257,-4.8219,-4.9012,-4.8796,-4.8916,-4.8964,-4.8507,-4.8195,-4.7714,-4.6583,-4.4732,-4.3529,-4.4165,-4.4525,-4.5317,-4.7209,-4.9084,-5.0335,-5.0335,-5.0335,-5.0239,-5.0022,-5.0191,-4.9998,-4.9157,-4.8339,-4.7714,-4.7425,-4.704,-4.692,-4.7136,-4.7666,-4.781,-4.7521,-4.7497,-4.7401,-4.7161,-4.6391,-4.5718,-4.5077,-4.4837,-4.4573,-4.4285,-4.4285,-4.4285,-4.4285,-4.4285,-4.4285,-4.4285,-4.4285,-4.4285,-4.4285,-4.4285,-4.4285,-4.4285,-4.4285,-4.4285,-4.4237,-4.3925,-4.3337,-4.2615,-4.2458,-4.1966,-4.1533,-4.1533,-4.1365,-4.1172,-4.1172,-4.1172,-4.1172,-4.1172,-4.1172,-4.1172,-4.1172,-4.1172,-4.1172,-4.1172,-4.1172,-4.1172,-4.1172,-4.0956,-4.0643,-4.0355,-4.0306,-4.0114,-3.9585,-3.9753,-3.9753,-3.9224,-3.8695,-3.8262,-3.7998,-3.7974,-3.7974,-3.7974,-3.8157,-3.8291,-3.8473,-3.8631,-3.8788,-3.8945,-3.9192,-3.941,-3.9681,-4.0383,-4.119,-4.2158,-4.2268,-4.2679,-4.3291,-4.3291,-4.3475,-4.8387,-4.8892,-4.9157,-4.8555,-4.8748,-4.8772,-4.7569,-4.6896,-4.6343,-4.5742,-4.3601,-4.2327,-4.3866,-4.4189,-4.4957,-4.7064,-4.8796,-4.9878,-4.9878,-4.9758,-4.9517,-4.9133,-4.9421,-4.9493,-4.9109,-4.8652,-4.8363,-4.8291,-4.6944,-4.6343,-4.68,-4.7257,-4.7497,-4.7497,-4.7425,-4.7136,-4.6607,-4.5621,-4.5029,-4.4957,-4.4501,-4.4285,-4.4285,-4.4285,-4.4285,-4.4285,-4.4285,-4.4285,-4.4285,-4.4285,-4.4285,-4.4285,-4.4285,-4.4285,-4.4285,-4.4285,-4.4285,-4.4285,-4.4285,-4.4034,-4.3529,-4.3024,-4.2506,-4.1966,-4.1966,-4.1605,-4.1172,-4.1172,-4.1172,-4.1172,-4.1172,-4.1172,-4.1172,-4.1172,-4.1172,-4.1172,-4.1172,-4.1172,-4.1172,-4.1172,-4.1172,-4.1172,-4.1172,-4.1172,-4.098,-4.0379,-4.0403,-4.0258,-3.9585,-3.9176,-3.8743,-3.8238,-3.819,-3.819,-3.819,-3.819,-3.819,-3.819,-3.819,-3.819,-3.819,-3.8671,-3.896,-3.9032,-3.9715,-4.0507,-4.1318,-4.1512,-4.2021,-4.2683,-4.2683,-4.2995,-4.9686,-4.9998,-5.0191,-4.9181,-4.9012,-4.8579,-4.6631,-4.579,-4.5116,-4.413,-4.2543,-4.1677,-4.2832,-4.3746,-4.4837,-4.6583,-4.8555,-4.9878,-4.9878,-4.9109,-4.87,-4.9036,-4.8772,-4.87,-4.9036,-4.8988,-4.8772,-4.8315,-4.7617,-4.7257,-4.7353,-4.7449,-4.7497,-4.7497,-4.7064,-4.6583,-4.6054,-4.539,-4.4861,-4.4429,-4.4333,-4.4285,-4.4285,-4.4285,-4.4285,-4.4285,-4.4285,-4.4285,-4.4285,-4.4285,-4.4285,-4.4285,-4.4285,-4.4285,-4.4285,-4.4285,-4.4285,-4.4285,-4.4285,-4.4213,-4.4045,-4.3553,-4.2735,-4.1966,-4.1966,-4.1605,-4.1172,-4.1172,-4.1172,-4.1172,-4.1172,-4.1172,-4.1172,-4.1172,-4.1172,-4.1172,-4.1172,-4.1172,-4.1172,-4.1172,-4.1172,-4.1172,-4.1172,-4.1172,-4.086,-3.9898,-4.0499,-4.0547,-3.9128,-3.9248,-3.9441,-3.9345,-3.932,-3.932,-3.932,-3.932,-3.932,-3.932,-3.932,-3.932,-3.932,-3.9417,-3.9681,-4.0114,-4.0466,-4.1045,-4.1903,-4.1792,-4.1873,-4.2229,-4.2229,-4.2279,-5.0864,-5.0912,-5.0792,-4.9421,-4.8868,-4.8122,-4.6006,-4.4876,-4.4058,-4.3289,-4.187,-4.1268,-4.2856,-4.312,-4.3818,-4.5958,-4.7617,-4.8531,-4.8267,-4.8026,-4.7882,-4.7858,-4.7858,-4.8195,-4.8988,-4.9084,-4.8964,-4.8724,-4.7954,-4.7497,-4.7497,-4.7497,-4.7377,-4.7088,-4.6583,-4.6054,-4.5525,-4.4933,-4.4525,-4.4285,-4.4285,-4.4285,-4.4285,-4.4285,-4.4285,-4.4285,-4.4285,-4.4285,-4.4285,-4.4285,-4.4285,-4.4285,-4.4285,-4.4285,-4.4285,-4.4285,-4.4285,-4.4285,-4.4285,-4.4285,-4.4237,-4.3973,-4.3409,-4.2784,-4.2784,-4.2423,-4.2014,-4.2014,-4.2014,-4.2014,-4.2014,-4.2014,-4.2014,-4.2014,-4.1798,-4.1509,-4.1244,-4.1172,-4.1172,-4.1172,-4.1172,-4.1172,-4.1172,-4.1172,-4.0908,-4.0138,-4.0691,-4.0812,-3.9777,-4.009,-4.021,-3.9657,-3.9609,-3.9609,-3.9609,-3.9609,-3.9609,-3.9609,-3.9609,-3.9609,-3.9609,-3.9874,-4.0138,-4.0379,-4.0813,-4.1193,-4.1631,-4.1476,-4.1524,-4.1612,-4.1612,-4.1612,-5.1802,-5.1586,-5.1105,-4.9493,-4.8507,-4.7377,-4.514,-4.3794,-4.288,-4.2351,-4.1268,-4.0932,-4.2687,-4.2543,-4.2904,-4.5213,-4.6559,-4.7185,-4.6776,-4.6872,-4.692,-4.6728,-4.6968,-4.7666,-4.894,-4.9181,-4.9205,-4.9084,-4.8098,-4.7497,-4.7497,-4.7497,-4.7257,-4.6728,-4.6199,-4.5669,-4.5077,-4.4549,-4.4285,-4.4285,-4.4285,-4.4285,-4.4285,-4.4285,-4.4285,-4.4285,-4.4285,-4.4285,-4.4285,-4.4285,-4.4285,-4.4285,-4.4285,-4.4285,-4.4285,-4.4285,-4.4285,-4.4285,-4.4285,-4.4285,-4.4285,-4.4285,-4.3962,-4.3505,-4.3505,-4.3168,-4.2819,-4.2819,-4.2819,-4.2819,-4.2819,-4.2819,-4.2795,-4.2675,-4.2338,-4.1822,-4.1293,-4.1172,-4.1172,-4.1172,-4.1172,-4.1172,-4.1172,-4.1172,-4.1004,-4.0475,-4.0836,-4.1004,-4.0475,-4.086,-4.086,-4.0042,-3.9946,-3.9946,-3.9946,-3.9946,-3.9946,-3.9946,-3.9946,-3.9946,-3.9946,-4.0331,-4.0571,-4.0571,-4.098,-4.1172,-4.1172,-4.1172,-4.1172,-4.1172,-4.1172,-4.1172,-5.2355,-5.185,-5.1105,-4.9493,-4.7954,-4.6175,-4.3577,-4.2158,-4.1244,-4.0715,-4.0499,-4.0595,-4.1268,-4.211,-4.3072,-4.4237,-4.579,-4.6776,-4.6728,-4.5934,-4.5694,-4.6607,-4.6343,-4.6872,-4.8892,-4.9517,-4.9589,-4.9109,-4.8098,-4.7497,-4.7497,-4.7497,-4.7257,-4.6728,-4.6199,-4.5669,-4.5077,-4.4549,-4.4285,-4.4285,-4.4285,-4.4285,-4.4285,-4.4285,-4.4285,-4.4285,-4.4285,-4.4285,-4.4285,-4.4285,-4.4285,-4.4285,-4.4285,-4.4285,-4.4285,-4.4285,-4.4285,-4.4285,-4.4285,-4.4285,-4.4285,-4.4285,-4.3962,-4.3505,-4.3505,-4.3168,-4.2819,-4.2819,-4.2819,-4.2819,-4.2819,-4.2819,-4.2699,-4.2217,-4.2073,-4.1822,-4.1293,-4.1172,-4.1172,-4.1172,-4.1172,-4.1172,-4.1172,-4.1172,-4.1004,-4.0475,-4.0836,-4.1004,-4.0475,-4.086,-4.1148,-4.1052,-4.1028,-4.1028,-4.1028,-4.1028,-4.1028,-4.1028,-4.1028,-4.1028,-4.1028,-4.1076,-4.1124,-4.1124,-4.1148,-4.1172,-4.1172,-4.1172,-4.1172,-4.1172,-4.1172,-4.1172,-5.1874,-5.2115,-5.1898,-4.9638,-4.7882,-4.603,-4.3421,-4.1942,-4.1028,-4.0499,-4.0643,-4.1028,-4.1557,-4.1749,-4.2254,-4.3625,-4.4659,-4.5285,-4.5285,-4.5213,-4.5221,-4.5718,-4.5573,-4.615,-4.7954,-4.8315,-4.8363,-4.8147,-4.7738,-4.7497,-4.7497,-4.7497,-4.7112,-4.6271,-4.603,-4.5525,-4.4621,-4.4381,-4.4285,-4.4285,-4.4285,-4.4285,-4.4285,-4.4285,-4.4285,-4.4285,-4.4285,-4.4285,-4.4285,-4.4285,-4.4285,-4.4285,-4.4285,-4.4285,-4.4285,-4.4285,-4.4285,-4.4285,-4.4285,-4.4285,-4.4285,-4.4285,-4.4141,-4.3949,-4.3949,-4.3866,-4.3721,-4.3721,-4.3721,-4.3721,-4.3721,-4.3721,-4.3577,-4.3024,-4.2904,-4.276,-4.2254,-4.2193,-4.2097,-4.1725,-4.1653,-4.1557,-4.1244,-4.1172,-4.1124,-4.0908,-4.1052,-4.11,-4.0908,-4.1052,-4.1172,-4.1172,-4.1172,-4.1172,-4.1172,-4.1172,-4.1172,-4.1172,-4.1172,-4.1172,-4.1172,-4.1172,-4.1172,-4.1172,-4.1172,-4.1172,-4.1172,-4.1172,-4.1172,-4.1172,-4.1172,-4.1172,-5.1393,-5.2259,-5.2475,-4.995,-4.7762,-4.5597,-4.3096,-4.1461,-4.0427,-4.021,-4.0595,-4.1124,-4.1629,-4.1317,-4.1365,-4.2615,-4.3144,-4.3457,-4.3625,-4.4227,-4.4659,-4.4659,-4.4741,-4.5342,-4.668,-4.7088,-4.7401,-4.7714,-4.7593,-4.7497,-4.7497,-4.7497,-4.7016,-4.5958,-4.5934,-4.5342,-4.4285,-4.4285,-4.4285,-4.4285,-4.4285,-4.4285,-4.4285,-4.4285,-4.4285,-4.4285,-4.4285,-4.4285,-4.4285,-4.4285,-4.4285,-4.4285,-4.4285,-4.4285,-4.4285,-4.4285,-4.4285,-4.4285,-4.4285,-4.4285,-4.4285,-4.4285,-4.4285,-4.4285,-4.4285,-4.4285,-4.4285,-4.4285,-4.4285,-4.4285,-4.4285,-4.4285,-4.4141,-4.3649,-4.3505,-4.3385,-4.2916,-4.2819,-4.2651,-4.2062,-4.1966,-4.1798,-4.1268,-4.1172,-4.1172,-4.1172,-4.1172,-4.1172,-4.1172,-4.1172,-4.1172,-4.1172,-4.1172,-4.1172,-4.1172,-4.1172,-4.1172,-4.1172,-4.1172,-4.1172,-4.1172,-4.1172,-4.1172,-4.1172,-4.1172,-4.1268,-4.1413,-4.1413,-4.1509,-4.1653,-4.1653,-4.1653,-5.1201,-5.2259,-5.2548,-5.0407,-4.7473,-4.4587,-4.2471,-4.0355,-3.8984,-3.9513,-4.0042,-4.0571,-4.11,-4.0763,-4.0571,-4.1124,-4.122,-4.1389,-4.1918,-4.288,-4.3529,-4.3529,-4.3949,-4.4501,-4.5053,-4.6102,-4.7161,-4.8195,-4.7786,-4.7497,-4.7497,-4.7497,-4.7016,-4.5958,-4.5934,-4.5342,-4.4285,-4.4285,-4.4285,-4.4285,-4.4285,-4.4285,-4.4285,-4.4285,-4.4285,-4.4285,-4.4285,-4.4285,-4.4285,-4.4285,-4.4285,-4.4285,-4.4285,-4.4285,-4.4285,-4.4285,-4.4285,-4.4285,-4.4285,-4.4285,-4.4285,-4.4285,-4.4285,-4.4285,-4.4285,-4.4285,-4.4285,-4.4285,-4.4285,-4.4285,-4.4285,-4.4285,-4.4141,-4.3649,-4.3505,-4.3385,-4.2916,-4.2819,-4.2651,-4.2062,-4.1966,-4.1798,-4.1268,-4.1172,-4.1172,-4.1172,-4.1172,-4.1172,-4.1172,-4.1172,-4.1172,-4.1172,-4.1172,-4.1172,-4.1172,-4.1172,-4.1172,-4.1172,-4.1172,-4.1172,-4.1172,-4.1172,-4.1172,-4.1172,-4.1172,-4.1437,-4.1966,-4.1966,-4.223,-4.2795,-4.2795,-4.2795,-4.7662,-4.8962,-4.9558,-4.7183,-4.5219,-4.3236,-4.0821,-3.9187,-3.8335,-3.8856,-3.9433,-4.0012,-4.0755,-4.0937,-4.11,-4.1629,-4.1413,-4.1485,-4.2434,-4.3156,-4.3529,-4.3505,-4.4323,-4.4885,-4.5053,-4.6102,-4.6992,-4.769,-4.7593,-4.7497,-4.7497,-4.7161,-4.6631,-4.5958,-4.5934,-4.5342,-4.4285,-4.4285,-4.4285,-4.4285,-4.4285,-4.4285,-4.4285,-4.4285,-4.4285,-4.4285,-4.4285,-4.4285,-4.4285,-4.4285,-4.4285,-4.4285,-4.4285,-4.4285,-4.4285,-4.4285,-4.4285,-4.4285,-4.4285,-4.4285,-4.4285,-4.4285,-4.4285,-4.4285,-4.4285,-4.4285,-4.4285,-4.4285,-4.4285,-4.4285,-4.4285,-4.4285,-4.4237,-4.4069,-4.4021,-4.4034,-4.389,-4.3842,-4.3673,-4.3144,-4.3024,-4.2856,-4.241,-4.2254,-4.2193,-4.1774,-4.1725,-4.1581,-4.122,-4.1172,-4.1172,-4.1172,-4.1509,-4.1581,-4.122,-4.1172,-4.1172,-4.1172,-4.1172,-4.1172,-4.1172,-4.1172,-4.1172,-4.1172,-4.1533,-4.1798,-4.1966,-4.2386,-4.2651,-4.2819,-4.2819,-4.2952,-4.4563,-4.5908,-4.6555,-4.4589,-4.3098,-4.1611,-3.9628,-3.8171,-3.7472,-3.8195,-3.8647,-3.9205,-4.0279,-4.0741,-4.1004,-4.1317,-4.0763,-4.0739,-4.2049,-4.2843,-4.3518,-4.4058,-4.4477,-4.4861,-4.5053,-4.591,-4.6728,-4.7449,-4.7497,-4.7425,-4.7209,-4.6896,-4.6391,-4.5645,-4.5621,-4.5149,-4.4285,-4.4285,-4.4285,-4.4285,-4.4285,-4.4285,-4.4285,-4.4285,-4.4285,-4.4285,-4.4285,-4.4285,0.0,-4.4285,-4.4285,-4.4285,-4.4285,-4.4285,-4.4285,-4.4285,-4.4285,-4.4285,-4.4285,-4.4285,-4.4285,-4.4285,-4.4285,-4.4285,-4.4285,-4.4285,-4.4285,-4.4285,-4.4285,-4.4285,-4.4285,-4.4285,-4.4285,-4.4285,-4.4285,-4.4285,-4.4285,-4.4285,-4.4117,-4.3625,-4.3505,-4.3361,-4.2916,-4.2819,-4.2699,-4.2386,-4.2338,-4.2158,-4.1822,-4.1774,-4.1774,-4.1774,-4.2062,-4.2193,-4.1798,-4.1774,-4.1774,-4.1774,-4.1774,-4.1774,-4.1774,-4.1774,-4.1774,-4.1774,-4.2169,-4.2351,-4.2567,-4.3096,-4.3361,-4.3361,-4.3361,-4.3529,0.0,-4.2972,-4.3517,-4.246,-4.1061,-3.9689,-3.863,-3.7198,0.0,-3.745,-3.761,-3.8113,-3.9686,-4.0073,-4.0218,-4.0218,-3.9402,-3.9362,-4.0956,-4.2158,-4.3457,-4.502,-4.4693,-4.4597,-4.5077,-4.5669,-4.6391,-4.7377,-4.7449,-4.7209,-4.668,-4.6631,-4.615,-4.5101,-4.5029,-4.4789,-4.4285,-4.4285,-4.4285,-4.4285,-4.4285,-4.4285,-4.4285,-4.4285,-4.4285,-4.4285,-4.4285,-4.4285,-4.4285,-4.4285,-4.4285,-4.4285,-4.4285,-4.4285,-4.4285,-4.4285,-4.4285,-4.4285,-4.4285,-4.4285,-4.4285,-4.4285,-4.4285,-4.4285,-4.4285,-4.4285,-4.4285,-4.4285,-4.4285,-4.4285,-4.4285,-4.4285,-4.4285,-4.4285,-4.4285,-4.4285,-4.4285,-4.4285,-4.4141,-4.3673,-4.3577,-4.3433,-4.2952,-4.294,-4.2916,-4.2891,-4.2867,-4.2867,-4.2819,-4.2819,-4.2819,-4.2819,-4.2843,-4.2867,-4.2867,-4.2843,-4.2819,-4.2819,-4.2819,-4.2819,-4.2819,-4.2819,-4.2819,-4.2819,-4.2867,-4.3072,-4.3577,-4.4045,-4.4285,-4.4285,-4.4333,-4.4333,-3.8032,0.0,-3.9966,-3.8777,-3.794,-3.7281,0.0,-3.571,-3.5201,-3.6139,-3.6086,-3.6226,-3.7427,-3.8079,-3.8498,-3.8747,-3.876,-3.9187,-4.0636,-4.2604,-4.4419,-4.5597,-4.5621,-4.5597,-4.5718,-4.6223,-4.6631,-4.6872,-4.6896,-4.6655,-4.615,-4.5718,-4.5342,-4.5077,-4.4669,-4.4405,-4.4285,-4.4285,-4.4285,-4.4285,-4.4285,-4.4285,-4.4285,-4.4285,-4.4285,-4.4285,-4.4285,-4.4285,-4.4285,-4.4285,-4.4285,-4.4285,-4.4285,-4.4285,-4.4285,-4.4285,-4.4285,-4.4285,-4.4285,-4.4285,-4.4285,-4.4285,-4.4285,-4.4285,-4.4285,-4.4285,-4.4285,-4.4285,-4.4285,-4.4285,-4.4285,-4.4285,-4.4285,-4.4285,-4.4285,-4.4285,-4.4285,-4.4285,-4.4237,-4.4117,-4.4093,-4.4045,-4.3986,-4.3986,-4.3818,-4.3409,-4.3337,-4.3192,-4.2867,-4.2819,-4.2819,-4.2819,-4.3096,-4.3337,-4.3337,-4.2976,-4.2819,-4.2819,-4.2819,-4.2819,-4.2819,-4.2819,-4.2819,-4.2819,-4.3144,-4.3601,-4.4093,-4.4213,-4.4285,-4.4285,-4.4693,-4.4669,-3.5995,-3.6498,-3.7038,-3.5867,-3.5207,-3.4773,-3.4517,-3.4069,-3.3898,-3.4587,-3.4581,-3.4748,-3.5881,-3.6604,-3.7188,-3.7897,-3.84,-3.952,-4.1995,-4.3911,-4.539,-4.6535,-4.6655,-4.6655,-4.6655,-4.668,-4.6704,-4.6704,-4.6487,-4.6126,-4.5534,-4.5221,-4.4957,-4.4717,-4.4429,-4.4285,-4.4285,-4.4285,-4.4285,-4.4285,-4.4137,-4.4013,-4.385,-4.3639,-4.3514,-4.3389,-4.3514,-4.3701,-4.3826,-4.4013,-4.4137,-4.4285,-4.4285,-4.4285,-4.4285,-4.4285,-4.4285,-4.4285,-4.4285,-4.4285,-4.4285,-4.4285,-4.4285,-4.4237,-4.3973,-4.4069,-4.4285,-4.4285,-4.4285,-4.4285,-4.4285,-4.4285,-4.4285,-4.4285,-4.4285,-4.4285,-4.4285,-4.4285,-4.4285,-4.4285,-4.4285,-4.4285,-4.4285,-4.4285,-4.4189,-4.3938,-4.389,-4.3794,-4.3529,-4.3481,-4.3481,-4.3481,-4.3746,-4.389,-4.389,-4.3649,-4.3481,-4.3481,-4.3481,-4.3481,-4.3481,-4.3481,-4.3481,-4.3481,-4.3746,-4.3973,-4.4285,-4.4285,-4.4285,-4.4285,-4.4573,-4.4693,-3.4936,-3.4797,-3.4682,-3.377,-3.3095,-3.2715,-3.286,-3.2839,-3.288,-3.3272,-3.3293,-3.3547,-3.4466,-3.5156,-3.5932,-3.7103,-3.8245,-4.0184,-4.3736,-4.5254,-4.635,-4.7377,-4.7497,-4.7473,-4.7401,-4.6968,-4.6655,-4.6487,-4.6054,-4.5573,-4.4981,-4.4957,-4.4678,-4.4161,-4.4099,-4.4037,-4.4037,-4.4223,-4.4285,-4.4285,-4.3888,-4.349,-4.3137,-4.2759,-4.2356,-4.2038,-4.2356,-4.2759,-4.3177,-4.3553,-4.395,-4.4285,-4.4285,-4.4285,-4.4285,-4.4285,-4.4285,-4.4285,-4.4285,-4.4285,-4.4285,-4.4285,-4.4213,-4.4069,-4.3649,-4.3842,-4.4165,-4.4165,-4.4213,-4.4285,-4.4285,-4.4285,-4.4285,-4.4285,-4.4285,-4.4285,-4.4285,-4.4285,-4.4285,-4.4285,-4.4285,-4.4285,-4.4285,-4.4285,-4.4285,-4.4285,-4.4285,-4.4285,-4.4285,-4.4285,-4.4285,-4.4285,-4.4285,-4.4285,-4.4285,-4.4285,-4.4285,-4.4285,-4.4285,-4.4285,-4.4285,-4.4285,-4.4285,-4.4285,-4.4285,-4.4285,-4.4285,-4.4285,-4.4285,-4.4285,-4.4357,-4.4645,-3.4073,-3.3741,-3.3617,-3.3422,-3.2857,-3.265,-3.3477,-3.3296,-3.3034,-3.3114,-3.2811,-3.2565,-3.2666,-3.3261,-3.4064,-3.5195,-3.8354,-4.145,-4.3796,-4.5266,-4.6496,-4.7359,-4.7497,-4.7329,-4.6872,-4.6752,-4.6343,-4.539,-4.5245,-4.4957,-4.4429,-4.4132,-4.3835,-4.3451,-4.32,-4.2886,-4.261,-4.3701,-4.4285,-4.4285,-4.3701,-4.3051,-4.242,-4.1761,-4.1097,-4.0581,-4.1161,-4.1824,-4.2483,-4.3114,-4.3764,-4.4285,-4.4285,-4.4285,-4.4285,-4.4285,-4.4285,-4.4285,-4.4285,-4.4285,-4.4285,-4.4285,-4.3973,-4.3625,-4.3529,-4.3577,-4.3649,-4.3649,-4.3925,-4.4285,-4.4285,-4.4285,-4.4285,-4.4285,-4.4285,-4.4285,-4.4285,-4.4285,-4.4285,-4.4285,-4.4285,-4.4285,-4.4285,-4.4285,-4.4285,-4.4285,-4.4285,-4.4285,-4.4285,-4.4285,-4.4285,-4.4285,-4.4285,-4.4285,-4.4285,-4.4285,-4.4285,-4.4285,-4.4285,-4.4285,-4.4285,-4.4285,-4.4285,-4.4285,-4.4285,-4.4285,-4.4285,-4.4285,-4.4285,-4.4285,-4.4741,-4.5005,-3.3012,-3.2715,-3.2598,-3.2871,-3.2914,-3.3067,-3.3483,-3.3978,-3.4136,-3.3424,-3.2929,-3.2554,-3.2236,-3.2675,-3.3842,-3.6269,-3.9086,-4.1739,-4.3979,-4.5193,-4.6304,-4.7383,-4.7497,-4.7305,-4.6776,-4.6463,-4.5958,-4.5125,-4.4813,-4.4549,-4.4309,-4.3826,-4.3302,-4.2799,-4.2206,-4.1697,-4.1184,-4.1761,-4.2483,-4.32,-4.257,-4.1847,-4.1119,-4.0409,-3.9757,-3.908,-3.9823,-4.0538,-4.1248,-4.1911,-4.2633,-4.32,-4.32,-4.32,-4.32,-4.32,-4.32,-4.32,-4.32,-4.3326,-4.3514,-4.3701,-4.3722,-4.3596,-4.3204,-4.3505,-4.3842,-4.3265,-4.3697,-4.4285,-4.4285,-4.4285,-4.4285,-4.4285,-4.4285,-4.4285,-4.4285,-4.4285,-4.4285,-4.4285,-4.4285,-4.4285,-4.4285,-4.4285,-4.4285,-4.4285,-4.4285,-4.4285,-4.4285,-4.4285,-4.4285,-4.4285,-4.4285,-4.4285,-4.4285,-4.4285,-4.4285,-4.4285,-4.4285,-4.4285,-4.4285,-4.4285,-4.4285,-4.4285,-4.4285,-4.4223,-4.4013,-4.4111,-4.4065,-4.3876,-4.4202,-4.4472,-3.194,-3.173,-3.1698,-3.2236,-3.2743,-3.3203,-3.3516,-3.4434,-3.4922,-3.3809,-3.332,-3.293,-3.2422,-3.2796,-3.4199,-3.7192,-3.9393,-4.1482,-4.3669,-4.4725,-4.5692,-4.6851,-4.6913,-4.6627,-4.6037,-4.5514,-4.4991,-4.4468,-4.4064,-4.3826,-4.3826,-4.32,-4.2483,-4.1824,-4.1119,-4.0409,-3.9736,-3.967,-4.0387,-4.1824,-4.1142,-4.0431,-3.9692,-3.8991,-3.835,-3.7662,-3.8416,-3.9057,-3.9757,-4.0495,-4.1206,-4.1824,-4.1824,-4.1824,-4.1824,-4.1824,-4.1824,-4.1824,-4.1824,-4.2102,-4.2483,-4.2949,-4.3294,-4.3431,-4.3048,-4.3505,-4.3925,-4.3168,-4.3625,-4.4285,-4.4285,-4.4285,-4.4285,-4.4285,-4.4285,-4.4285,-4.4285,-4.4285,-4.4285,-4.4285,-4.4285,-4.4285,-4.4285,-4.4285,-4.4285,-4.4285,-4.4285,-4.4285,-4.4285,-4.4285,-4.4285,-4.4285,-4.4285,-4.4285,-4.4285,-4.4285,-4.4285,-4.4285,-4.4285,-4.4285,-4.4285,-4.4285,-4.4285,-4.4285,-4.4285,-4.4147,-4.3867,-4.3763,-4.3571,-4.3276,-4.3231,-4.3463,-3.0995,-3.1015,-3.1055,-3.1445,-3.1914,-3.2578,-3.375,-3.4394,-3.4609,-3.4121,-3.4004,-3.373,-3.291,-3.367,-3.4943,-3.6294,-3.8585,-4.0699,-4.2289,-4.3527,-4.4595,-4.5392,-4.5045,-4.4605,-4.4032,-4.359,-4.3083,-4.2512,-4.2443,-4.242,-4.242,-4.1806,-4.11,-4.0387,-3.9713,-3.8991,-3.8242,-3.8242,-3.897,-4.0322,-3.9692,-3.897,-3.8242,-3.7528,-3.6876,-3.6219,-3.6944,-3.7595,-3.8308,-3.9035,-3.9757,-4.0322,-4.0322,-4.0322,-4.0322,-4.0322,-4.0322,-4.0322,-4.0322,-4.0775,-4.1418,-4.2166,-4.2474,-4.272,-4.3299,-4.3505,-4.3553,-4.3481,-4.389,-4.4285,-4.4285,-4.4285,-4.4285,-4.4285,-4.4285,-4.4285,-4.4285,-4.4285,-4.4285,-4.4285,-4.4285,-4.4285,-4.4285,-4.4285,-4.4285,-4.4285,-4.4285,-4.4285,-4.4285,-4.4285,-4.4285,-4.4285,-4.4285,-4.4285,-4.4285,-4.4285,-4.4285,-4.4285,-4.4285,-4.4285,-4.4285,-4.4285,-4.4285,-4.4285,-4.4285,-4.4213,-4.3967,-4.3286,-4.2867,-4.266,-4.1948,-4.1963,-3.0898,-3.0898,-3.0996,-3.1406,-3.1836,-3.2578,-3.4121,-3.5625,-3.6582,-3.6152,-3.6074,-3.5644,-3.4238,-3.4367,-3.5087,-3.6384,-3.7952,-3.9605,-4.1151,-4.2011,-4.2638,-4.3372,-4.3152,-4.2661,-4.2103,-4.188,-4.1568,-4.1013,-4.0991,-4.0991,-4.0991,-4.0344,-3.9626,-3.8904,-3.8262,-3.7549,-3.6809,-3.6809,-3.7059,-3.7595,-3.7996,-3.7929,-3.7461,-3.6924,-3.6471,-3.6016,-3.6539,-3.6991,-3.7528,-3.7996,-3.8461,-3.8904,-3.8904,-3.8904,-3.8904,-3.8904,-3.8904,-3.8904,-3.8904,-3.9364,-4.0105,-4.0797,-4.1328,-4.1845,-4.2125,-4.2638,-4.3012,-4.2928,-4.3422,-4.4013,-4.4223,-4.4285,-4.4285,-4.4285,-4.4285,-4.4285,-4.4285,-4.4285,-4.4285,-4.4285,-4.4549,-4.4765,-4.4765,-4.5053,-4.5269,-4.5333,-4.5269,-4.5269,-4.5269,-4.5269,-4.5269,-4.5269,-4.5269,-4.5333,-4.5333,-4.5333,-4.5269,-4.5333,-4.4645,-4.4223,-4.4013,-4.4072,-4.401,-4.3796,-4.3869,-4.3674,-4.3205,-4.2772,-4.2256,-4.1705,-4.1316,-4.127,-3.0898,-3.0898,-3.0996,-3.1406,-3.1813,-3.2587,-3.416,-3.6103,-3.7441,-3.7168,-3.6992,-3.6445,-3.4961,-3.4824,-3.5254,-3.6289,-3.749,-3.8778,-4.0269,-4.0659,-4.0996,-4.1667,-4.1244,-4.0748,-4.0358,-4.0186,-3.9971,-3.9583,-3.954,-3.954,-3.954,-3.897,-3.8395,-3.7796,-3.7193,-3.6606,-3.6016,-3.6016,-3.6016,-3.6016,-3.6742,-3.6944,-3.6742,-3.6471,-3.62,-3.6016,-3.6268,-3.6471,-3.6742,-3.7011,-3.7213,-3.7461,-3.7461,-3.7461,-3.7461,-3.7461,-3.7461,-3.7461,-3.7461,-3.7929,-3.8681,-3.9299,-4.004,-4.071,-4.0994,-4.1638,-4.2287,-4.2381,-4.3044,-4.3787,-4.4415,-4.4405,-4.4285,-4.4285,-4.4285,-4.4285,-4.4285,-4.4285,-4.4333,-4.4501,-4.4837,-4.5125,-4.5293,-4.5694,-4.5934,-4.5934,-4.5934,-4.5934,-4.5934,-4.5934,-4.5934,-4.5934,-4.5934,-4.5934,-4.5934,-4.5934,-4.5934,-4.5934,-4.5173,-4.4577,-4.4112,-4.4021,-4.3669,-4.3215,-4.3099,-4.275,-4.2234,-4.1813,-4.1268,-4.0737,-4.0361,-4.0146,-3.0879,-3.0879,-3.0996,-3.1406,-3.1844,-3.256,-3.3846,-3.5472,-3.668,-3.6699,-3.6348,-3.5762,-3.4883,-3.5098,-3.5547,-3.5957,-3.7035,-3.8306,-3.9522,-3.9709,-3.9798,-4.0108,-3.9392,-3.8901,-3.8901,-3.8398,-3.8109,-3.8109,-3.8109,-3.8109,-3.8109,-3.775,-3.7415,-3.7079,-3.6722,-3.6336,-3.6016,-3.6016,-3.6016,-3.6016,-3.6016,-3.6016,-3.6016,-3.6016,-3.6016,-3.6016,-3.6016,-3.6016,-3.6016,-3.6016,-3.6016,-3.6016,-3.6016,-3.6016,-3.6016,-3.6016,-3.6016,-3.6016,-3.6016,-3.6491,-3.7213,-3.7863,-3.8573,-3.9299,-4.0018,-4.0646,-4.1354,-4.2102,-4.2736,-4.3569,-4.4744,-4.4693,-4.4285,-4.4309,-4.4309,-4.4309,-4.4309,-4.4309,-4.4453,-4.4981,-4.5077,-4.5245,-4.5838,-4.5934,-4.5934,-4.5934,-4.5934,-4.5934,-4.5934,-4.5934,-4.5934,-4.5934,-4.5934,-4.5934,-4.5934,-4.5934,-4.5934,-4.5934,-4.5934,-4.5613,-4.4812,-4.4113,-4.3324,-4.2594,-4.1857,-4.1399,-4.1204,-4.0417,-3.9891,-3.9714,-3.8938,-3.8574,-3.041,-3.0644,-3.0937,-3.1128,-3.1954,-3.2861,-3.3595,-3.507,-3.6603,-3.7774,-3.7441,-3.6758,-3.5819,-3.5529,-3.548,-3.5628,-3.6234,-3.7028,-3.8312,-3.8275,-3.8098,-3.8156,-3.7689,-3.7231,-3.6913,-3.6686,-3.6606,-3.6606,-3.6606,-3.6606,-3.6606,-3.6559,-3.6423,-3.6355,-3.6219,-3.6084,-3.6016,-3.6016,-3.6016,-3.6016,-3.6016,-3.6016,-3.6016,-3.6016,-3.6016,-3.6016,-3.6016,-3.6016,-3.6016,-3.6016,-3.6016,-3.6016,-3.6016,-3.6016,-3.6016,-3.6016,-3.6016,-3.6016,-3.6016,-3.6268,-3.6789,-3.726,-3.7662,-3.8129,-3.8573,-3.9233,-3.991,-4.0603,-4.1335,-4.2175,-4.3322,-4.3729,-4.4088,-4.5167,-4.5453,-4.5453,-4.5453,-4.5453,-4.5438,-4.5645,-4.5982,-4.6295,-4.6463,-4.6776,-4.704,-4.704,-4.704,-4.704,-4.704,-4.704,-4.704,-4.704,-4.704,-4.704,-4.704,-4.704,-4.704,-4.704,-4.704,-4.6246,-4.451,-4.3798,-4.304,-4.2043,-4.1401,-4.0933,-4.0604,-4.0014,-3.9665,-3.9321,-3.8793,-3.8574,-3.0195,-3.0665,-3.1246,-3.143,-3.2486,-3.3643,-3.4471,-3.5529,-3.6793,-3.8265,-3.7805,-3.7019,-3.647,-3.6004,-3.5699,-3.5736,-3.6081,-3.6679,-3.7609,-3.7374,-3.7093,-3.709,-3.668,-3.6309,-3.6035,-3.6016,-3.6016,-3.6016,-3.6016,-3.6016,-3.6016,-3.6016,-3.6094,-3.6269,-3.6113,-3.6094,-3.6269,-3.6113,-3.6016,-3.6016,-3.6016,-3.6016,-3.6016,-3.6016,-3.6016,-3.6016,-3.6016,-3.6016,-3.6016,-3.6016,-3.6016,-3.6016,-3.6016,-3.6016,-3.6016,-3.6016,-3.6016,-3.6016,-3.6016,-3.6132,-3.6336,-3.6606,-3.6829,-3.7011,-3.7193,-3.7816,-3.8549,-3.9167,-3.9888,-4.078,-4.21,-4.2892,-4.3636,-4.5131,-4.5613,-4.5741,-4.587,-4.5934,-4.5982,-4.6199,-4.6487,-4.6776,-4.6992,-4.7281,-4.7497,-4.7497,-4.7497,-4.7497,-4.7497,-4.7497,-4.7497,-4.7497,-4.7497,-4.7497,-4.7497,-4.7497,-4.7497,-4.7497,-4.7497,-4.668,-4.4784,-4.3782,-4.2638,-4.1453,-4.0503,-3.9878,-3.959,-3.9373,-3.9156,-3.8958,-3.872,-3.8574,-3.0119,-3.0838,-3.1658,-3.2095,-3.3275,-3.4626,-3.5926,-3.6459,-3.708,-3.819,-3.753,-3.6812,-3.6699,-3.6409,-3.6142,-3.6142,-3.6425,-3.6796,-3.7211,-3.6918,-3.6566,-3.658,-3.624,-3.5986,-3.5967,-3.5947,-3.5947,-3.6016,-3.6016,-3.6016,-3.6016,-3.6016,-3.623,-3.666,-3.625,-3.623,-3.666,-3.623,-3.6016,-3.6016,-3.6016,-3.6016,-3.6016,-3.6016,-3.6016,-3.6016,-3.6016,-3.6016,-3.6016,-3.6016,-3.6016,-3.6016,-3.6016,-3.6016,-3.6016,-3.6016,-3.6016,-3.6016,-3.6016,-3.6016,-3.6016,-3.6016,-3.6016,-3.6016,-3.6016,-3.6491,-3.7213,-3.7863,-3.8507,-3.9446,-4.0971,-4.197,-4.2881,-4.4202,-4.5013,-4.5627,-4.595,-4.6078,-4.6199,-4.668,-4.6776,-4.6944,-4.7425,-4.7497,-4.7497,-4.7497,-4.7497,-4.7497,-4.7497,-4.7497,-4.7497,-4.7497,-4.7497,-4.7497,-4.7497,-4.7497,-4.7497,-4.7497,-4.7497,-4.6831,-4.5392,-4.3816,-4.2355,-4.0954,-3.9373,-3.8574,-3.8574,-3.8574,-3.8574,-3.8574,-3.8574,-3.8574,-2.9679,-3.0449,-3.1248,-3.1835,-3.3192,-3.4676,-3.5907,-3.6294,-3.6497,-3.7053,-3.696,-3.681,-3.679,-3.6698,-3.6551,-3.6257,-3.598,-3.5997,-3.6434,-3.613,-3.5859,-3.5813,-3.5749,-3.5697,-3.5577,-3.5626,-3.5743,-3.5947,-3.6016,-3.6016,-3.6016,-3.6016,-3.623,-3.666,-3.625,-3.623,-3.666,-3.623,-3.6016,-3.6016,-3.6016,-3.6016,-3.6016,-3.6016,-3.6016,-3.6016,-3.6016,-3.6016,-3.6016,-3.6016,-3.6016,-3.6016,-3.6016,-3.6016,-3.6016,-3.6016,-3.6016,-3.6016,-3.6016,-3.6016,-3.6016,-3.6016,-3.6016,-3.6016,-3.6016,-3.6268,-3.6722,-3.7213,-3.7616,-3.8207,-3.9218,-4.0039,-4.0885,-4.2104,-4.4339,-4.6343,-4.7029,-4.7161,-4.7185,-4.7305,-4.7329,-4.7377,-4.7473,-4.7497,-4.7497,-4.7497,-4.7497,-4.7497,-4.7497,-4.7497,-4.7497,-4.7497,-4.7497,-4.7497,-4.7497,-4.7497,-4.7497,-4.7497,-4.7497,-4.6831,-4.5392,-4.3816,-4.2355,-4.0954,-3.9373,-3.8574,-3.8574,-3.8574,-3.8574,-3.8574,-3.8574,-3.8574,-2.9526,-3.0536,-3.1759,-3.3341,-3.436,-3.5192,-3.6017,-3.6201,-3.6275,-3.6442,-3.6497,-3.659,-3.6738,-3.6664,-3.6442,-3.6201,-3.6036,-3.5926,-3.5901,-3.5731,-3.5519,-3.5319,-3.5243,-3.5306,-3.5508,-3.5489,-3.5626,-3.5947,-3.6016,-3.6016,-3.6016,-3.6016,-3.623,-3.666,-3.625,-3.623,-3.666,-3.623,-3.6016,-3.6016,-3.6016,-3.6016,-3.6016,-3.6016,-3.6016,-3.6016,-3.6016,-3.6016,-3.6016,-3.6016,-3.6016,-3.6016,-3.6016,-3.6016,-3.6016,-3.6016,-3.6016,-3.6016,-3.6016,-3.6016,-3.6016,-3.6016,-3.6016,-3.6016,-3.6016,-3.6152,-3.6268,-3.6471,-3.6694,-3.6997,-3.7642,-3.8357,-3.9208,-4.0376,-4.2881,-4.5226,-4.5963,-4.6308,-4.6473,-4.6473,-4.6473,-4.6473,-4.6473,-4.6473,-4.6473,-4.6473,-4.6473,-4.6473,-4.6473,-4.6473,-4.6473,-4.6473,-4.6473,-4.654,-4.6697,-4.6898,-4.6965,-4.6965,-4.6965,-4.6338,-4.4846,-4.3353,-4.2025,-4.0954,-3.9373,-3.8574,-3.8574,-3.8574,-3.8574,-3.8574,-3.8789,-3.8887,-2.9374,-3.086,-3.2681,-3.5044,-3.5614,-3.5724,-3.6109,-3.6201,-3.6201,-3.6201,-3.6201,-3.6275,-3.6664,-3.6442,-3.6201,-3.6201,-3.6146,-3.5926,-3.5569,-3.5402,-3.5209,-3.474,-3.4715,-3.4921,-3.5333,-3.5401,-3.5538,-3.5947,-3.6016,-3.6016,-3.6016,-3.6016,-3.6191,-3.6543,-3.6211,-3.6191,-3.6562,-3.6191,-3.6016,-3.6016,-3.6016,-3.6016,-3.6016,-3.6016,-3.6016,-3.6016,-3.6016,-3.6016,-3.6016,-3.6016,-3.6016,-3.6016,-3.6016,-3.6016,-3.6016,-3.6016,-3.6016,-3.6016,-3.6016,-3.6016,-3.6016,-3.6016,-3.6016,-3.6016,-3.6016,-3.6016,-3.6016,-3.6016,-3.6016,-3.6094,-3.6465,-3.7094,-3.7859,-3.887,-4.0947,-4.297,-4.3984,-4.4595,-4.4892,-4.4892,-4.4892,-4.4892,-4.4892,-4.4892,-4.4892,-4.4892,-4.4892,-4.4892,-4.4892,-4.4892,-4.4892,-4.4892,-4.4892,-4.5096,-4.5595,-4.6001,-4.6204,-4.6204,-4.6204,-4.5528,-4.409,-4.2608,-4.1481,-4.0719,-3.9301,-3.8574,-3.8574,-3.8574,-3.8574,-3.8594,-3.9004,-3.9199,-2.8918,-3.1127,-3.3413,-3.5174,-3.5614,-3.5724,-3.6109,-3.6201,-3.6201,-3.6201,-3.6201,-3.6201,-3.6275,-3.6201,-3.6201,-3.6201,-3.5925,-3.554,-3.5172,-3.4786,-3.4382,-3.401,-3.3955,-3.4232,-3.4921,-3.499,-3.5264,-3.5947,-3.6016,-3.6016,-3.6016,-3.6016,-3.6055,-3.6094,-3.6055,-3.6055,-3.6113,-3.6055,-3.6016,-3.6016,-3.6016,-3.6016,-3.6016,-3.6016,-3.6016,-3.6016,-3.6016,-3.6016,-3.6016,-3.6016,-3.6016,-3.6016,-3.6016,-3.6016,-3.6016,-3.6016,-3.6016,-3.6016,-3.6016,-3.6016,-3.6016,-3.6016,-3.6016,-3.6016,-3.6016,-3.6016,-3.6016,-3.6016,-3.6016,-3.6035,-3.6094,-3.6366,-3.6821,-3.7307,-3.8569,-4.0186,-4.2245,-4.3049,-4.3309,-4.3309,-4.3309,-4.3309,-4.3309,-4.3309,-4.3309,-4.3309,-4.3309,-4.3309,-4.3309,-4.3309,-4.3309,-4.3309,-4.3309,-4.3609,-4.4321,-4.5074,-4.5437,-4.546,-4.5437,-4.4801,-4.3306,-4.1742,-4.0606,-3.9858,-3.9011,-3.8574,-3.8574,-3.8574,-3.8574,-3.8594,-3.9004,-3.9199,-2.917,-3.1626,-3.389,-3.5265,-3.5779,-3.5999,-3.6164,-3.6201,-3.6201,-3.6201,-3.6201,-3.6201,-3.6201,-3.6201,-3.6201,-3.6201,-3.6054,-3.5815,-3.5412,-3.5009,-3.4605,-3.4183,-3.3945,-3.4094,-3.4853,-3.4921,-3.5196,-3.5947,-3.6016,-3.6016,-3.6016,-3.6016,-3.5918,-3.5684,-3.5898,-3.5898,-3.5664,-3.5898,-3.6016,-3.6016,-3.6016,-3.6016,-3.6016,-3.6016,-3.6016,-3.6016,-3.6016,-3.6016,-3.6016,-3.6016,-3.6016,-3.6016,-3.6016,-3.6016,-3.6016,-3.6016,-3.6016,-3.6016,-3.6016,-3.6016,-3.6016,-3.6016,-3.6016,-3.6074,-3.6309,-3.6387,-3.6387,-3.6387,-3.6387,-3.6328,-3.6094,-3.6084,-3.6268,-3.6403,-3.7282,-3.8327,-3.9306,-4.0745,-4.1813,-4.1813,-4.1813,-4.1813,-4.1813,-4.1813,-4.1813,-4.1813,-4.1813,-4.1813,-4.1813,-4.1813,-4.1813,-4.1813,-4.1813,-4.2095,-4.2888,-4.3631,-4.4068,-4.4068,-4.4068,-4.3492,-4.2187,-4.0891,-3.991,-3.9445,-3.8865,-3.8574,-3.8574,-3.8574,-3.8574,-3.8594,-3.9004,-3.9336,-2.9301,-3.1506,-3.3486,-3.4697,-3.5375,-3.5779,-3.5889,-3.5981,-3.6091,-3.6182,-3.6201,-3.6201,-3.6201,-3.6201,-3.6201,-3.6201,-3.6201,-3.6072,-3.5669,-3.5375,-3.499,-3.4458,-3.4147,-3.4205,-3.4715,-3.4784,-3.5059,-3.5811,-3.5879,-3.5879,-3.6016,-3.6016,-3.5781,-3.5234,-3.5644,-3.5605,-3.5059,-3.5469,-3.5684,-3.5684,-3.5684,-3.5742,-3.5859,-3.5859,-3.5918,-3.6016,-3.6016,-3.6016,-3.6016,-3.6016,-3.6016,-3.6016,-3.6016,-3.6016,-3.6016,-3.6016,-3.6016,-3.6035,-3.6152,-3.6113,-3.6035,-3.6152,-3.6191,-3.625,-3.6562,-3.6738,-3.6816,-3.6699,-3.668,-3.6562,-3.6133,-3.6016,-3.6016,-3.6016,-3.6601,-3.7226,-3.7559,-3.9037,-4.031,-4.031,-4.031,-4.031,-4.031,-4.031,-4.031,-4.031,-4.031,-4.031,-4.031,-4.031,-4.031,-4.031,-4.031,-4.0576,-4.136,-4.2116,-4.2538,-4.2538,-4.2538,-4.2025,-4.0983,-4.0002,-3.9301,-3.903,-3.872,-3.8574,-3.8574,-3.8574,-3.8574,-3.8594,-3.9004,-3.9453,-2.8766,-3.0241,-3.1799,-3.3046,-3.3927,-3.4605,-3.5009,-3.5375,-3.576,-3.6127,-3.6201,-3.6201,-3.6201,-3.6201,-3.6201,-3.6201,-3.6201,-3.6072,-3.5669,-3.5595,-3.5284,-3.4495,-3.4385,-3.436,-3.4408,-3.4439,-3.4715,-3.547,-3.5538,-3.5675,-3.5947,-3.6016,-3.5625,-3.4766,-3.5176,-3.5019,-3.4141,-3.4551,-3.4766,-3.4766,-3.4766,-3.5,-3.543,-3.543,-3.5644,-3.6016,-3.6016,-3.6016,-3.6016,-3.6016,-3.6016,-3.6016,-3.6016,-3.6016,-3.6016,-3.6016,-3.6016,-3.6074,-3.6484,-3.6367,-3.6094,-3.6504,-3.6641,-3.6641,-3.666,-3.6953,-3.7187,-3.6777,-3.668,-3.6562,-3.6133,-3.6016,-3.6016,-3.6016,-3.6367,-3.7031,-3.8242,-3.8608,-3.872,-3.872,-3.872,-3.872,-3.872,-3.872,-3.872,-3.872,-3.872,-3.872,-3.872,-3.872,-3.872,-3.872,-3.872,-3.9011,-3.9786,-4.0463,-4.0963,-4.1004,-4.0963,-4.0606,-3.9858,-3.9083,-3.8647,-3.8647,-3.8647,-3.8574,-3.8574,-3.8574,-3.8574,-3.8594,-3.9004,-3.9453,-2.7751,-2.8993,-3.0387,-3.1102,-3.2276,-3.3358,-3.378,-3.4587,-3.5357,-3.5742,-3.6036,-3.6201,-3.6201,-3.6201,-3.6201,-3.6201,-3.6201,-3.6164,-3.6017,-3.5779,-3.5504,-3.521,-3.4954,-3.4784,-3.4799,-3.4971,-3.5205,-3.5508,-3.5675,-3.5879,-3.6016,-3.6016,-3.5605,-3.4726,-3.5156,-3.5098,-3.4473,-3.4629,-3.4707,-3.4707,-3.4707,-3.4941,-3.5391,-3.5391,-3.5625,-3.6016,-3.6016,-3.6016,-3.6016,-3.6016,-3.6016,-3.6016,-3.6016,-3.6016,-3.6016,-3.6016,-3.6016,-3.6094,-3.6523,-3.6562,-3.6504,-3.6934,-3.707,-3.7129,-3.7402,-3.7578,-3.7617,-3.7187,-3.707,-3.6914,-3.6211,-3.6016,-3.6094,-3.6367,-3.6758,-3.7266,-3.8008,-3.8379,-3.8574,-3.8574,-3.8574,-3.8574,-3.8574,-3.8574,-3.8574,-3.8574,-3.8574,-3.8574,-3.8574,-3.8809,-3.8984,-3.8984,-3.9238,-3.9637,-4.0136,-4.0613,-4.0927,-4.0947,-4.0927,-4.0686,-4.019,-3.9711,-3.9414,-3.9414,-3.9414,-3.9141,-3.8574,-3.8574,-3.8574,-3.8574,-3.873,-3.9199,-2.6625,-2.7545,-2.87,-2.925,-3.0497,-3.1763,-3.2441,-3.3541,-3.4605,-3.5284,-3.5742,-3.6054,-3.6182,-3.6201,-3.6201,-3.6201,-3.6201,-3.6256,-3.6402,-3.6201,-3.6036,-3.6036,-3.5669,-3.5355,-3.5246,-3.5271,-3.5357,-3.5508,-3.5694,-3.5879,-3.6016,-3.6016,-3.5605,-3.4726,-3.4726,-3.459,-3.4277,-3.4277,-3.4277,-3.4277,-3.4277,-3.459,-3.5156,-3.5156,-3.5469,-3.6016,-3.6016,-3.6016,-3.6016,-3.6016,-3.6016,-3.6016,-3.6016,-3.6016,-3.6016,-3.6016,-3.6113,-3.6289,-3.6738,-3.6875,-3.6953,-3.7363,-3.75,-3.7559,-3.7832,-3.8027,-3.8027,-3.7461,-3.7305,-3.7109,-3.625,-3.6016,-3.6094,-3.6387,-3.6777,-3.7207,-3.7617,-3.8164,-3.8574,-3.8574,-3.8574,-3.8574,-3.8574,-3.8574,-3.8574,-3.8574,-3.8574,-3.8633,-3.8769,-3.9023,-3.9258,-3.9414,-3.9707,-3.9958,-4.0239,-4.0464,-4.0614,-4.0634,-4.0614,-4.0539,-4.0239,-4.0033,-3.9902,-3.9902,-3.9902,-3.9609,-3.9023,-3.9023,-3.9023,-3.9023,-3.9023,-3.9414,0.0,0.0,0.0,-2.7546,-2.8649,-2.988,-3.0992,-3.2258,-3.3505,-3.4715,-3.5302,-3.5724,-3.6109,-3.6201,-3.6201,-3.6201,-3.6201,-3.6347,-3.6751,-3.6749,-3.6842,-3.6842,-3.6476,-3.6073,-3.5659,-3.5246,-3.5186,-3.5459,-3.5489,-3.5694,-3.5947,-3.5996,-3.5586,-3.4726,-3.3867,-3.3418,-3.3418,-3.3418,-3.3437,-3.3437,-3.3437,-3.3887,-3.4726,-3.4726,-3.5195,-3.6016,-3.6016,-3.6016,-3.6016,-3.6016,-3.6016,-3.6016,-3.6016,-3.6035,-3.6035,-3.6035,-3.6309,-3.6758,-3.7168,-3.7324,-3.7383,-3.7812,-3.7949,-3.7949,-3.7949,-3.8242,-3.8398,-3.7559,-3.7305,-3.7109,-3.625,-3.6016,-3.6016,-3.6016,-3.6348,-3.6777,-3.7207,-3.7969,-3.8574,-3.8574,-3.8574,-3.8574,-3.8574,-3.8574,-3.8574,-3.8594,-3.8594,-3.875,-3.916,-3.9238,-3.9414,-3.9863,-3.9922,-3.9941,-3.9941,-3.9941,-3.9941,-3.9941,-3.9941,-3.9941,-3.9941,-3.9941,-3.9941,-3.9941,-3.9941,-3.9941,-3.9941,-3.9902,-3.9902,-3.9902,-3.9902,-4.0137,-2.5547,0.0,0.0,0.0,0.0,0.0,-2.8685,-3.0406,-3.2166,-3.3083,-3.4293,-3.532,-3.5705,-3.6017,-3.6201,-3.6201,-3.6201,-3.6256,-3.6366,-3.6641,-3.6842,-3.6842,-3.6732,-3.6607,-3.6459,-3.6059,-3.583,-3.5951,-3.5917,-3.5879,-3.6016,-3.541,-3.4961,-3.4707,-3.3867,-3.3418,-3.3418,-3.3418,-3.3574,-3.3887,-3.3887,-3.4355,-3.5195,-3.5195,-3.5508,-3.6016,-3.6016,-3.6016,-3.6016,-3.6016,-3.6016,-3.6016,-3.6016,-3.6211,-3.6484,-3.6484,-3.6758,-3.7187,-3.7598,-3.7754,-3.7832,-3.8262,-3.8398,-3.8398,-3.8398,-3.8476,-3.8457,-3.791,-3.7539,-3.7109,-3.625,-3.6016,-3.6016,-3.6016,-3.6348,-3.6777,-3.7207,-3.7969,-3.8574,-3.8574,-3.8574,-3.8574,-3.8574,-3.8574,-3.8672,-3.8984,-3.9023,-3.9199,-3.9648,-3.9961,-4.0215,-4.0332,-4.0625,-4.082,-4.082,-4.082,-4.082,-4.082,-4.082,-4.082,-4.082,-4.082,-4.082,-4.082,-4.082,-4.082,-4.082,-4.0195,-3.9902,-3.9902,-4.0215,-4.041,-2.5332,-2.5232,-2.522,-2.5138,0.0,0.0,-2.7474,-2.9012,-3.0717,-3.1854,-3.312,-3.4183,-3.4752,-3.5045,-3.521,-3.521,-3.5339,-3.5687,-3.6384,-3.6677,-3.6897,-3.7062,-3.6934,-3.6828,-3.6775,-3.638,-3.61,-3.6073,-3.6081,-3.6005,-3.6035,-3.5176,-3.4707,-3.4707,-3.3867,-3.3418,-3.3418,-3.3418,-3.3633,-3.4082,-3.4082,-3.4531,-3.5391,-3.5391,-3.5625,-3.6016,-3.6016,-3.6016,-3.6016,-3.6016,-3.6016,-3.6016,-3.6016,-3.6289,-3.668,-3.668,-3.7051,-3.7598,-3.7832,-3.8047,-3.8242,-3.8496,-3.8574,-3.8574,-3.8574,-3.8574,-3.8476,-3.8047,-3.75,-3.6914,-3.6426,-3.6152,-3.6074,-3.625,-3.6484,-3.6836,-3.7422,-3.8086,-3.8633,-3.8809,-3.8984,-3.9121,-3.9121,-3.9121,-3.9219,-3.9453,-3.9492,-3.9648,-4.0098,-4.0371,-4.0586,-4.0781,-4.1016,-4.1172,-4.1172,-4.1172,-4.1172,-4.1172,-4.1172,-4.1172,-4.1172,-4.1172,-4.1172,-4.1172,-4.1172,-4.1172,-4.1172,-4.0684,-4.043,-4.043,-4.0684,-4.0801,-2.5039,-2.499,-2.5017,-2.5077,-2.5437,0.0,-2.6774,-2.7932,-2.9255,-3.0681,-3.1689,-3.257,-3.334,-3.3505,-3.3541,-3.3541,-3.3908,-3.477,-3.6402,-3.6714,-3.6916,-3.7319,-3.7044,-3.6846,-3.6831,-3.6476,-3.6168,-3.615,-3.6155,-3.6081,-3.5967,-3.5176,-3.4707,-3.4707,-3.3867,-3.3418,-3.3418,-3.3418,-3.3672,-3.4141,-3.4141,-3.4609,-3.5469,-3.5469,-3.5664,-3.6016,-3.6016,-3.6016,-3.6016,-3.6016,-3.6016,-3.6016,-3.6016,-3.6309,-3.6738,-3.6738,-3.7266,-3.7988,-3.7988,-3.8242,-3.8574,-3.8574,-3.8574,-3.8574,-3.8574,-3.8574,-3.8476,-3.8047,-3.7383,-3.6797,-3.6699,-3.6387,-3.6191,-3.6582,-3.6699,-3.6973,-3.7812,-3.8379,-3.8848,-3.9258,-3.9648,-3.9902,-3.9902,-3.9902,-3.9922,-3.9961,-3.9961,-4.0117,-4.0547,-4.0586,-4.0742,-4.1133,-4.1172,-4.1172,-4.1172,-4.1172,-4.1172,-4.1172,-4.1172,-4.1172,-4.1172,-4.1172,-4.1172,-4.1172,-4.1172,-4.1172,-4.1172,-4.1172,-4.1172,-4.1172,-4.1172,-4.1172,-2.5547,-2.5528,-2.5499,-2.5331,-2.5576,0.0,-2.5573,-2.6732,-2.7994,-2.8391,-2.9635,-3.0809,-3.1286,-3.1634,-3.1854,-3.1854,-3.2478,-3.3523,-3.5155,-3.5925,-3.6494,-3.6897,-3.6879,-3.6957,-3.7222,-3.6644,-3.63,-3.6553,-3.6247,-3.6045,-3.6016,-3.5176,-3.4707,-3.4707,-3.3867,-3.3418,-3.3418,-3.3418,-3.3809,-3.457,-3.457,-3.5039,-3.5898,-3.5898,-3.5937,-3.6016,-3.6016,-3.6016,-3.6016,-3.6016,-3.6016,-3.6016,-3.6016,-3.6484,-3.7168,-3.7168,-3.7715,-3.8457,-3.8457,-3.8496,-3.8574,-3.8574,-3.8574,-3.8574,-3.8574,-3.8574,-3.8476,-3.8047,-3.7812,-3.7519,-3.6855,-3.6601,-3.6562,-3.666,-3.6934,-3.7402,-3.8262,-3.9082,-3.9766,-4.0176,-4.0059,-3.9902,-3.9902,-3.9902,-4.0019,-4.0351,-4.041,-4.0566,-4.0996,-4.1055,-4.1074,-4.1172,-4.1172,-4.1172,-4.1172,-4.1172,-4.1172,-4.1172,-4.1172,-4.1172,-4.1172,-4.1172,-4.1172,-4.1172,-4.1172,-4.1172,-4.1172,-4.1172,-4.1172,-4.1172,-4.1172,-4.1172,-2.5693,-2.5693,-2.5645,-2.5382,-2.5438,0.0,0.0,-2.5945,-2.6825,-2.7418,-2.8278,-2.9177,-2.9782,-3.0057,-3.0185,-3.0185,-3.0864,-3.1818,-3.3046,-3.477,-3.6219,-3.7026,-3.7136,-3.7212,-3.7346,-3.6886,-3.6476,-3.6442,-3.6158,-3.6016,-3.6016,-3.5176,-3.4707,-3.4707,-3.3867,-3.3418,-3.3418,-3.3418,-3.3848,-3.4707,-3.4707,-3.5156,-3.6016,-3.6016,-3.6016,-3.6016,-3.6016,-3.6016,-3.6016,-3.6016,-3.6152,-3.6348,-3.6348,-3.6738,-3.7324,-3.7539,-3.8027,-3.8574,-3.8574,-3.8574,-3.8574,-3.8574,-3.8574,-3.8574,-3.8574,-3.8574,-3.8535,-3.8301,-3.8086,-3.7832,-3.7402,-3.7148,-3.7031,-3.7246,-3.7617,-3.8105,-3.875,-3.959,-4.0273,-4.0488,-4.0527,-4.0527,-4.0527,-4.0527,-4.0605,-4.082,-4.084,-4.0918,-4.1152,-4.1172,-4.1172,-4.1172,-4.1172,-4.1172,-4.1172,-4.1172,-4.1172,-4.1172,-4.1172,-4.1172,-4.1172,-4.1172,-4.1172,-4.1172,-4.1172,-4.1172,-4.1172,-4.1172,-4.1172,-4.1172,-4.1172,-4.1172,-2.5927,-2.5869,-2.5762,-2.5566,-2.5439,-2.5331,0.0,0.0,0.0,-2.6717,-2.7179,-2.7677,-2.8284,-2.8468,-2.8465,-2.8407,-2.9159,-3.0057,-3.1011,-3.3266,-3.532,-3.6677,-3.6916,-3.7026,-3.7173,-3.69,-3.6645,-3.6361,-3.6205,-3.6152,-3.6152,-3.5391,-3.4922,-3.4844,-3.4082,-3.3672,-3.3672,-3.3672,-3.4062,-3.4824,-3.4824,-3.5254,-3.6016,-3.6016,-3.6016,-3.6016,-3.6016,-3.6016,-3.6016,-3.6016,-3.6269,-3.668,-3.668,-3.6973,-3.7461,-3.7793,-3.8203,-3.8574,-3.8574,-3.8574,-3.8574,-3.8574,-3.8574,-3.8574,-3.8574,-3.8574,-3.8574,-3.8574,-3.8379,-3.8144,-3.8066,-3.7851,-3.7754,-3.8086,-3.8516,-3.8945,-3.9355,-4.0078,-4.0644,-4.0644,-4.0937,-4.1172,-4.1172,-4.1172,-4.1172,-4.1172,-4.1172,-4.1172,-4.1172,-4.1172,-4.1172,-4.1172,-4.1172,-4.1172,-4.1172,-4.1172,-4.1172,-4.1172,-4.1172,-4.1172,-4.1172,-4.1172,-4.1172,-4.1172,-4.1172,-4.1172,-4.1172,-4.1172,-4.1172,-4.1172,-4.1172,-4.1172,-2.6875,-2.6602,-2.6309,-2.6259,-2.5966,-2.5596,-2.5342,0.0,-2.5863,-2.5692,0.0,-2.6252,-2.6188,0.0,0.0,-2.6352,-2.7344,-2.8572,-3.0112,-3.1231,-3.2606,-3.4513,-3.5082,-3.5577,-3.6274,-3.657,-3.6853,-3.7225,-3.686,-3.6601,-3.6601,-3.6133,-3.5703,-3.5332,-3.4824,-3.4551,-3.4551,-3.4551,-3.4805,-3.5312,-3.5312,-3.5566,-3.6016,-3.6016,-3.6016,-3.6016,-3.6016,-3.6016,-3.6016,-3.6016,-3.6269,-3.668,-3.668,-3.7148,-3.7851,-3.791,-3.8203,-3.8574,-3.8574,-3.8574,-3.8574,-3.8574,-3.8574,-3.8574,-3.8574,-3.8574,-3.8574,-3.8574,-3.8809,-3.8965,-3.8594,-3.875,-3.9004,-3.9043,-3.9414,-3.9863,-4.0273,-4.0762,-4.1094,-4.1094,-4.1133,-4.1172,-4.1172,-4.1172,-4.1172,-4.1172,-4.1172,-4.1172,-4.1172,-4.1172,-4.1172,-4.1172,-4.1172,-4.1172,-4.1172,-4.1172,-4.1172,-4.1172,-4.1172,-4.1172,-4.1172,-4.1172,-4.1172,-4.1172,-4.1172,-4.1172,-4.1172,-4.1172,-4.1172,-4.1172,-4.1172,-4.1172,-2.7012,-2.6894,-2.6758,-2.6758,-2.6621,-2.6306,-2.5825,-2.5852,-2.5925,-2.5901,0.0,0.0,0.0,0.0,0.0,0.0,-2.6829,-2.7746,-2.8663,-2.9287,-3.0754,-3.3707,-3.4642,-3.5411,-3.6423,-3.7104,-3.7311,-3.7028,-3.6802,-3.668,-3.668,-3.625,-3.5937,-3.5762,-3.5078,-3.4707,-3.4707,-3.4707,-3.4941,-3.5391,-3.5391,-3.5605,-3.6016,-3.6016,-3.6016,-3.6016,-3.6016,-3.6016,-3.6016,-3.6016,-3.6426,-3.7031,-3.7031,-3.7402,-3.7949,-3.8203,-3.8418,-3.8574,-3.8574,-3.8574,-3.8574,-3.8574,-3.8574,-3.8574,-3.8574,-3.8574,-3.8633,-3.8867,-3.9062,-3.9219,-3.9316,-3.9473,-3.9609,-3.9609,-3.9941,-4.0312,-4.0488,-4.0859,-4.1172,-4.1172,-4.1172,-4.1172,-4.1172,-4.1172,-4.1172,-4.1172,-4.1172,-4.1172,-4.1172,-4.1172,-4.1172,-4.1172,-4.1172,-4.1172,-4.1172,-4.1172,-4.1172,-4.1172,-4.1172,-4.1172,-4.1172,-4.1172,-4.1172,-4.1172,-4.1172,-4.1172,-4.1172,-4.1172,-4.1172,-4.1172,-4.1172,-4.1172,-2.75,-2.7461,-2.7383,-2.75,-2.7363,-2.7019,-2.6388,-2.6241,-2.6249,-2.6289,-2.6053,0.0,0.0,0.0,-2.6533,-2.6287,0.0,-2.7419,-2.7827,-2.8085,-2.9375,-3.2276,-3.3831,-3.5163,-3.6284,-3.7051,-3.7182,-3.6572,-3.6424,-3.6328,-3.6328,-3.625,-3.6094,-3.5859,-3.5449,-3.5176,-3.5059,-3.5059,-3.5234,-3.5566,-3.5566,-3.5723,-3.6016,-3.6016,-3.6016,-3.6016,-3.6016,-3.6016,-3.6035,-3.6152,-3.6641,-3.7305,-3.7422,-3.7734,-3.8144,-3.8457,-3.8574,-3.8574,-3.8574,-3.8574,-3.8574,-3.8574,-3.8574,-3.8574,-3.8574,-3.8652,-3.8809,-3.9121,-3.9375,-3.9629,-3.998,-4.0156,-4.0254,-4.0254,-4.0488,-4.0703,-4.0703,-4.0957,-4.1172,-4.1172,-4.1172,-4.1172,-4.1172,-4.1172,-4.1172,-4.1172,-4.1172,-4.1172,-4.1172,-4.1172,-4.1172,-4.1172,-4.1172,-4.1172,-4.1172,-4.1172,-4.1172,-4.1172,-4.1172,-4.1172,-4.1172,-4.1172,-4.1172,-4.1172,-4.1172,-4.1172,-4.1172,-4.1172,-4.1172,-4.1172,-4.1172,-4.1172,-2.875,-2.8555,-2.834,-2.875,-2.8242,-2.7519,-2.709,-2.6992,-2.6875,-2.6484,-2.6668,-2.689,-2.6654,-2.6877,-2.7113,0.0,-2.7122,0.0,0.0,-2.8011,-2.8446,-2.9628,-3.2162,-3.427,-3.5352,-3.5824,-3.6039,-3.6025,-3.5664,-3.543,-3.543,-3.6211,-3.6269,-3.5449,-3.6191,-3.6406,-3.5976,-3.5976,-3.5996,-3.5996,-3.5996,-3.6016,-3.6016,-3.6016,-3.6016,-3.6016,-3.6016,-3.6016,-3.6055,-3.6484,-3.6894,-3.7344,-3.7754,-3.8164,-3.8555,-3.8574,-3.8574,-3.8574,-3.8574,-3.8574,-3.8574,-3.8574,-3.8574,-3.8574,-3.8574,-3.8867,-3.918,-3.9199,-3.9824,-4.0488,-4.0508,-4.082,-4.1133,-4.1133,-4.1152,-4.1152,-4.1152,-4.1172,-4.1172,-4.1172,-4.1172,-4.1172,-4.1172,-4.1172,-4.1172,-4.1172,-4.1172,-4.1172,-4.1172,-4.1172,-4.1172,-4.1172,-4.1172,-4.1172,-4.1172,-4.1172,-4.1172,-4.1172,-4.1172,-4.1172,-4.1172,-4.1172,-4.1172,-4.1172,-4.1172,-4.1172,-4.1172,-4.1172,-4.1172,-4.1172,-4.1172,-4.1172,-2.8809,-2.8613,-2.8398,-2.8809,-2.8711,-2.8379,-2.7949,-2.7871,-2.7812,-2.7676,-2.7305,-2.7007,-2.7072,-2.7122,-2.7113,0.0,0.0,-2.7425,0.0,-2.7576,-2.7992,-2.9126,-3.1347,-3.3077,-3.3674,-3.4611,-3.5043,-3.4766,-3.4609,-3.4648,-3.4922,-3.5762,-3.6113,-3.582,-3.6367,-3.6465,-3.6016,-3.6016,-3.6016,-3.6016,-3.6016,-3.6016,-3.6016,-3.6016,-3.6016,-3.6016,-3.6016,-3.6191,-3.6465,-3.6601,-3.709,-3.7734,-3.7871,-3.8184,-3.8574,-3.8574,-3.8574,-3.8574,-3.8574,-3.8574,-3.8574,-3.8574,-3.8574,-3.8633,-3.8906,-3.9082,-3.9316,-3.9902,-4.0293,-4.0586,-4.0879,-4.1055,-4.1172,-4.1172,-4.1172,-4.1172,-4.1172,-4.1172,-4.1172,-4.1172,-4.1172,-4.1172,-4.1172,-4.1172,-4.1172,-4.1172,-4.1172,-4.1172,-4.1172,-4.1172,-4.1172,-4.1172,-4.1172,-4.1172,-4.1172,-4.1172,-4.1172,-4.1172,-4.1172,-4.1172,-4.1172,-4.1172,-4.1172,-4.1172,-4.1172,-4.1172,-4.1172,-4.1172,-4.1172,-4.1172,-4.1172,-4.1172,-2.8809,-2.8711,-2.8652,-2.9219,-2.9141,-2.8887,-2.8769,-2.8516,-2.834,-2.8476,-2.8086,-2.7779,-2.8048,-2.7936,-2.7767,0.0,0.0,0.0,0.0,-2.7691,-2.801,-2.8732,-3.0354,-3.1626,-3.2111,-3.3039,-3.3398,-3.2969,-3.293,-3.3184,-3.3769,-3.4902,-3.5625,-3.5801,-3.6504,-3.668,-3.625,-3.6094,-3.6016,-3.6016,-3.6016,-3.6016,-3.6016,-3.6016,-3.6016,-3.6035,-3.6191,-3.6406,-3.6699,-3.6992,-3.7441,-3.7949,-3.8086,-3.832,-3.8574,-3.8574,-3.8574,-3.8574,-3.8574,-3.8672,-3.8789,-3.8789,-3.8906,-3.9101,-3.9375,-3.9551,-3.9785,-4.0351,-4.0644,-4.082,-4.1094,-4.1172,-4.1172,-4.1172,-4.1172,-4.1172,-4.1172,-4.1172,-4.1172,-4.1172,-4.1055,-4.0996,-4.1152,-4.1035,-4.0996,-4.1152,-4.1172,-4.1172,-4.1172,-4.1172,-4.1172,-4.1172,-4.1172,-4.1172,-4.1172,-4.1172,-4.1172,-4.1172,-4.1172,-4.1172,-4.1172,-4.1172,-4.1172,-4.1172,-4.1172,-4.1172,-4.1172,-4.1172,-4.1172,-4.1172,-4.1172,-4.1172]},{"header":{"parameterUnit":"m.s-1","parameterCategory":1,"la1":30.6,"la2":29.2853,"lo1":-89.7004,"lo2":-87.6739,"dy":0.0162,"dx":0.0183,"nx":112,"ny":82,"refTime":"2026-04-17T12:00:00:Z","depth":0,"parameterNumber":3,"parameterNumberName":"V-component_of_WINDS"},"data":[0.0,0.0,0.0,0.0,0.0,0.0,0.0,0.0,0.0,0.0,0.0,0.0,0.0,0.0,0.0,0.0,0.0,0.0,0.0,0.0,0.0,0.0,0.0,0.0,0.0,0.0,0.0,0.0,0.0,0.0,0.0,0.0,0.0,0.0,0.0,0.0,0.0,0.0,0.0,0.0,0.0,0.0,0.0,0.0,0.0,0.0,0.0,0.0,0.0,0.0,0.0,0.0,0.0,0.0,0.0,0.0,0.0,0.0,0.0,0.0,0.0,0.0,0.0,0.0,0.0,0.0,0.0,0.0,0.0,0.0,0.0,0.0,0.0,0.0,0.0,0.0,0.0,0.0,0.0,0.0,0.0,0.0,0.0,0.0,0.0,0.0,0.0,0.0,0.0,0.0,2.0585,2.2503,2.3845,2.4301,2.3414,2.197,2.0733,1.9811,0.0,0.0,0.0,0.0,0.0,0.0,0.0,0.0,0.0,0.0,0.0,0.0,0.0,0.0,0.0,0.0,0.0,0.0,0.0,0.0,0.0,0.0,0.0,0.0,0.0,0.0,0.0,0.0,0.0,0.0,0.0,0.0,0.0,0.0,0.0,0.0,0.0,0.0,0.0,0.0,0.0,0.0,0.0,0.0,0.0,0.0,0.0,0.0,0.0,0.0,0.0,0.0,0.0,0.0,0.0,0.0,0.0,0.0,0.0,0.0,0.0,0.0,0.0,0.0,0.0,0.0,0.0,0.0,0.0,0.0,0.0,0.0,0.0,0.0,0.0,0.0,0.0,0.0,0.0,0.0,0.0,0.0,0.0,0.0,0.0,0.0,0.0,0.0,0.0,0.0,0.0,0.0,0.0,0.0,0.0,0.0,0.0,0.0,0.0,0.0,0.0,0.0,0.0,0.0,2.25,2.4488,2.5324,2.5473,2.4834,2.3782,2.2736,2.1797,0.0,0.0,0.0,0.0,0.0,0.0,0.0,0.0,0.0,0.0,0.0,0.0,0.0,0.0,0.0,0.0,0.0,0.0,0.0,0.0,0.0,0.0,0.0,0.0,0.0,0.0,0.0,0.0,0.0,0.0,0.0,0.0,0.0,0.0,0.0,0.0,0.0,0.0,0.0,0.0,0.0,0.0,0.0,0.0,0.0,0.0,0.0,0.0,0.0,0.0,0.0,0.0,0.0,0.0,0.0,0.0,0.0,0.0,0.0,0.0,0.0,0.0,0.0,0.0,0.0,0.0,0.0,0.0,0.0,0.0,0.0,0.0,0.0,0.0,0.0,0.0,0.0,0.0,0.0,0.0,0.0,0.0,0.0,0.0,0.0,0.0,0.0,0.0,0.0,0.0,0.0,0.0,0.0,0.0,0.0,0.0,0.0,0.0,0.0,0.0,0.0,0.0,0.0,2.2407,2.3883,2.4987,2.5476,2.5491,2.4847,2.3896,2.2857,2.173,1.9585,0.0,0.0,0.0,0.0,0.0,0.0,0.0,0.0,0.0,0.0,0.0,0.0,0.0,0.0,0.0,0.0,0.0,0.0,0.0,0.0,0.0,0.0,0.0,0.0,0.0,0.0,0.0,0.0,0.0,0.0,0.0,0.0,0.0,0.0,0.0,0.0,0.0,0.0,0.0,0.0,0.0,0.0,0.0,0.0,0.0,0.0,0.0,0.0,0.0,0.0,0.0,0.0,0.0,0.0,0.0,0.0,0.0,0.0,0.0,0.0,0.0,0.0,0.0,0.0,0.0,0.0,0.0,0.0,0.0,0.0,0.0,0.0,0.0,0.0,0.0,0.0,0.0,0.0,0.0,0.0,0.0,0.0,0.0,0.0,0.0,0.0,0.0,0.0,0.0,0.0,0.0,0.0,0.0,0.0,0.0,0.0,0.0,0.0,0.0,0.0,0.0,0.0,2.3836,2.4913,2.5299,2.5383,2.5183,2.4613,2.353,2.2403,2.1276,1.9916,0.0,0.0,0.0,0.0,0.0,0.0,0.0,0.0,0.0,0.0,0.0,0.0,0.0,0.0,0.0,0.0,0.0,0.0,0.0,0.0,0.0,0.0,0.0,0.0,0.0,0.0,0.0,0.0,0.0,0.0,0.0,0.0,0.0,0.0,0.0,0.0,0.0,0.0,0.0,0.0,0.0,0.0,0.0,0.0,0.0,0.0,0.0,0.0,0.0,0.0,0.0,0.0,0.0,0.0,0.0,0.0,0.0,0.0,0.0,0.0,0.0,0.0,0.0,0.0,0.0,0.0,0.0,0.0,0.0,0.0,0.0,0.0,0.0,0.0,0.0,0.0,0.0,0.0,0.0,0.0,0.0,0.0,0.0,0.0,0.0,0.0,0.0,0.0,0.0,0.0,0.0,0.0,0.0,0.0,0.0,0.0,0.0,0.0,0.0,0.0,0.0,0.0,2.4634,2.5323,2.5996,2.5461,2.4949,2.4598,2.3135,2.195,2.1262,1.9711,0.0,0.0,0.0,0.0,0.0,0.0,0.0,0.0,0.0,0.0,0.0,0.0,0.0,0.0,0.0,0.0,0.0,0.0,0.0,0.0,0.0,0.0,0.0,0.0,0.0,0.0,0.0,0.0,0.0,0.0,0.0,0.0,0.0,0.0,0.0,0.0,0.0,0.0,0.0,0.0,0.0,0.0,0.0,0.0,0.0,0.0,0.0,0.0,0.0,0.0,0.0,0.0,0.0,0.0,0.0,0.0,0.0,0.0,0.0,0.0,0.0,0.0,0.0,0.0,0.0,0.0,0.0,0.0,0.0,0.0,0.0,0.0,0.0,0.0,0.0,0.0,0.0,0.0,0.0,0.0,0.0,0.0,0.0,0.0,0.0,0.0,0.0,0.0,0.0,0.0,0.0,0.0,0.0,0.0,0.0,0.0,0.0,0.0,0.0,0.0,0.0,0.0,2.5485,2.6322,2.6413,2.6203,2.5692,2.4675,2.3653,2.2601,2.1534,0.0,0.0,0.0,0.0,0.0,0.0,0.0,0.0,0.0,0.0,0.0,0.0,0.0,0.0,0.0,0.0,0.0,0.0,0.0,0.0,0.0,0.0,0.0,0.0,0.0,0.0,0.0,0.0,0.0,0.0,0.0,0.0,0.0,0.0,0.0,0.0,0.0,0.0,0.0,0.0,0.0,0.0,0.0,0.0,0.0,0.0,0.0,0.0,0.0,0.0,0.0,0.0,0.0,0.0,0.0,0.0,0.0,0.0,0.0,0.0,0.0,0.0,0.0,0.0,0.0,0.0,0.0,0.0,0.0,0.0,0.0,0.0,0.0,0.0,0.0,0.0,0.0,0.0,0.0,0.0,0.0,0.0,0.0,0.0,0.0,0.0,0.0,0.0,0.0,0.0,0.0,0.0,0.0,0.0,0.0,0.0,0.0,0.0,0.0,0.0,0.0,0.0,2.4936,2.6783,2.7781,2.7571,2.7261,2.6498,2.525,2.4039,2.2757,2.1521,0.0,0.0,0.0,0.0,0.0,0.0,0.0,0.0,0.0,0.0,0.0,0.0,0.0,0.0,0.0,0.0,0.0,0.0,0.0,0.0,0.0,0.0,0.0,0.0,0.0,0.0,0.0,0.0,0.0,0.0,0.0,0.0,0.0,0.0,0.0,0.0,0.0,0.0,0.0,0.0,0.0,0.0,0.0,0.0,0.0,0.0,0.0,0.0,0.0,0.0,0.0,0.0,0.0,0.0,0.0,0.0,0.0,0.0,0.0,0.0,0.0,0.0,0.0,0.0,0.0,0.0,0.0,0.0,0.0,0.0,0.0,0.0,0.0,0.0,0.0,0.0,0.0,0.0,0.0,0.0,0.0,0.0,0.0,0.0,0.0,0.0,0.0,0.0,0.0,0.0,0.0,0.0,0.0,0.0,0.0,0.0,0.0,0.0,0.0,0.0,0.0,0.0,2.6526,2.8445,2.9636,2.9633,2.8473,2.7291,2.627,2.4086,2.2291,0.0,0.0,0.0,0.0,0.0,0.0,0.0,0.0,0.0,0.0,0.0,0.0,0.0,0.0,0.0,0.0,0.0,0.0,0.0,0.0,0.0,0.0,0.0,0.0,0.0,0.0,0.0,0.0,0.0,0.0,0.0,0.0,0.0,0.0,0.0,0.0,0.0,0.0,0.0,0.0,0.0,0.0,0.0,0.0,0.0,0.0,0.0,0.0,0.0,0.0,0.0,0.0,0.0,0.0,0.0,0.0,0.0,0.0,0.0,0.0,0.0,0.0,0.0,0.0,0.0,0.0,0.0,0.0,0.0,0.0,0.0,0.0,0.0,0.0,0.0,0.0,0.0,0.0,0.0,0.0,0.0,0.0,0.0,0.0,0.0,0.0,0.0,0.0,0.0,0.0,0.0,0.0,0.0,0.0,0.0,0.0,0.0,0.0,0.0,0.0,0.0,0.0,0.0,2.7066,2.9177,3.0354,2.9874,2.9342,2.8515,2.7261,2.5755,2.4407,2.3168,0.0,0.0,0.0,0.0,0.0,0.0,0.0,0.0,0.0,0.0,0.0,0.0,0.0,0.0,0.0,0.0,0.0,0.0,0.0,0.0,0.0,0.0,0.0,0.0,0.0,0.0,0.0,0.0,0.0,0.0,0.0,0.0,0.0,0.0,0.0,0.0,0.0,0.0,0.0,0.0,0.0,0.0,0.0,0.0,0.0,0.0,0.0,0.0,0.0,0.0,0.0,0.0,0.0,0.0,0.0,0.0,0.0,0.0,0.0,0.0,0.0,0.0,0.0,0.0,0.0,0.0,0.0,0.0,0.0,0.0,0.0,0.0,0.0,0.0,0.0,0.0,0.0,0.0,0.0,0.0,0.0,0.0,0.0,0.0,0.0,0.0,0.0,0.0,0.0,0.0,0.0,0.0,0.0,0.0,0.0,0.0,0.0,0.0,0.0,0.0,0.0,0.0,2.7985,3.0364,3.1702,3.1167,3.0747,3.0045,2.8714,2.7516,2.6136,2.4587,0.0,0.0,0.0,0.0,0.0,0.0,0.0,0.0,0.0,0.0,0.0,0.0,0.0,0.0,0.0,0.0,0.0,0.0,0.0,0.0,0.0,0.0,0.0,0.0,0.0,0.0,0.0,0.0,0.0,0.0,0.0,0.0,0.0,0.0,0.0,0.0,0.0,0.0,0.0,0.0,0.0,0.0,0.0,0.0,0.0,0.0,0.0,0.0,0.0,0.0,0.0,0.0,0.0,0.0,0.0,0.0,0.0,0.0,0.0,0.0,0.0,0.0,0.0,0.0,0.0,0.0,0.0,0.0,0.0,0.0,0.0,0.0,0.0,0.0,0.0,0.0,0.0,0.0,0.0,0.0,0.0,0.0,0.0,0.0,0.0,0.0,0.0,0.0,0.0,0.0,0.0,0.0,0.0,0.0,0.0,0.0,0.0,0.0,0.0,0.0,0.0,0.0,2.9088,3.1676,3.3285,3.2895,3.2336,3.1582,3.049,2.9197,2.76,2.5792,0.0,0.0,0.0,0.0,0.0,0.0,0.0,0.0,0.0,0.0,0.0,0.0,0.0,0.0,0.0,0.0,0.0,0.0,0.0,0.0,0.0,0.0,0.0,0.0,0.0,0.0,0.0,0.0,0.0,0.0,0.0,0.0,0.0,0.0,0.0,0.0,0.0,0.0,0.0,0.0,0.0,0.0,0.0,0.0,0.0,0.0,0.0,0.0,0.0,0.0,0.0,0.0,0.0,0.0,0.0,0.0,0.0,0.0,0.0,0.0,3.2418,3.0811,0.0,0.0,0.0,0.0,0.0,0.0,0.0,0.0,0.0,0.0,0.0,0.0,0.0,0.0,0.0,0.0,0.0,0.0,0.0,0.0,0.0,0.0,0.0,0.0,0.0,0.0,0.0,0.0,0.0,0.0,0.0,0.0,0.0,0.0,0.0,0.0,0.0,0.0,0.0,0.0,2.9506,3.1915,3.3296,3.258,3.2205,3.1767,3.1301,3.0465,2.9309,2.7791,2.5579,0.0,0.0,0.0,0.0,0.0,0.0,0.0,0.0,0.0,0.0,0.0,0.0,0.0,0.0,0.0,0.0,0.0,0.0,0.0,0.0,0.0,0.0,0.0,0.0,0.0,0.0,0.0,0.0,0.0,0.0,0.0,0.0,0.0,0.0,0.0,0.0,0.0,0.0,0.0,0.0,0.0,0.0,0.0,0.0,0.0,0.0,0.0,0.0,0.0,0.0,0.0,0.0,0.0,0.0,0.0,0.0,0.0,0.0,0.0,3.6112,3.4171,0.0,0.0,0.0,0.0,0.0,0.0,0.0,0.0,0.0,0.0,0.0,0.0,0.0,0.0,0.0,0.0,0.0,0.0,0.0,0.0,0.0,0.0,0.0,0.0,0.0,0.0,0.0,0.0,0.0,0.0,0.0,0.0,0.0,0.0,0.0,0.0,0.0,0.0,0.0,0.0,2.9766,3.1657,3.2793,3.2319,3.2188,3.1918,3.1524,3.1374,3.0607,2.9059,2.7202,0.0,0.0,0.0,0.0,0.0,0.0,0.0,0.0,0.0,0.0,0.0,0.0,0.0,0.0,0.0,0.0,0.0,0.0,0.0,0.0,0.0,0.0,0.0,0.0,0.0,0.0,0.0,0.0,0.0,0.0,0.0,0.0,0.0,0.0,0.0,0.0,0.0,0.0,0.0,0.0,0.0,0.0,0.0,0.0,0.0,0.0,0.0,0.0,0.0,0.0,0.0,0.0,0.0,4.3494,4.3835,4.394,4.4517,4.4517,4.3913,4.0746,3.8693,3.7566,3.7566,0.0,0.0,0.0,0.0,0.0,0.0,0.0,0.0,0.0,0.0,0.0,0.0,0.0,0.0,0.0,0.0,0.0,0.0,0.0,0.0,0.0,0.0,3.8111,3.8246,3.8519,3.8038,3.5658,0.0,0.0,0.0,0.0,0.0,0.0,0.0,0.0,0.0,0.0,0.0,3.0349,3.1653,3.2437,3.2319,3.233,3.2201,3.1816,3.2223,3.1859,3.0345,2.8873,2.7572,0.0,0.0,0.0,0.0,0.0,0.0,0.0,0.0,0.0,0.0,0.0,0.0,0.0,0.0,0.0,0.0,0.0,0.0,0.0,0.0,0.0,0.0,0.0,0.0,0.0,0.0,0.0,0.0,0.0,0.0,0.0,0.0,3.854,3.8646,0.0,0.0,0.0,0.0,0.0,0.0,0.0,0.0,0.0,0.0,0.0,0.0,0.0,4.2605,4.2683,4.4019,4.5022,4.5602,4.643,4.7072,4.766,4.8216,4.8429,4.8323,4.733,0.0,4.1437,4.1437,0.0,0.0,0.0,0.0,0.0,0.0,0.0,0.0,0.0,0.0,0.0,0.0,0.0,0.0,0.0,0.0,0.0,0.0,0.0,0.0,0.0,0.0,4.1037,4.2047,4.2263,4.2345,4.2486,3.9235,3.5912,3.4727,3.3409,3.1991,0.0,0.0,0.0,0.0,0.0,0.0,3.1716,3.29,3.3448,3.2765,3.2884,3.2942,3.2877,3.3312,3.3226,3.2351,3.0988,3.0028,2.9607,2.721,0.0,0.0,0.0,0.0,0.0,0.0,0.0,0.0,0.0,0.0,0.0,0.0,0.0,0.0,0.0,0.0,0.0,0.0,0.0,0.0,0.0,0.0,0.0,0.0,0.0,0.0,0.0,0.0,0.0,3.9696,4.0608,4.0247,4.0998,4.0972,0.0,0.0,0.0,0.0,0.0,0.0,0.0,0.0,0.0,4.1977,4.3938,4.538,4.6202,4.7472,4.8356,4.8824,4.9551,5.0036,5.0276,5.0863,5.097,5.0564,5.0324,4.8851,4.6478,4.5155,4.378,4.2378,0.0,0.0,0.0,0.0,4.0843,4.1769,4.2264,4.2091,4.1389,4.0156,0.0,0.0,0.0,0.0,0.0,0.0,0.0,3.8871,4.0328,4.2167,4.3606,4.3094,4.3448,4.3906,4.3674,4.2007,4.019,3.8836,3.6616,3.4656,3.3552,3.1057,0.0,0.0,0.0,3.1713,3.2861,3.3292,3.3362,3.283,3.2737,3.2678,3.2678,3.3377,3.3541,3.2932,3.2338,3.1724,3.104,2.9386,2.82,0.0,0.0,0.0,0.0,0.0,0.0,0.0,0.0,0.0,0.0,0.0,0.0,0.0,0.0,0.0,0.0,0.0,0.0,0.0,0.0,0.0,0.0,0.0,0.0,0.0,0.0,0.0,0.0,4.1708,4.2757,4.2468,4.3152,4.31,0.0,0.0,0.0,0.0,0.0,0.0,4.2678,4.3362,4.4124,4.4992,4.657,4.7947,4.9165,5.0292,5.1115,5.1605,5.2242,5.2598,5.2788,5.3133,5.3079,5.2647,5.235,5.1782,5.0945,4.8444,4.6729,4.5529,4.3928,4.3339,4.3386,4.2968,4.3498,4.4519,4.5346,4.5098,4.4312,4.3443,4.1889,4.0083,3.8737,0.0,0.0,0.0,0.0,4.1429,4.2178,4.3972,4.5261,4.3904,4.4284,4.4722,4.3899,4.3664,4.3145,4.1544,3.9314,3.7151,3.5755,3.3183,0.0,3.2897,3.268,3.2816,3.3978,3.3907,3.3598,3.325,3.2971,3.279,3.279,3.3564,3.394,3.375,3.3617,3.3218,3.2436,3.1484,3.0493,2.9362,0.0,0.0,0.0,0.0,0.0,0.0,0.0,0.0,0.0,0.0,0.0,0.0,0.0,0.0,0.0,0.0,0.0,0.0,0.0,0.0,0.0,0.0,0.0,0.0,0.0,0.0,0.0,0.0,0.0,4.5422,4.5529,0.0,0.0,0.0,0.0,4.4568,4.5928,4.6572,4.6355,4.7396,4.8036,4.8089,4.9205,4.9988,5.039,5.1591,5.2657,5.3554,5.4195,5.4734,5.5351,5.5379,5.5351,5.5267,5.4004,5.378,5.4057,5.1057,4.9125,4.8009,4.6809,4.6491,4.6706,4.6139,4.646,4.7269,4.7812,4.7296,4.6319,4.6265,4.4134,4.1564,4.1483,4.0482,0.0,0.0,4.2016,4.2819,4.4207,4.5071,4.556,4.5478,4.5505,4.5397,4.48,4.4435,4.3594,4.1342,4.0649,3.939,3.6333,0.0,3.4443,3.4415,3.4433,3.4666,3.5261,3.518,3.4872,3.4385,3.4086,3.3902,3.3902,3.4383,3.4834,3.5344,3.4962,3.4687,3.4618,3.3706,3.2417,3.0904,2.9895,0.0,0.0,0.0,0.0,0.0,0.0,0.0,0.0,0.0,0.0,0.0,0.0,0.0,0.0,0.0,0.0,0.0,0.0,0.0,0.0,0.0,0.0,0.0,0.0,0.0,0.0,0.0,0.0,4.7235,4.7662,0.0,4.7703,4.7916,4.8346,4.9032,5.0078,5.0541,5.0286,5.0815,5.0943,5.0569,5.1256,5.2017,5.2734,5.3547,5.4443,5.5364,5.5994,5.6393,5.6623,5.6623,5.6393,5.5991,5.5532,5.4986,5.4386,5.3666,5.2519,5.0989,4.9387,4.9054,4.941,4.8853,4.9072,4.9711,5.0322,4.9711,4.8489,4.7346,4.5656,4.4109,4.4157,4.3499,4.2953,4.3812,4.4525,4.5108,4.5601,4.6462,4.6855,4.5542,4.5343,4.5331,4.4556,4.3873,4.303,4.186,4.1554,4.1077,3.9553,3.787,3.6823,3.7103,3.6525,3.6385,3.7105,3.6697,3.6235,3.5904,3.56,3.5445,3.5445,3.5747,3.6077,3.6374,3.6129,3.6033,3.6138,3.5517,3.4775,3.3909,3.2178,3.0778,0.0,0.0,0.0,0.0,0.0,0.0,0.0,0.0,0.0,0.0,0.0,0.0,0.0,0.0,0.0,0.0,0.0,0.0,0.0,0.0,0.0,0.0,0.0,0.0,0.0,4.7132,4.8763,4.9987,5.0449,5.0701,5.0878,5.1234,5.1839,5.2823,5.3641,5.3918,5.3571,5.3608,5.3462,5.3082,5.3158,5.3768,5.4793,5.5412,5.6107,5.6963,5.7581,5.786,5.786,5.786,5.7625,5.7185,5.6745,5.607,5.5278,5.5278,5.4682,5.3694,5.2088,5.1672,5.1982,5.1356,5.1413,5.1729,5.1729,5.125,5.0507,4.883,4.7771,4.7116,4.7165,4.6709,4.6282,4.6709,4.7088,4.7401,4.7401,4.8027,4.8127,4.6212,4.5769,4.5406,4.4118,4.3163,4.2466,4.2086,4.2339,4.2226,4.0783,3.9811,3.9114,3.8854,3.8362,3.8194,3.8671,3.8312,3.795,3.7715,3.7354,3.702,3.6821,3.6973,3.7122,3.7245,3.7122,3.7122,3.7245,3.6946,3.6472,3.5771,3.3687,3.192,3.0507,0.0,0.0,0.0,0.0,0.0,0.0,0.0,0.0,0.0,0.0,0.0,0.0,0.0,0.0,0.0,0.0,0.0,0.0,0.0,0.0,0.0,0.0,0.0,4.8757,5.0607,5.2374,5.3642,5.381,5.3979,5.426,5.4297,5.4742,5.5704,5.6505,5.668,5.6135,5.5729,5.5554,5.5526,5.485,5.5138,5.6423,5.7078,5.764,5.825,5.8882,5.9153,5.9153,5.9153,5.9153,5.9093,5.7745,5.7176,5.7056,5.5739,5.5589,5.6025,5.482,5.4342,5.4284,5.3698,5.3466,5.3291,5.2013,5.1933,5.2223,5.0975,5.054,5.054,5.054,5.0124,4.9621,4.9621,4.9621,4.9621,4.9621,4.9621,4.9204,4.7691,4.6737,4.5681,4.3603,4.2543,4.2025,4.2052,4.2976,4.284,3.9888,4.0838,4.1408,3.9617,3.9834,0.0,3.9849,3.9961,3.9928,3.9642,3.921,3.8736,3.8122,3.8049,3.8023,3.7976,3.7903,3.7903,3.7928,3.7903,3.7411,3.6322,3.431,3.2106,2.9788,0.0,0.0,0.0,0.0,0.0,0.0,0.0,0.0,0.0,0.0,0.0,0.0,0.0,0.0,0.0,0.0,0.0,0.0,0.0,0.0,0.0,4.9875,5.0915,5.0818,5.2953,5.4916,5.6158,5.6706,5.7424,5.8399,5.8899,5.9317,5.9815,6.0241,5.993,5.8679,5.7364,5.645,5.599,5.5357,5.5606,5.6936,5.801,5.8847,5.9416,6.0031,6.0324,6.0324,6.0324,6.0324,6.0263,5.9408,5.8767,5.8298,5.7442,5.6892,5.6469,5.5338,5.5197,5.5553,5.49,5.4633,5.4455,5.3149,5.2823,5.2852,5.1992,5.1428,5.0994,5.0965,5.049,4.9944,4.9423,4.9304,4.9304,4.9304,4.9304,4.8975,4.7708,4.7027,4.6257,4.4823,4.3413,4.2499,4.299,4.3306,4.3045,4.1548,4.1679,4.1679,4.0757,4.0757,4.0819,4.0727,4.0769,4.0783,4.069,4.0596,4.0234,3.9646,3.9408,3.9176,3.8933,3.8371,3.8299,3.8879,3.8505,3.7704,3.6545,3.5685,3.3912,0.0,0.0,0.0,0.0,0.0,0.0,0.0,0.0,0.0,0.0,0.0,0.0,0.0,0.0,0.0,0.0,0.0,0.0,0.0,0.0,0.0,0.0,5.3131,5.4405,5.459,5.6005,5.7458,5.8729,5.923,5.9839,6.0674,6.1151,6.1634,6.2103,6.2242,6.1747,6.042,5.8804,5.7676,5.703,5.6383,5.6568,5.7648,5.8787,5.9629,6.0136,6.0586,6.0794,6.0794,6.0794,6.0794,6.0763,5.9778,5.9131,5.8701,5.7795,5.7179,5.6713,0.0,0.0,0.0,0.0,5.58,5.5618,5.4286,5.3801,5.365,5.2712,5.2136,5.1773,5.147,5.0925,5.0289,4.9623,4.9156,4.8944,4.8944,4.9156,4.9142,4.8099,4.76,4.7049,4.5739,4.4221,4.3222,4.3637,4.3678,0.0,4.311,4.305,4.2835,4.214,4.1917,4.1869,4.1869,4.1869,4.1869,4.1869,4.1869,4.1598,4.1001,4.0808,0.0,0.0,0.0,3.9077,3.9292,3.8966,0.0,0.0,0.0,0.0,0.0,3.3573,0.0,0.0,3.1637,3.2158,0.0,0.0,0.0,0.0,0.0,0.0,0.0,0.0,0.0,0.0,0.0,0.0,0.0,0.0,0.0,0.0,5.6146,5.8085,5.9008,5.9348,5.9945,6.1147,6.1417,6.1619,6.1866,6.2141,6.2555,6.3163,6.3194,6.2663,6.1715,6.0144,0.0,0.0,0.0,5.7737,5.864,5.9538,6.0136,6.0429,6.069,6.0794,6.0794,6.0794,6.0794,6.0732,5.9378,5.8793,5.867,5.7364,5.681,5.681,5.681,5.681,5.681,5.681,5.681,5.6625,5.5191,0.0,0.0,5.316,5.2698,5.2575,5.1805,5.1159,5.0543,4.9774,4.9097,4.8604,4.8604,4.9097,4.9362,4.8466,4.8231,4.7802,4.6493,4.5165,4.4266,4.4354,4.4325,4.4384,4.4689,4.4565,4.4201,4.3485,4.3115,4.29,4.29,4.29,4.29,4.29,4.29,0.0,4.2059,4.2005,4.1517,4.035,4.0214,3.9888,3.9237,3.9264,3.9047,3.8532,3.8357,3.7755,3.6804,3.683,3.6612,3.6139,3.3851,3.3639,0.0,0.0,0.0,0.0,0.0,0.0,0.0,0.0,0.0,0.0,0.0,0.0,0.0,0.0,0.0,5.5961,5.7118,5.8577,6.0886,6.169,6.2196,6.2472,6.3483,6.4212,6.4267,6.4322,6.4384,6.4506,6.4537,6.393,6.2618,6.1216,6.0175,5.9502,5.8828,5.8848,5.9522,6.0248,6.0638,6.069,6.0794,0.0,6.0794,6.0794,6.0794,6.0732,5.9378,5.8793,5.867,5.7364,5.681,5.681,5.681,5.681,5.681,5.681,5.681,5.6625,5.5191,5.4683,5.4468,5.316,5.2698,5.2483,5.1251,5.079,0.0,4.9189,4.8727,4.8604,4.8604,4.8727,4.8747,4.8374,4.8183,4.7915,4.7387,4.6561,4.602,4.6542,4.6258,4.5951,4.6124,4.5155,4.4246,4.3899,4.3307,4.29,4.29,4.29,4.29,4.29,4.29,4.2656,4.2059,4.2005,4.1707,4.0974,4.0458,3.9699,3.864,3.9047,3.9264,3.9129,3.9084,3.8986,3.8762,3.8762,3.8718,3.8603,3.6817,3.6396,0.0,0.0,0.0,0.0,0.0,0.0,0.0,0.0,0.0,0.0,0.0,5.3806,5.4145,0.0,5.6577,5.7623,5.8331,5.9501,6.1532,6.2671,6.3472,6.381,6.4457,6.4888,6.4888,6.4888,6.4888,6.4888,6.4888,6.4303,6.2887,6.1871,6.0824,5.9809,5.947,5.9439,5.9778,6.0455,6.0794,6.0794,6.0794,6.0794,6.0794,6.0455,6.0301,6.0209,5.8854,5.827,5.8208,5.7241,5.681,5.681,5.681,5.681,5.681,5.681,5.681,5.6625,5.5191,5.4683,5.4468,5.316,5.2698,5.2513,5.1498,5.0974,5.0482,4.9435,4.8881,4.8543,4.8204,4.8358,4.8501,4.808,4.814,4.826,4.8133,4.7775,4.7539,4.7904,4.7691,4.7455,4.7478,4.6226,4.5088,4.4638,4.4068,4.3594,4.3451,4.3355,4.3211,4.3115,4.297,4.2765,4.2466,4.2168,4.1761,4.1164,4.054,3.978,3.8912,3.9427,3.9753,3.9753,4.0051,4.0214,4.0214,4.0214,4.0214,4.0187,3.9393,3.9007,0.0,0.0,0.0,0.0,0.0,0.0,0.0,5.3098,5.3498,5.3498,5.4884,5.6084,5.6084,5.7131,5.8177,5.8885,5.9562,6.0455,6.1809,6.3071,6.4026,6.4611,6.4826,6.4888,6.4888,6.4888,6.4888,6.4888,6.4888,6.4303,6.2887,6.2302,6.1379,6.0024,5.9993,5.9993,5.9993,6.0517,6.0794,6.0794,6.0794,6.0732,6.0578,6.0055,5.9716,5.9532,5.835,5.7734,5.758,5.7025,5.681,5.681,5.681,5.681,5.681,5.681,5.681,5.6625,5.5191,5.4683,5.4468,5.316,5.2698,5.2575,5.1898,5.1313,5.0759,5.0082,4.9466,4.8881,4.8358,4.8604,4.885,4.8173,4.8419,4.8789,4.8635,4.8604,4.8604,4.8604,4.8604,4.8552,4.8313,4.7353,4.6291,4.557,4.4886,4.4442,4.4275,4.3946,4.3662,4.3451,4.3115,4.29,4.29,4.2439,4.1924,4.1327,4.0811,4.0268,3.9671,4.0106,4.0431,4.054,4.1028,4.1354,4.1462,4.1462,4.1462,4.1462,4.1462,4.1055,4.6973,4.8943,5.1682,5.3129,5.4976,5.644,0.0,5.6317,5.6347,5.6347,5.7025,5.758,5.758,5.8146,5.8885,5.9562,6.024,6.1163,6.2517,6.3349,6.3841,6.3933,6.4518,6.4888,6.4888,6.4888,6.4888,6.4888,6.4888,6.4303,6.2887,6.2733,6.2086,6.0732,6.0701,6.0701,6.0701,6.0763,6.0794,6.0794,6.0794,6.0486,5.9901,5.9809,5.947,5.8854,5.8085,5.7487,5.6933,5.684,5.681,5.681,5.681,5.681,5.681,5.681,5.681,5.6625,5.5191,5.4683,5.4468,5.316,5.2698,5.2575,5.1898,5.1652,5.1436,5.0759,5.0513,5.0451,5.0359,5.042,5.0297,4.962,4.9497,4.9404,4.8758,4.8604,4.8604,4.8604,4.8604,4.8552,4.8313,4.803,4.7546,4.6828,4.558,4.4873,4.5195,4.4638,4.4125,4.3946,4.3307,4.29,4.29,4.2819,4.2548,4.1951,4.1842,4.1544,4.0947,4.0974,4.1272,4.1788,4.1869,4.2168,4.2683,4.2683,4.2683,4.2683,4.2683,4.2086,4.9127,5.119,5.3683,5.4637,5.7008,5.9008,5.8608,5.9131,5.9686,5.9686,6.024,6.0578,6.0178,6.0024,6.0178,6.0855,6.1194,6.1871,6.3195,6.3995,6.4303,6.3872,6.341,6.3256,6.3656,6.4057,6.4272,6.4272,6.4672,6.4457,6.3472,6.3041,6.2364,6.1409,6.1009,6.0794,6.0794,6.0794,6.0794,6.0794,6.0794,6.0455,5.9778,5.9378,5.8608,5.7641,5.7364,5.7087,5.681,5.681,5.681,5.681,5.681,5.681,5.681,5.681,5.681,5.6625,5.5191,5.4683,5.4468,5.316,5.2698,5.2667,5.239,5.2298,5.2236,5.1959,5.1867,5.1775,5.1374,5.1282,5.1097,5.042,4.9959,4.962,4.9312,4.8912,4.8604,4.8604,4.8604,4.8563,4.848,4.809,4.7801,4.7873,4.6565,4.574,4.6063,4.5219,4.4499,4.4247,4.3974,4.3784,4.3784,4.3642,4.3251,4.243,4.2309,4.1875,4.1137,4.1462,4.1761,4.2005,4.2331,4.2629,4.29,4.29,4.29,4.29,4.29,4.2629,5.1097,5.3098,5.5175,5.6053,5.8701,6.0948,6.0455,6.1255,6.2025,6.184,6.2056,6.2117,6.1625,6.1132,6.1009,6.1686,6.2117,6.2702,6.3687,6.4426,6.458,6.3656,6.2671,6.2148,6.224,6.2856,6.341,6.3756,6.4487,6.458,6.3872,6.3195,6.2517,6.184,6.1163,6.0794,6.0794,6.0794,6.0794,6.0794,6.0794,6.0332,5.9501,5.8608,5.7734,5.681,5.681,5.681,5.681,5.681,5.681,5.681,5.681,5.681,5.681,5.681,5.6686,5.63,5.513,5.456,5.4222,5.3098,5.2698,5.2698,5.2698,5.2698,5.2698,5.2698,5.2698,5.2606,5.2113,5.199,5.1805,5.1128,5.0605,5.0205,5.002,4.9558,4.9127,4.8943,4.8912,4.885,4.8666,4.8204,4.805,4.8543,4.7441,4.6653,4.6778,4.5785,4.5022,4.4823,4.4787,4.4787,4.4787,4.4555,4.4032,4.3185,4.2951,4.2457,4.1625,4.2032,4.2249,4.2249,4.2683,4.29,4.29,4.29,4.29,4.29,4.29,4.29,5.2113,5.4099,5.5975,5.7377,5.9747,6.1779,6.1748,6.2271,6.261,6.1933,6.1317,6.0855,6.0824,6.0824,6.1009,6.1686,6.2918,6.3779,6.3756,6.4426,6.4395,6.301,6.2825,6.2271,6.0978,6.1471,6.2425,6.3718,6.4487,6.458,6.3872,6.3195,6.2517,6.184,6.1163,6.0794,6.0794,6.0794,6.0794,6.0794,6.0794,6.0116,5.8762,5.7487,5.684,5.681,5.681,5.681,5.681,5.681,5.681,5.681,5.681,5.681,5.681,5.681,5.6378,5.5622,5.4976,5.4252,5.3652,5.2944,5.2698,5.2698,5.2698,5.2698,5.2698,5.2698,5.2698,5.2698,5.2698,5.2698,5.2513,5.1836,5.1652,5.1467,5.082,5.0636,5.0451,4.9774,4.9651,4.9435,4.8727,4.8604,4.8604,4.8604,4.8009,4.7497,4.7323,4.6431,4.5827,4.5766,4.5734,4.5734,4.5734,4.5508,4.5024,4.4284,4.4078,4.3634,4.2895,4.2846,4.2846,4.2846,4.2873,4.29,4.29,4.29,4.29,4.29,4.29,4.29,5.2944,5.5191,5.7408,5.8762,6.0824,6.2579,6.3041,6.3687,6.3872,6.2702,6.1933,6.1317,6.0886,6.1163,6.1686,6.2364,6.3626,6.4549,6.4549,6.4734,6.4549,6.3595,6.2702,6.1963,6.1502,6.1686,6.1994,6.2456,6.3533,6.3903,6.3195,6.2948,6.2517,6.184,6.1163,6.0794,6.0794,6.0794,6.0794,6.0794,5.9901,5.8978,5.8134,5.7241,5.681,5.681,5.681,5.681,5.681,5.681,5.681,5.681,5.681,5.681,5.681,5.681,5.6347,5.5592,5.4945,5.4252,5.3622,5.2944,5.2698,5.2698,5.2698,5.2698,5.2698,5.2698,5.2698,5.2698,5.2698,5.2698,5.2637,5.2421,5.2021,5.1652,5.1405,5.1005,5.0636,5.0389,4.9989,4.962,4.9374,4.8943,4.845,4.8019,4.8019,4.7823,4.7117,4.7033,4.6967,4.6814,4.677,4.677,4.677,4.6417,4.5927,4.531,4.4972,4.4462,4.3926,4.3879,4.3879,4.3879,4.3689,4.3546,4.3375,4.3211,4.3067,4.29,4.29,4.29,5.436,5.6453,5.8393,5.9501,6.1317,6.2918,6.3379,6.3995,6.4118,6.2733,6.1532,6.0609,6.0147,6.064,6.1379,6.2302,6.3841,6.4888,6.4888,6.4888,6.4641,6.3903,6.3071,6.2333,6.1871,6.1594,6.144,6.144,6.224,6.2671,6.2456,6.2456,6.2271,6.1809,6.1163,6.0794,6.0794,6.0794,6.0671,6.0424,5.907,5.8227,5.7795,5.7118,5.681,5.681,5.681,5.681,5.681,5.681,5.681,5.681,5.681,5.681,5.681,5.681,5.6347,5.5592,5.4945,5.4252,5.3622,5.2944,5.2698,5.2698,5.2698,5.2698,5.2698,5.2698,5.2698,5.2698,5.2698,5.2698,5.2698,5.2698,5.239,5.2082,5.2082,5.1713,5.1344,5.1097,5.0697,5.0328,5.0082,4.9651,4.922,4.8758,4.8756,4.8416,4.7302,4.741,4.7649,4.7764,4.7752,4.7752,4.7752,4.7409,4.6945,4.6344,4.5943,4.552,4.4926,4.4879,4.4879,4.4879,4.4648,4.4322,4.3871,4.3662,4.3307,4.29,4.29,4.3009,5.644,5.798,5.9131,5.9778,6.1379,6.2825,6.2825,6.3318,6.3379,6.1994,6.0086,5.867,5.867,5.9224,6.0147,6.1532,6.3533,6.4888,6.4888,6.4888,6.4641,6.3964,6.3872,6.3349,6.1994,6.1225,6.0794,6.0763,6.0763,6.1071,6.1717,6.1779,6.1779,6.1748,6.1132,6.0794,6.0794,6.0763,6.0393,5.9686,5.8393,5.7795,5.7734,5.7118,5.681,5.681,5.681,5.681,5.681,5.681,5.681,5.681,5.681,5.681,5.681,5.681,5.6378,5.5653,5.5007,5.4283,5.3622,5.2975,5.2729,5.2698,5.2698,5.2698,5.2698,5.2698,5.2698,5.2698,5.2698,5.2698,5.2698,5.2698,5.2698,5.2698,5.2698,5.2698,5.2513,5.1867,5.1713,5.1498,5.082,5.0697,5.0697,5.0636,5.0143,4.9251,4.7896,4.7681,4.7896,4.8543,4.8604,4.8604,4.8604,4.8427,4.8019,4.7306,4.7046,4.6609,4.5913,4.5869,4.5898,4.5927,4.5627,4.5155,4.449,4.4209,4.3717,4.3024,4.3024,4.3324,5.8731,6.0363,6.184,6.1994,6.2425,6.2825,6.2825,6.2948,6.2548,6.0701,5.8701,5.7333,5.7333,5.7888,5.8885,6.0763,6.3225,6.4888,6.4888,6.4888,6.4826,6.4641,6.4641,6.4087,6.2702,6.1502,6.0578,6.0086,6.0517,6.0886,6.104,6.1532,6.1563,6.1071,6.0886,6.0794,6.0794,6.0301,5.9439,5.8319,5.798,5.7549,5.7056,5.6902,5.681,5.681,5.681,5.681,5.681,5.681,5.681,5.681,5.681,5.681,5.681,5.681,5.6686,5.644,5.5684,5.4699,5.3637,5.3529,5.3129,5.2698,5.2698,5.2698,5.2698,5.2698,5.2698,5.2698,5.2698,5.2698,5.2698,5.2698,5.2698,5.2698,5.2698,5.2698,5.2667,5.2483,5.2052,5.1498,5.082,5.0697,5.0513,5.002,5.0236,5.0112,4.9281,4.8696,4.8419,4.8604,4.8604,4.8604,4.8604,4.8427,4.8175,4.7807,4.7551,4.7279,4.6931,4.6931,4.7139,4.7659,4.7183,4.692,4.6904,4.6024,4.5232,4.4662,4.4662,4.4745,6.0486,6.1717,6.2733,6.2456,6.261,6.2671,6.2086,6.1686,6.1071,5.9624,5.7254,5.5715,5.6656,5.7118,5.8134,6.0424,6.2825,6.4426,6.4426,6.4426,6.4303,6.4026,6.4241,6.3995,6.2918,6.1871,6.1071,6.0701,6.0209,6.0055,6.0332,6.1009,6.1194,6.0824,6.0794,6.0671,6.0363,5.9378,5.8516,5.7826,5.7518,5.7179,5.681,5.681,5.681,5.681,5.681,5.681,5.681,5.681,5.681,5.681,5.681,5.681,5.681,5.681,5.681,5.6748,5.6347,5.5468,5.4545,5.4222,5.3714,5.316,5.316,5.2944,5.2698,5.2698,5.2698,5.2698,5.2698,5.2698,5.2698,5.2698,5.2698,5.2698,5.2698,5.2698,5.2698,5.2698,5.2421,5.2021,5.1652,5.159,5.1344,5.0667,5.0882,5.0882,5.0205,4.9528,4.8974,4.8635,4.8604,4.8604,4.8604,4.851,4.8355,4.826,4.8133,4.8007,4.788,4.8183,4.8559,4.8893,4.8771,4.8656,4.8391,4.767,4.6986,4.6424,4.6424,4.6519,6.1933,6.2579,6.2918,6.2148,6.2394,6.2425,6.0886,6.0024,5.9316,5.8547,5.5807,5.4176,5.6146,5.6686,5.7672,6.024,6.2456,6.3841,6.3841,6.3687,6.3379,6.2887,6.3256,6.3349,6.2856,6.2271,6.1902,6.1809,6.0086,5.9316,5.9901,6.0486,6.0794,6.0794,6.0701,6.0332,5.9655,5.8393,5.7765,5.7672,5.7087,5.681,5.681,5.681,5.681,5.681,5.681,5.681,5.681,5.681,5.681,5.681,5.681,5.681,5.681,5.681,5.681,5.681,5.681,5.6361,5.5715,5.5068,5.4283,5.3714,5.3714,5.3252,5.2698,5.2698,5.2698,5.2698,5.2698,5.2698,5.2698,5.2698,5.2698,5.2698,5.2698,5.2698,5.2698,5.2698,5.2698,5.2698,5.2698,5.2698,5.2452,5.1682,5.1713,5.1528,5.0667,5.0143,4.9589,4.8943,4.8881,4.8881,4.8881,4.8881,4.8881,4.8881,4.8881,4.8881,4.8881,4.9497,4.9866,4.9959,5.0266,5.0134,4.9569,4.9253,4.8768,4.8138,4.8138,4.8384,6.3595,6.3995,6.4241,6.2948,6.2733,6.2179,5.9686,5.8608,5.7746,5.6484,5.4453,5.3345,5.4822,5.5992,5.7518,5.9624,6.2148,6.3841,6.3841,6.2856,6.2333,6.2764,6.2425,6.2333,6.2764,6.2702,6.2425,6.184,6.0948,6.0486,6.0609,6.0732,6.0794,6.0794,6.024,5.9624,5.8947,5.8227,5.7549,5.6994,5.6871,5.681,5.681,5.681,5.681,5.681,5.681,5.681,5.681,5.681,5.681,5.681,5.681,5.681,5.681,5.681,5.681,5.681,5.681,5.6717,5.6502,5.5745,5.4699,5.3714,5.3714,5.3252,5.2698,5.2698,5.2698,5.2698,5.2698,5.2698,5.2698,5.2698,5.2698,5.2698,5.2698,5.2698,5.2698,5.2698,5.2698,5.2698,5.2698,5.2698,5.2298,5.1067,5.1836,5.1898,5.0082,5.0236,5.0482,5.0359,5.0328,5.0328,5.0328,5.0328,5.0328,5.0328,5.0328,5.0328,5.0328,5.0451,5.079,5.1344,5.1216,5.1255,5.1516,5.0698,5.0124,4.9773,4.9773,4.9832,6.5103,6.5165,6.5011,6.3256,6.2548,6.1594,5.8885,5.7438,5.6392,5.5407,5.3591,5.2821,5.4853,5.5191,5.6084,5.8824,6.0948,6.2117,6.1779,6.1471,6.1286,6.1255,6.1255,6.1686,6.2702,6.2825,6.2671,6.2364,6.1379,6.0794,6.0794,6.0794,6.064,6.027,5.9624,5.8947,5.827,5.7641,5.7118,5.681,5.681,5.681,5.681,5.681,5.681,5.681,5.681,5.681,5.681,5.681,5.681,5.681,5.681,5.681,5.681,5.681,5.681,5.681,5.681,5.681,5.6748,5.6409,5.5561,5.476,5.476,5.4299,5.3775,5.3775,5.3775,5.3775,5.3775,5.3775,5.3775,5.3775,5.3498,5.3129,5.279,5.2698,5.2698,5.2698,5.2698,5.2698,5.2698,5.2698,5.2359,5.1374,5.2082,5.2236,5.0913,5.1313,5.1467,5.0759,5.0697,5.0697,5.0697,5.0697,5.0697,5.0697,5.0697,5.0697,5.0697,5.1036,5.1374,5.1682,5.1888,5.2136,5.2337,5.191,5.1622,5.1501,5.1501,5.1501,6.6304,6.6027,6.5411,6.3349,6.2086,6.064,5.7777,5.6053,5.4884,5.4206,5.2821,5.239,5.4637,5.4453,5.4914,5.7869,5.9593,6.0393,5.987,5.9993,6.0055,5.9809,6.0116,6.1009,6.2641,6.2948,6.2979,6.2825,6.1563,6.0794,6.0794,6.0794,6.0486,5.9809,5.9131,5.8454,5.7826,5.7148,5.681,5.681,5.681,5.681,5.681,5.681,5.681,5.681,5.681,5.681,5.681,5.681,5.681,5.681,5.681,5.681,5.681,5.681,5.681,5.681,5.681,5.681,5.681,5.681,5.6269,5.5684,5.5684,5.5253,5.4683,5.4683,5.4683,5.4683,5.4683,5.4683,5.4652,5.4498,5.4068,5.3529,5.2852,5.2698,5.2698,5.2698,5.2698,5.2698,5.2698,5.2698,5.2483,5.1805,5.2267,5.2483,5.1805,5.2298,5.2298,5.1251,5.1128,5.1128,5.1128,5.1128,5.1128,5.1128,5.1128,5.1128,5.1128,5.1621,5.1929,5.1929,5.2452,5.2698,5.2698,5.2698,5.2698,5.2698,5.2698,5.2698,6.7012,6.6365,6.5411,6.3349,6.1379,5.9101,5.5776,5.396,5.279,5.2113,5.1836,5.1959,5.2821,5.3899,5.513,5.6748,5.8608,5.987,5.9809,5.8793,5.8485,5.9655,5.9316,5.9993,6.2579,6.3379,6.3472,6.2856,6.1563,6.0794,6.0794,6.0794,6.0486,5.9809,5.9131,5.8454,5.7826,5.7148,5.681,5.681,5.681,5.681,5.681,5.681,5.681,5.681,5.681,5.681,5.681,5.681,5.681,5.681,5.681,5.681,5.681,5.681,5.681,5.681,5.681,5.681,5.681,5.681,5.6269,5.5684,5.5684,5.5253,5.4683,5.4683,5.4683,5.4683,5.4683,5.4683,5.4529,5.3914,5.373,5.3529,5.2852,5.2698,5.2698,5.2698,5.2698,5.2698,5.2698,5.2698,5.2483,5.1805,5.2267,5.2483,5.1805,5.2298,5.2667,5.2544,5.2513,5.2513,5.2513,5.2513,5.2513,5.2513,5.2513,5.2513,5.2513,5.2575,5.2637,5.2637,5.2667,5.2698,5.2698,5.2698,5.2698,5.2698,5.2698,5.2698,6.6396,6.6704,6.6427,6.3533,6.1286,5.8916,5.5452,5.3683,5.2513,5.1836,5.2021,5.2513,5.3191,5.3437,5.4083,5.5838,5.7161,5.7962,5.7962,5.7869,5.8011,5.8516,5.8331,5.907,6.1379,6.184,6.1902,6.1625,6.1101,6.0794,6.0794,6.0794,6.0301,5.9224,5.8916,5.827,5.7241,5.6933,5.681,5.681,5.681,5.681,5.681,5.681,5.681,5.681,5.681,5.681,5.681,5.681,5.681,5.681,5.681,5.681,5.681,5.681,5.681,5.681,5.681,5.681,5.681,5.681,5.6625,5.6378,5.6378,5.6146,5.5961,5.5961,5.5961,5.5961,5.5961,5.5961,5.5776,5.5068,5.4914,5.473,5.4083,5.3883,5.376,5.3406,5.3314,5.3191,5.279,5.2698,5.2637,5.2359,5.2544,5.2606,5.2359,5.2544,5.2698,5.2698,5.2698,5.2698,5.2698,5.2698,5.2698,5.2698,5.2698,5.2698,5.2698,5.2698,5.2698,5.2698,5.2698,5.2698,5.2698,5.2698,5.2698,5.2698,5.2698,5.2698,6.578,6.6888,6.7165,6.3933,6.1132,5.8362,5.5161,5.3067,5.1744,5.1467,5.1959,5.2637,5.3283,5.2883,5.2944,5.4545,5.5222,5.5622,5.5838,5.6607,5.7161,5.7161,5.7395,5.8165,5.9747,6.027,6.0671,6.1071,6.0917,6.0794,6.0794,6.0794,6.0178,5.8824,5.8793,5.8165,5.681,5.681,5.681,5.681,5.681,5.681,5.681,5.681,5.681,5.681,5.681,5.681,5.681,5.681,5.681,5.681,5.681,5.681,5.681,5.681,5.681,5.681,5.681,5.681,5.681,5.681,5.681,5.681,5.681,5.681,5.681,5.681,5.681,5.681,5.681,5.681,5.6625,5.5869,5.5684,5.553,5.4806,5.4683,5.4468,5.3837,5.3714,5.3498,5.2821,5.2698,5.2698,5.2698,5.2698,5.2698,5.2698,5.2698,5.2698,5.2698,5.2698,5.2698,5.2698,5.2698,5.2698,5.2698,5.2698,5.2698,5.2698,5.2698,5.2698,5.2698,5.2698,5.2821,5.3006,5.3006,5.3129,5.3314,5.3314,5.3314,6.5534,6.6888,6.7258,6.4518,6.0763,5.7069,5.436,5.1652,4.9897,5.0574,5.1251,5.1929,5.2606,5.2175,5.1929,5.2637,5.276,5.2975,5.3652,5.4884,5.5715,5.5715,5.6378,5.7087,5.7795,5.9008,6.0363,6.1686,6.1163,6.0794,6.0794,6.0794,6.0178,5.8824,5.8793,5.8165,5.681,5.681,5.681,5.681,5.681,5.681,5.681,5.681,5.681,5.681,5.681,5.681,5.681,5.681,5.681,5.681,5.681,5.681,5.681,5.681,5.681,5.681,5.681,5.681,5.681,5.681,5.681,5.681,5.681,5.681,5.681,5.681,5.681,5.681,5.681,5.681,5.6625,5.5869,5.5684,5.553,5.4806,5.4683,5.4468,5.3837,5.3714,5.3498,5.2821,5.2698,5.2698,5.2698,5.2698,5.2698,5.2698,5.2698,5.2698,5.2698,5.2698,5.2698,5.2698,5.2698,5.2698,5.2698,5.2698,5.2698,5.2698,5.2698,5.2698,5.2698,5.2698,5.3037,5.3714,5.3714,5.4052,5.4652,5.4652,5.4652,6.1556,6.3809,6.4878,6.1629,5.9197,5.673,5.3561,5.1417,5.0299,5.0983,5.1623,5.2262,5.2874,5.2634,5.2606,5.3283,5.3006,5.3098,5.4191,5.5114,5.5715,5.5684,5.673,5.758,5.7795,5.9008,6.0147,6.104,6.0917,6.0794,6.0794,6.0363,5.9686,5.8824,5.8793,5.8165,5.681,5.681,5.681,5.681,5.681,5.681,5.681,5.681,5.681,5.681,5.681,5.681,5.681,5.681,5.681,5.681,5.681,5.681,5.681,5.681,5.681,5.681,5.681,5.681,5.681,5.681,5.681,5.681,5.681,5.681,5.681,5.681,5.681,5.681,5.681,5.681,5.6748,5.6532,5.6471,5.6361,5.6176,5.6115,5.5899,5.5222,5.5068,5.4853,5.416,5.4083,5.3883,5.3468,5.3406,5.3221,5.276,5.2698,5.2698,5.2698,5.3129,5.3221,5.276,5.2698,5.2698,5.2698,5.2698,5.2698,5.2698,5.2698,5.2698,5.2698,5.316,5.3498,5.3714,5.4129,5.4468,5.4683,5.4683,5.4976,5.8076,6.0783,6.2203,5.9576,5.7715,5.5851,5.3189,5.1351,5.0411,5.1382,5.1873,5.2383,5.309,5.2736,5.2483,5.2883,5.2175,5.2144,5.3699,5.4714,5.5575,5.6392,5.7056,5.7549,5.7795,5.8762,5.9809,6.0732,6.0794,6.0701,6.0424,6.0024,5.9378,5.8423,5.8393,5.7919,5.681,5.681,5.681,5.681,5.681,5.681,5.681,5.681,5.681,5.681,5.681,5.681,0.0,5.681,5.681,5.681,5.681,5.681,5.681,5.681,5.681,5.681,5.681,5.681,5.681,5.681,5.681,5.681,5.681,5.681,5.681,5.681,5.681,5.681,5.681,5.681,5.681,5.681,5.681,5.681,5.681,5.681,5.6594,5.5838,5.5684,5.5499,5.4806,5.4683,5.4529,5.4129,5.4068,5.396,5.3529,5.3468,5.3468,5.3468,5.3837,5.3883,5.3498,5.3468,5.3468,5.3468,5.3468,5.3468,5.3468,5.3468,5.3468,5.3468,5.3853,5.4206,5.4483,5.5161,5.5499,5.5499,5.5499,5.5715,0.0,5.7809,5.9349,5.8041,5.6257,5.4502,5.3292,5.1435,0.0,5.1783,5.2005,5.2219,5.3146,5.2461,5.1709,5.1709,5.066,5.0494,5.2421,5.396,5.5622,5.7623,5.7333,5.721,5.7826,5.8454,5.9378,6.064,6.0732,6.0424,5.9747,5.9686,5.907,5.7857,5.7765,5.7457,5.681,5.681,5.681,5.681,5.681,5.681,5.681,5.681,5.681,5.681,5.681,5.681,5.681,5.681,5.681,5.681,5.681,5.681,5.681,5.681,5.681,5.681,5.681,5.681,5.681,5.681,5.681,5.681,5.681,5.681,5.681,5.681,5.681,5.681,5.681,5.681,5.681,5.681,5.681,5.681,5.681,5.681,5.6625,5.5899,5.5776,5.5592,5.4976,5.4837,5.4806,5.4775,5.4745,5.4745,5.4683,5.4683,5.4683,5.4683,5.4714,5.4745,5.4745,5.4714,5.4683,5.4683,5.4683,5.4683,5.4683,5.4683,5.4683,5.4683,5.4745,5.513,5.5776,5.6502,5.681,5.681,5.6871,5.6871,5.1163,0.0,5.6419,5.525,5.4691,5.4244,0.0,5.1958,5.1218,5.2706,5.2506,5.2219,5.2713,5.2292,5.179,5.1653,5.1203,5.1417,5.2719,5.49,5.6854,5.8362,5.8393,5.8362,5.8516,5.9162,5.9686,5.9993,6.0024,5.9716,5.907,5.8516,5.8165,5.7826,5.7303,5.6964,5.681,5.681,5.681,5.681,5.681,5.681,5.681,5.681,5.681,5.681,5.681,5.681,5.681,5.681,5.681,5.681,5.681,5.681,5.681,5.681,5.681,5.681,5.681,5.681,5.681,5.681,5.681,5.681,5.681,5.681,5.681,5.681,5.681,5.681,5.681,5.681,5.681,5.681,5.681,5.681,5.681,5.681,5.6748,5.6594,5.6563,5.6502,5.63,5.63,5.6084,5.5561,5.5468,5.5284,5.4745,5.4683,5.4683,5.4683,5.5161,5.5468,5.5468,5.5007,5.4683,5.4683,5.4683,5.4683,5.4683,5.4683,5.4683,5.4683,5.5222,5.5807,5.6563,5.6717,5.681,5.681,5.7333,5.7303,5.0231,5.2125,5.389,5.3175,5.3193,5.3291,5.2899,5.2212,5.195,5.3133,5.2997,5.2747,5.3071,5.2765,5.2499,5.2521,5.2251,5.2684,5.4482,5.6457,5.8227,5.9562,5.9716,5.9716,5.9716,5.9747,5.9778,5.9778,5.9501,5.9039,5.8412,5.8011,5.7672,5.7364,5.6994,5.681,5.681,5.681,5.681,5.681,5.6875,5.6971,5.7146,5.7258,5.7353,5.7448,5.7353,5.7211,5.7115,5.6971,5.6875,5.681,5.681,5.681,5.681,5.681,5.681,5.681,5.681,5.681,5.681,5.681,5.681,5.6748,5.6409,5.6532,5.681,5.681,5.681,5.681,5.681,5.681,5.681,5.681,5.681,5.681,5.681,5.681,5.681,5.681,5.681,5.681,5.681,5.681,5.6686,5.6238,5.6176,5.6053,5.5715,5.5653,5.5653,5.5653,5.5992,5.6176,5.6176,5.5869,5.5653,5.5653,5.5653,5.5653,5.5653,5.5653,5.5653,5.5653,5.5992,5.6409,5.681,5.681,5.681,5.681,5.7179,5.7333,5.0832,5.1588,5.2275,5.2126,5.2326,5.2611,5.2843,5.281,5.2876,5.3506,5.3539,5.3427,5.3583,5.3367,5.3272,5.3608,5.3617,5.443,5.6741,5.8184,5.9459,6.064,6.0794,6.0763,6.0671,6.0116,5.9716,5.9501,5.8947,5.8331,5.7703,5.7672,5.7444,5.6906,5.6954,5.7002,5.7002,5.6858,5.681,5.681,5.7067,5.7322,5.7637,5.7918,5.8165,5.8395,5.8165,5.7918,5.7559,5.7275,5.7019,5.681,5.681,5.681,5.681,5.681,5.681,5.681,5.681,5.681,5.681,5.681,5.6717,5.6532,5.5869,5.6115,5.6656,5.6656,5.6717,5.681,5.681,5.681,5.681,5.681,5.681,5.681,5.681,5.681,5.681,5.681,5.681,5.681,5.681,5.681,5.681,5.681,5.681,5.681,5.681,5.681,5.681,5.681,5.681,5.681,5.681,5.681,5.681,5.681,5.681,5.681,5.681,5.681,5.681,5.681,5.681,5.681,5.681,5.681,5.681,5.681,5.6902,5.7272,5.1601,5.2331,5.3152,5.3228,5.3487,5.4071,5.5305,5.5141,5.4706,5.484,5.4338,5.3666,5.2917,5.3099,5.347,5.3809,5.5545,5.7182,5.8119,5.9259,6.0186,6.0753,6.0794,6.0578,5.9993,5.9839,5.9316,5.8227,5.8042,5.7672,5.6994,5.7126,5.7256,5.7401,5.759,5.7825,5.798,5.7211,5.681,5.681,5.7211,5.7653,5.8119,5.8546,5.8966,5.9323,5.8921,5.8501,5.8072,5.7606,5.7163,5.681,5.681,5.681,5.681,5.681,5.681,5.681,5.681,5.681,5.681,5.681,5.6409,5.5838,5.5715,5.5776,5.5869,5.5869,5.6347,5.681,5.681,5.681,5.681,5.681,5.681,5.681,5.681,5.681,5.681,5.681,5.681,5.681,5.681,5.681,5.681,5.681,5.681,5.681,5.681,5.681,5.681,5.681,5.681,5.681,5.681,5.681,5.681,5.681,5.681,5.681,5.681,5.681,5.681,5.681,5.681,5.681,5.681,5.681,5.681,5.681,5.7395,5.7734,5.2194,5.2611,5.3325,5.4303,5.5324,5.6277,5.6985,5.7827,5.8096,5.6884,5.6042,5.5265,5.4455,5.4785,5.577,5.7483,5.8635,5.9471,5.9979,6.0246,6.0482,6.0784,6.0794,6.0547,5.987,5.947,5.8824,5.7888,5.7487,5.7148,5.684,5.7115,5.7464,5.784,5.8226,5.8592,5.8953,5.8546,5.8072,5.759,5.8058,5.8532,5.8998,5.9487,5.9925,6.0322,5.9881,5.9399,5.8908,5.8487,5.8011,5.759,5.759,5.759,5.759,5.759,5.759,5.759,5.759,5.7495,5.7353,5.7211,5.6851,5.6306,5.5423,5.5684,5.6115,5.5376,5.593,5.681,5.681,5.681,5.681,5.681,5.681,5.681,5.681,5.681,5.681,5.681,5.681,5.681,5.681,5.681,5.681,5.681,5.681,5.681,5.681,5.681,5.681,5.681,5.681,5.681,5.681,5.681,5.681,5.681,5.681,5.681,5.681,5.681,5.681,5.681,5.681,5.6858,5.6971,5.7487,5.7817,5.7961,5.8791,5.9419,5.2765,5.2938,5.3412,5.4863,5.6286,5.7509,5.8051,5.9641,6.0486,5.8558,5.7712,5.7036,5.6156,5.6662,5.8059,6.0543,6.1097,6.1355,6.1647,6.1417,6.1189,6.1195,6.1,6.0628,5.9997,5.9315,5.8634,5.7952,5.7425,5.7115,5.7115,5.759,5.8072,5.8501,5.8998,5.9487,5.9892,5.9935,5.9455,5.8501,5.903,5.952,5.9968,6.0473,6.0928,6.1309,6.0886,6.043,5.9925,5.9476,5.8985,5.8501,5.8501,5.8501,5.8501,5.8501,5.8501,5.8501,5.8501,5.8349,5.8072,5.7778,5.7323,5.6729,5.5347,5.5684,5.6347,5.5253,5.5838,5.681,5.681,5.681,5.681,5.681,5.681,5.681,5.681,5.681,5.681,5.681,5.681,5.681,5.681,5.681,5.681,5.681,5.681,5.681,5.681,5.681,5.681,5.681,5.681,5.681,5.681,5.681,5.681,5.681,5.681,5.681,5.681,5.681,5.681,5.681,5.681,5.7016,5.7428,5.834,5.9018,5.9428,6.0328,6.1074,5.3416,5.345,5.3653,5.4465,5.5277,5.6427,5.8457,5.9573,5.9945,5.9099,5.8896,5.8423,5.7002,5.7735,5.9026,6.0403,6.1748,6.2671,6.2696,6.2891,6.281,6.2333,6.1716,6.0973,6.0327,5.9586,5.8892,5.8245,5.815,5.8119,5.8119,5.861,5.9107,5.9455,6.0001,6.0473,6.0903,6.0903,6.044,5.9499,5.9968,6.044,6.0903,6.1391,6.183,6.2263,6.179,6.135,6.0861,6.0397,5.9925,5.9499,5.9499,5.9499,5.9499,5.9499,5.9499,5.9499,5.9499,5.9189,5.8741,5.8303,5.74,5.6435,5.5795,5.5684,5.5745,5.5653,5.6176,5.681,5.681,5.681,5.681,5.681,5.681,5.681,5.681,5.681,5.681,5.681,5.681,5.681,5.681,5.681,5.681,5.681,5.681,5.681,5.681,5.681,5.681,5.681,5.681,5.681,5.681,5.681,5.681,5.681,5.681,5.681,5.681,5.681,5.681,5.681,5.681,5.736,5.8479,5.9034,5.982,6.0924,6.1464,6.2067,5.3518,5.3518,5.3687,5.4397,5.5141,5.6427,5.9099,6.1704,6.3362,6.2618,6.2482,6.1738,5.9302,5.9227,6.0165,6.2076,6.3007,6.369,6.4285,6.3773,6.3214,6.2666,6.1915,6.1209,6.055,6.023,5.9781,5.912,5.9088,5.9088,5.9088,5.9531,6.0011,6.0482,6.0936,6.1424,6.187,6.187,6.1676,6.135,6.1103,6.1144,6.1432,6.1756,6.207,6.2381,6.203,6.1716,6.1391,6.1103,6.0811,6.0482,6.0482,6.0482,6.0482,6.0482,6.0482,6.0482,6.0482,6.0184,5.9739,5.9222,5.8613,5.786,5.6929,5.684,5.6949,5.6326,5.6588,5.6971,5.6858,5.681,5.681,5.681,5.681,5.681,5.681,5.681,5.681,5.681,5.7148,5.7426,5.7426,5.7795,5.8073,5.8023,5.8073,5.8073,5.8073,5.8073,5.8073,5.8073,5.8073,5.8023,5.8023,5.8023,5.8073,5.8023,5.7272,5.6858,5.6971,5.7566,5.8007,5.8119,5.8748,5.9428,6.0154,6.1084,6.1916,6.2711,6.3621,6.4162,5.3518,5.3518,5.3687,5.4397,5.538,5.6872,5.9617,6.2691,6.485,6.4377,6.4072,6.3125,6.0554,6.0317,6.1061,6.2854,6.3646,6.4379,6.5392,6.4597,6.3735,6.3251,6.2313,6.1564,6.112,6.0859,6.0533,6.0087,6.0022,6.0022,6.0022,6.044,6.0853,6.1227,6.1595,6.1991,6.2381,6.2381,6.2381,6.2381,6.1911,6.179,6.1911,6.207,6.2229,6.2381,6.2189,6.207,6.1911,6.175,6.1628,6.1432,6.1432,6.1432,6.1432,6.1432,6.1432,6.1432,6.1432,6.1144,6.0717,6.0226,5.9783,5.9234,5.8275,5.8106,5.807,5.7275,5.7121,5.7194,5.7105,5.6964,5.681,5.681,5.681,5.681,5.681,5.681,5.6871,5.7087,5.7518,5.7888,5.8104,5.8485,5.8793,5.8793,5.8793,5.8793,5.8793,5.8793,5.8793,5.8793,5.8793,5.8793,5.8793,5.8793,5.8793,5.8793,5.7949,5.7572,5.788,5.8683,5.9286,5.9617,6.0422,6.1195,6.1883,6.2874,6.3699,6.4409,6.5382,6.5834,5.3484,5.3484,5.3687,5.4397,5.5857,5.7696,5.9976,6.2063,6.3531,6.3565,6.2956,6.1941,6.0419,6.0791,6.1569,6.2279,6.3505,6.4707,6.5938,6.5277,6.4627,6.4343,6.304,6.2103,6.2103,6.145,6.0986,6.0986,6.0986,6.0986,6.0986,6.1301,6.1506,6.1709,6.1877,6.215,6.2381,6.2381,6.2381,6.2381,6.2381,6.2381,6.2381,6.2381,6.2381,6.2381,6.2381,6.2381,6.2381,6.2381,6.2381,6.2381,6.2381,6.2381,6.2381,6.2381,6.2381,6.2381,6.2381,6.2104,6.1628,6.1185,6.0694,6.0226,5.9751,5.9278,5.8786,5.8349,5.7887,5.7556,5.7788,5.7333,5.681,5.684,5.684,5.684,5.684,5.684,5.7025,5.7703,5.7826,5.8042,5.867,5.8793,5.8793,5.8793,5.8793,5.8793,5.8793,5.8793,5.8793,5.8793,5.8793,5.8793,5.8793,5.8793,5.8793,5.8793,5.8793,5.9043,5.9603,6.0026,6.0598,6.1113,6.162,6.2398,6.36,6.4057,6.4937,6.6095,6.6601,6.6812,5.2672,5.3078,5.372,5.4602,5.6334,5.8379,6.0296,6.2783,6.5193,6.6595,6.5841,6.4477,6.2989,6.2479,6.2552,6.3456,6.437,6.5447,6.6693,6.6128,6.5327,6.4614,6.3665,6.2892,6.2354,6.2125,6.1991,6.1991,6.1991,6.1991,6.1991,6.2064,6.2144,6.2183,6.2263,6.2341,6.2381,6.2381,6.2381,6.2381,6.2381,6.2381,6.2381,6.2381,6.2381,6.2381,6.2381,6.2381,6.2381,6.2381,6.2381,6.2381,6.2381,6.2381,6.2381,6.2381,6.2381,6.2381,6.2381,6.2189,6.1837,6.1554,6.1309,6.102,6.0694,6.0269,5.987,5.9355,5.8895,5.8585,5.8814,5.856,5.8242,5.8202,5.8177,5.8177,5.8177,5.8177,5.8288,5.8423,5.8854,5.9255,5.947,5.987,6.0209,6.0209,6.0209,6.0209,6.0209,6.0209,6.0209,6.0209,6.0209,6.0209,6.0209,6.0209,6.0209,6.0209,6.0209,6.0133,5.9878,6.0979,6.1897,6.2626,6.3752,6.4563,6.5138,6.5457,6.5851,6.6421,6.6686,6.6812,5.23,5.3382,5.4669,5.5553,5.8007,6.085,6.3158,6.4761,6.6205,6.7978,6.7161,6.5765,6.4461,6.3961,6.3908,6.4469,6.526,6.6,6.6644,6.6058,6.523,6.4241,6.3531,6.2888,6.2415,6.2381,6.2381,6.2381,6.2381,6.2381,6.2381,6.2381,6.2516,6.2821,6.255,6.2516,6.2821,6.255,6.2381,6.2381,6.2381,6.2381,6.2381,6.2381,6.2381,6.2381,6.2381,6.2381,6.2381,6.2381,6.2381,6.2381,6.2381,6.2381,6.2381,6.2381,6.2381,6.2381,6.2381,6.2268,6.215,6.1991,6.1904,6.175,6.1595,6.126,6.0802,6.0312,5.9838,5.9613,6.0124,5.9994,5.9649,5.9216,5.9043,5.8943,5.8843,5.8793,5.8854,5.9131,5.9501,5.987,6.0147,6.0517,6.0794,6.0794,6.0794,6.0794,6.0794,6.0794,6.0794,6.0794,6.0794,6.0794,6.0794,6.0794,6.0794,6.0794,6.0794,6.0834,6.0938,6.2093,6.3214,6.4137,6.5293,6.6042,6.6215,6.6345,6.6473,6.6635,6.6728,6.6812,5.2299,5.4092,5.6098,5.7017,6.0339,6.4274,6.7389,6.7324,6.6895,6.802,6.736,6.624,6.5363,6.5346,6.5539,6.5539,6.6052,6.6382,6.6106,6.5419,6.4631,6.3679,6.2928,6.2488,6.2454,6.242,6.242,6.2381,6.2381,6.2381,6.2381,6.2381,6.2753,6.3497,6.2787,6.2753,6.3497,6.2753,6.2381,6.2381,6.2381,6.2381,6.2381,6.2381,6.2381,6.2381,6.2381,6.2381,6.2381,6.2381,6.2381,6.2381,6.2381,6.2381,6.2381,6.2381,6.2381,6.2381,6.2381,6.2381,6.2381,6.2381,6.2381,6.2381,6.2381,6.2104,6.1628,6.1185,6.0736,6.0597,6.1463,6.1354,6.0816,6.0009,5.9599,5.9328,5.9078,5.8978,5.9131,5.9747,5.987,6.0086,6.0701,6.0794,6.0794,6.0794,6.0794,6.0794,6.0794,6.0794,6.0794,6.0794,6.0794,6.0794,6.0794,6.0794,6.0794,6.0794,6.0794,6.1308,6.2333,6.3308,6.4295,6.5381,6.6345,6.6812,6.6812,6.6812,6.6812,6.6812,6.6812,6.6812,5.2191,5.3819,5.5656,5.7877,6.1452,6.5045,6.7532,6.7901,6.7747,6.789,6.7719,6.7444,6.7233,6.7239,6.7319,6.7477,6.7138,6.6819,6.6582,6.5857,6.5026,6.4113,6.3835,6.3417,6.2722,6.2649,6.2537,6.242,6.2381,6.2381,6.2381,6.2381,6.2753,6.3497,6.2787,6.2753,6.3497,6.2753,6.2381,6.2381,6.2381,6.2381,6.2381,6.2381,6.2381,6.2381,6.2381,6.2381,6.2381,6.2381,6.2381,6.2381,6.2381,6.2381,6.2381,6.2381,6.2381,6.2381,6.2381,6.2381,6.2381,6.2381,6.2381,6.2381,6.2381,6.2189,6.1877,6.1628,6.1383,6.1293,6.1857,6.1655,6.1333,6.1262,6.1167,6.0944,6.0465,6.0363,6.0393,6.0547,6.0578,6.064,6.0763,6.0794,6.0794,6.0794,6.0794,6.0794,6.0794,6.0794,6.0794,6.0794,6.0794,6.0794,6.0794,6.0794,6.0794,6.0794,6.0794,6.1308,6.2333,6.3308,6.4295,6.5381,6.6345,6.6812,6.6812,6.6812,6.6812,6.6812,6.6812,6.6812,5.2187,5.4666,5.774,6.1727,6.4284,6.6186,6.7738,6.8083,6.8044,6.7999,6.7925,6.7919,6.7839,6.7879,6.7999,6.8083,6.7773,6.7212,6.6294,6.5808,6.5079,6.3717,6.3581,6.3367,6.2761,6.2727,6.2649,6.242,6.2381,6.2381,6.2381,6.2381,6.2753,6.3497,6.2787,6.2753,6.3497,6.2753,6.2381,6.2381,6.2381,6.2381,6.2381,6.2381,6.2381,6.2381,6.2381,6.2381,6.2381,6.2381,6.2381,6.2381,6.2381,6.2381,6.2381,6.2381,6.2381,6.2381,6.2381,6.2381,6.2381,6.2381,6.2381,6.2381,6.2381,6.2302,6.2189,6.207,6.1984,6.2032,6.2647,6.2441,6.2141,6.2322,6.2102,6.168,6.1133,6.1313,6.1531,6.1531,6.1531,6.1531,6.1531,6.1531,6.1531,6.1531,6.1531,6.1531,6.1531,6.1531,6.1531,6.1531,6.1531,6.1481,6.141,6.1257,6.1206,6.1206,6.1206,6.1633,6.2727,6.3673,6.4558,6.5381,6.6345,6.6812,6.6812,6.6812,6.6812,6.6812,6.7184,6.7354,5.2183,5.5961,6.0663,6.5734,6.698,6.7187,6.7911,6.8083,6.8083,6.8083,6.8083,6.8044,6.7879,6.7999,6.8083,6.8083,6.798,6.7389,6.5852,6.5542,6.4847,6.3323,6.3114,6.3,6.277,6.2731,6.2654,6.242,6.2381,6.2381,6.2381,6.2381,6.2685,6.3294,6.2719,6.2685,6.3328,6.2685,6.2381,6.2381,6.2381,6.2381,6.2381,6.2381,6.2381,6.2381,6.2381,6.2381,6.2381,6.2381,6.2381,6.2381,6.2381,6.2381,6.2381,6.2381,6.2381,6.2381,6.2381,6.2381,6.2381,6.2381,6.2381,6.2381,6.2381,6.2381,6.2381,6.2381,6.2381,6.2516,6.3159,6.2973,6.2698,6.2813,6.2603,6.2231,6.1663,6.209,6.2646,6.2646,6.2646,6.2646,6.2646,6.2646,6.2646,6.2646,6.2646,6.2646,6.2646,6.2646,6.2646,6.2646,6.2646,6.2499,6.2184,6.1885,6.1734,6.1734,6.1734,6.2234,6.326,6.4221,6.4955,6.5481,6.6388,6.6812,6.6812,6.6812,6.6812,6.6846,6.7557,6.7895,5.2036,5.7329,6.2841,6.6152,6.698,6.7187,6.7911,6.8083,6.8083,6.8083,6.8083,6.8083,6.8044,6.8083,6.8083,6.8083,6.7566,6.6842,6.5976,6.5252,6.4493,6.3629,6.3526,6.3377,6.3,6.2962,6.2808,6.242,6.2381,6.2381,6.2381,6.2381,6.2448,6.2516,6.2448,6.2448,6.255,6.2448,6.2381,6.2381,6.2381,6.2381,6.2381,6.2381,6.2381,6.2381,6.2381,6.2381,6.2381,6.2381,6.2381,6.2381,6.2381,6.2381,6.2381,6.2381,6.2381,6.2381,6.2381,6.2381,6.2381,6.2381,6.2381,6.2381,6.2381,6.2381,6.2381,6.2381,6.2381,6.2415,6.2516,6.2358,6.2045,6.1936,6.2632,6.3232,6.2631,6.3077,6.3609,6.3609,6.3609,6.3609,6.3609,6.3609,6.3609,6.3609,6.3609,6.3609,6.3609,6.3609,6.3609,6.3609,6.3609,6.3451,6.3004,6.2467,6.2252,6.2284,6.2252,6.2663,6.3753,6.4741,6.5459,6.6009,6.6558,6.6812,6.6812,6.6812,6.6812,6.6846,6.7557,6.7895,5.3724,5.9013,6.3738,6.6324,6.729,6.7704,6.8014,6.8083,6.8083,6.8083,6.8083,6.8083,6.8083,6.8083,6.8083,6.8083,6.7807,6.7359,6.66,6.5842,6.5083,6.4289,6.3841,6.3452,6.3038,6.3,6.2847,6.242,6.2381,6.2381,6.2381,6.2381,6.2212,6.1806,6.2178,6.2178,6.1772,6.2178,6.2381,6.2381,6.2381,6.2381,6.2381,6.2381,6.2381,6.2381,6.2381,6.2381,6.2381,6.2381,6.2381,6.2381,6.2381,6.2381,6.2381,6.2381,6.2381,6.2381,6.2381,6.2381,6.2381,6.2381,6.2381,6.2482,6.2888,6.3024,6.3024,6.3024,6.3024,6.2922,6.2516,6.2341,6.2189,6.211,6.3134,6.4103,6.3829,6.4266,6.4695,6.4695,6.4695,6.4695,6.4695,6.4695,6.4695,6.4695,6.4695,6.4695,6.4695,6.4695,6.4695,6.4695,6.4695,6.4512,6.4035,6.3483,6.3228,6.3228,6.3228,6.3578,6.4499,6.5281,6.5932,6.6302,6.6643,6.6812,6.6812,6.6812,6.6812,6.6846,6.7557,6.8132,5.4675,5.9254,6.2979,6.5255,6.6531,6.729,6.7497,6.7669,6.7876,6.8049,6.8083,6.8083,6.8083,6.8083,6.8083,6.8083,6.8083,6.7842,6.7083,6.6531,6.5807,6.4807,6.422,6.3658,6.3114,6.3076,6.2923,6.2498,6.2459,6.2459,6.2381,6.2381,6.1975,6.1028,6.1738,6.167,6.0723,6.1434,6.1806,6.1806,6.1806,6.1907,6.211,6.211,6.2212,6.2381,6.2381,6.2381,6.2381,6.2381,6.2381,6.2381,6.2381,6.2381,6.2381,6.2381,6.2381,6.2415,6.2618,6.255,6.2415,6.2618,6.2685,6.2787,6.3328,6.3632,6.3768,6.3565,6.3531,6.3328,6.2584,6.2381,6.2381,6.2381,6.3396,6.4478,6.5053,6.5453,6.578,6.578,6.578,6.578,6.578,6.578,6.578,6.578,6.578,6.578,6.578,6.578,6.578,6.578,6.578,6.557,6.5078,6.4545,6.4268,6.4268,6.4268,6.4558,6.527,6.5922,6.6388,6.6592,6.6728,6.6812,6.6812,6.6812,6.6812,6.6846,6.7557,6.8335,5.3676,5.6874,5.9806,6.2151,6.3807,6.5083,6.5842,6.6531,6.7256,6.7945,6.8083,6.8083,6.8083,6.8083,6.8083,6.8083,6.8083,6.7842,6.7083,6.6945,6.6359,6.4876,6.4669,6.4284,6.3371,6.3265,6.3114,6.2693,6.2654,6.2576,6.242,6.2381,6.1704,6.0216,6.0926,6.0655,5.9133,5.9844,6.0216,6.0216,6.0216,6.0622,6.1366,6.1366,6.1738,6.2381,6.2381,6.2381,6.2381,6.2381,6.2381,6.2381,6.2381,6.2381,6.2381,6.2381,6.2381,6.2482,6.3193,6.299,6.2516,6.3226,6.3463,6.3463,6.3497,6.4005,6.441,6.37,6.3531,6.3328,6.2584,6.2381,6.2381,6.2381,6.299,6.414,6.6237,6.6703,6.6728,6.6728,6.6728,6.6728,6.6728,6.6728,6.6728,6.6728,6.6728,6.6728,6.6728,6.6728,6.6728,6.6728,6.6728,6.6558,6.6052,6.5548,6.5237,6.5303,6.5237,6.5459,6.6009,6.6516,6.677,6.677,6.677,6.6812,6.6812,6.6812,6.6812,6.6846,6.7557,6.8335,5.1783,5.4529,5.715,5.8495,6.0703,6.2737,6.3531,6.5048,6.6497,6.7221,6.7773,6.8083,6.8083,6.8083,6.8083,6.8083,6.8083,6.8014,6.7738,6.729,6.6773,6.6221,6.5738,6.5076,6.4092,6.3909,6.3512,6.2761,6.2576,6.2459,6.2381,6.2381,6.167,6.0148,6.0892,6.0791,5.9708,5.9979,6.0114,6.0114,6.0114,6.052,6.1298,6.1298,6.1704,6.2381,6.2381,6.2381,6.2381,6.2381,6.2381,6.2381,6.2381,6.2381,6.2381,6.2381,6.2381,6.2516,6.326,6.3328,6.3226,6.3971,6.4208,6.4309,6.4783,6.5087,6.5155,6.441,6.4208,6.3937,6.2719,6.2381,6.2516,6.299,6.3666,6.4546,6.5831,6.6474,6.6812,6.6812,6.6812,6.6812,6.6812,6.6812,6.6812,6.6812,6.6812,6.6812,6.6812,6.7218,6.7523,6.7523,6.7963,6.8138,6.7799,6.7424,6.728,6.7313,6.728,6.738,6.7722,6.8094,6.8267,6.8267,6.8267,6.7793,6.6812,6.6812,6.6812,6.6812,6.7083,6.7895,4.9682,5.1804,5.3977,5.5012,5.7357,5.9737,6.1013,6.3082,6.5083,6.6359,6.7221,6.7807,6.8049,6.8083,6.8083,6.8083,6.8083,6.8187,6.8463,6.8083,6.7773,6.7773,6.7083,6.6144,6.4916,6.4457,6.3786,6.2761,6.261,6.2459,6.2381,6.2381,6.167,6.0148,6.0148,5.9911,5.937,5.937,5.937,5.937,5.937,5.9911,6.0892,6.0892,6.1434,6.2381,6.2381,6.2381,6.2381,6.2381,6.2381,6.2381,6.2381,6.2381,6.2381,6.2381,6.255,6.2854,6.3632,6.3869,6.4005,6.4715,6.4952,6.5053,6.5527,6.5865,6.5865,6.4884,6.4613,6.4275,6.2787,6.2381,6.2516,6.3024,6.37,6.4444,6.5155,6.6102,6.6812,6.6812,6.6812,6.6812,6.6812,6.6812,6.6812,6.6812,6.6812,6.6914,6.7151,6.759,6.7996,6.8267,6.8774,6.9035,6.8827,6.8695,6.8606,6.864,6.8606,6.865,6.8827,6.8992,6.9113,6.9113,6.9113,6.8605,6.759,6.759,6.759,6.759,6.759,6.8267,0.0,0.0,0.0,5.1671,5.3739,5.6048,5.8288,6.0668,6.3013,6.529,6.6393,6.7187,6.7911,6.8083,6.8083,6.8083,6.8083,6.8359,6.9118,6.9296,6.9291,6.9291,6.8601,6.7487,6.5847,6.4916,6.3969,6.2833,6.2727,6.261,6.242,6.2347,6.1637,6.0148,5.866,5.7881,5.7881,5.7881,5.7915,5.7915,5.7915,5.8693,6.0148,6.0148,6.096,6.2381,6.2381,6.2381,6.2381,6.2381,6.2381,6.2381,6.2381,6.2415,6.2415,6.2415,6.2888,6.3666,6.4377,6.4647,6.4749,6.5493,6.573,6.573,6.573,6.6237,6.6508,6.5053,6.4613,6.4275,6.2787,6.2381,6.2381,6.2381,6.2956,6.37,6.4444,6.5764,6.6812,6.6812,6.6812,6.6812,6.6812,6.6812,6.6812,6.6846,6.6846,6.7117,6.7827,6.7963,6.8267,6.9045,6.9147,6.918,6.918,6.918,6.918,6.918,6.918,6.918,6.918,6.918,6.918,6.918,6.918,6.918,6.918,6.9113,6.9113,6.9113,6.9113,6.9519,4.6445,0.0,0.0,0.0,0.0,0.0,5.3808,5.7185,6.0496,6.222,6.4496,6.6428,6.7152,6.7738,6.8083,6.8083,6.8083,6.8187,6.8394,6.8911,6.9291,6.9291,6.9084,6.8487,6.7324,6.5896,6.464,6.3543,6.2843,6.2459,6.2381,6.1332,6.0554,6.0114,5.866,5.7881,5.7881,5.7881,5.8152,5.8693,5.8693,5.9505,6.096,6.096,6.1501,6.2381,6.2381,6.2381,6.2381,6.2381,6.2381,6.2381,6.2381,6.2719,6.3193,6.3193,6.3666,6.441,6.5121,6.5392,6.5527,6.6271,6.6508,6.6508,6.6508,6.6643,6.6609,6.5662,6.5019,6.4275,6.2787,6.2381,6.2381,6.2381,6.2956,6.37,6.4444,6.5764,6.6812,6.6812,6.6812,6.6812,6.6812,6.6812,6.6981,6.7523,6.759,6.7895,6.8673,6.9214,6.9654,6.9857,7.0364,7.0703,7.0703,7.0703,7.0703,7.0703,7.0703,7.0703,7.0703,7.0703,7.0703,7.0703,7.0703,7.0703,7.0703,6.962,6.9113,6.9113,6.9654,6.9992,4.5582,4.5637,4.5733,4.6179,0.0,0.0,5.1399,5.4563,5.7771,5.9909,6.2289,6.4289,6.5359,6.5911,6.6221,6.6221,6.6462,6.7118,6.8428,6.898,6.9394,6.9704,6.9463,6.89,6.7908,6.6656,6.5294,6.3922,6.3289,6.2837,6.2415,6.0926,6.0114,6.0114,5.866,5.7881,5.7881,5.7881,5.8254,5.9032,5.9032,5.981,6.1298,6.1298,6.1704,6.2381,6.2381,6.2381,6.2381,6.2381,6.2381,6.2381,6.2381,6.2854,6.3531,6.3531,6.4174,6.5121,6.5527,6.5899,6.6237,6.6677,6.6812,6.6812,6.6812,6.6812,6.6643,6.5899,6.4952,6.3937,6.3091,6.2618,6.2482,6.2787,6.3193,6.3802,6.4816,6.5967,6.6914,6.7218,6.7523,6.776,6.776,6.776,6.7929,6.8335,6.8402,6.8673,6.9451,6.9925,7.0297,7.0635,7.1041,7.1312,7.1312,7.1312,7.1312,7.1312,7.1312,7.1312,7.1312,7.1312,7.1312,7.1312,7.1312,7.1312,7.1312,7.0466,7.0026,7.0026,7.0466,7.0669,4.494,4.4968,4.5132,4.5946,4.6728,0.0,5.009,5.2394,5.4876,5.7702,5.9599,6.1254,6.2703,6.3013,6.3082,6.3082,6.3772,6.5393,6.8463,6.9049,6.9428,7.0187,6.967,6.8934,6.8011,6.7181,6.5926,6.4058,6.3741,6.3289,6.2454,6.0926,6.0114,6.0114,5.866,5.7881,5.7881,5.7881,5.8321,5.9133,5.9133,5.9945,6.1434,6.1434,6.1772,6.2381,6.2381,6.2381,6.2381,6.2381,6.2381,6.2381,6.2381,6.2888,6.3632,6.3632,6.4546,6.5797,6.5797,6.6237,6.6812,6.6812,6.6812,6.6812,6.6812,6.6812,6.6643,6.5899,6.4749,6.3734,6.3565,6.3024,6.2685,6.3362,6.3565,6.4038,6.5493,6.6474,6.7286,6.7996,6.8673,6.9113,6.9113,6.9113,6.9147,6.9214,6.9214,6.9485,7.0229,7.0297,7.0567,7.1244,7.1312,7.1312,7.1312,7.1312,7.1312,7.1312,7.1312,7.1312,7.1312,7.1312,7.1312,7.1312,7.1312,7.1312,7.1312,7.1312,7.1312,7.1312,7.1312,7.1312,4.4699,4.4665,4.4726,4.5001,4.567,0.0,4.7099,4.9492,5.1963,5.3256,5.5736,5.7943,5.884,5.9495,5.9909,5.9909,6.1082,6.3048,6.6117,6.7566,6.8635,6.9394,6.936,6.9141,6.8732,6.749,6.6165,6.4772,6.3419,6.2589,6.2381,6.0926,6.0114,6.0114,5.866,5.7881,5.7881,5.7881,5.8558,5.9877,5.9877,6.0689,6.2178,6.2178,6.2245,6.2381,6.2381,6.2381,6.2381,6.2381,6.2381,6.2381,6.2381,6.3193,6.4377,6.4377,6.5324,6.6609,6.6609,6.6677,6.6812,6.6812,6.6812,6.6812,6.6812,6.6812,6.6643,6.5899,6.5493,6.4986,6.3835,6.3396,6.3328,6.3497,6.3971,6.4783,6.6271,6.7692,6.8876,6.9586,6.9383,6.9113,6.9113,6.9113,6.9316,6.9891,6.9992,7.0263,7.1007,7.1109,7.1142,7.1312,7.1312,7.1312,7.1312,7.1312,7.1312,7.1312,7.1312,7.1312,7.1312,7.1312,7.1312,7.1312,7.1312,7.1312,7.1312,7.1312,7.1312,7.1312,7.1312,7.1312,4.4615,4.4615,4.4643,4.4748,4.5075,0.0,0.0,4.7786,4.9664,5.1296,5.3184,5.4874,5.6012,5.6529,5.6771,5.6771,5.8047,5.984,6.2151,6.5393,6.8118,6.9635,6.9842,6.9802,6.9686,6.8647,6.7181,6.5238,6.3425,6.2381,6.2381,6.0926,6.0114,6.0114,5.866,5.7881,5.7881,5.7881,5.8626,6.0114,6.0114,6.0892,6.2381,6.2381,6.2381,6.2381,6.2381,6.2381,6.2381,6.2381,6.2618,6.2956,6.2956,6.3632,6.4647,6.5019,6.5865,6.6812,6.6812,6.6812,6.6812,6.6812,6.6812,6.6812,6.6812,6.6812,6.6745,6.6339,6.5967,6.5527,6.4783,6.4343,6.414,6.4512,6.5155,6.6,6.7117,6.8571,6.9755,7.0128,7.0195,7.0195,7.0195,7.0195,7.0331,7.0703,7.0737,7.0872,7.1278,7.1312,7.1312,7.1312,7.1312,7.1312,7.1312,7.1312,7.1312,7.1312,7.1312,7.1312,7.1312,7.1312,7.1312,7.1312,7.1312,7.1312,7.1312,7.1312,7.1312,7.1312,7.1312,7.1312,4.5021,4.4919,4.4846,4.4958,4.485,4.5001,0.0,0.0,0.0,4.9722,5.0715,5.1645,5.2915,5.326,5.3394,5.3425,5.4839,5.6529,5.8323,6.2565,6.6428,6.898,6.9428,6.9635,6.9911,6.9216,6.7845,6.5596,6.3668,6.2618,6.2618,6.1298,6.0486,6.0351,5.9032,5.8321,5.8321,5.8321,5.8998,6.0317,6.0317,6.1061,6.2381,6.2381,6.2381,6.2381,6.2381,6.2381,6.2381,6.2381,6.2821,6.3531,6.3531,6.4038,6.4884,6.5459,6.617,6.6812,6.6812,6.6812,6.6812,6.6812,6.6812,6.6812,6.6812,6.6812,6.6812,6.6812,6.6474,6.6068,6.5933,6.5561,6.5392,6.5967,6.6711,6.7455,6.8166,6.9417,7.0398,7.0398,7.0906,7.1312,7.1312,7.1312,7.1312,7.1312,7.1312,7.1312,7.1312,7.1312,7.1312,7.1312,7.1312,7.1312,7.1312,7.1312,7.1312,7.1312,7.1312,7.1312,7.1312,7.1312,7.1312,7.1312,7.1312,7.1312,7.1312,7.1312,7.1312,7.1312,7.1312,7.1312,4.6549,4.6075,4.5568,4.5596,4.5089,4.4671,4.4905,0.0,4.6181,4.6589,0.0,4.7975,4.8232,0.0,0.0,4.943,5.1291,5.3736,5.6633,5.8737,6.1323,6.491,6.5979,6.6911,6.8221,6.7353,6.6485,6.5963,6.4328,6.3396,6.3396,6.2584,6.1839,6.1197,6.0317,5.9844,5.9844,5.9844,6.0283,6.1163,6.1163,6.1603,6.2381,6.2381,6.2381,6.2381,6.2381,6.2381,6.2381,6.2381,6.2821,6.3531,6.3531,6.4343,6.5561,6.5662,6.617,6.6812,6.6812,6.6812,6.6812,6.6812,6.6812,6.6812,6.6812,6.6812,6.6812,6.6812,6.7218,6.7489,6.6846,6.7117,6.7557,6.7624,6.8267,6.9045,6.9755,7.0601,7.1176,7.1176,7.1244,7.1312,7.1312,7.1312,7.1312,7.1312,7.1312,7.1312,7.1312,7.1312,7.1312,7.1312,7.1312,7.1312,7.1312,7.1312,7.1312,7.1312,7.1312,7.1312,7.1312,7.1312,7.1312,7.1312,7.1312,7.1312,7.1312,7.1312,7.1312,7.1312,7.1312,7.1312,4.6786,4.6583,4.6346,4.6346,4.6109,4.5794,4.5529,4.5694,4.6056,4.6607,0.0,0.0,0.0,0.0,0.0,0.0,5.0326,5.2183,5.3908,5.5081,5.784,6.3393,6.5152,6.6424,6.7787,6.7283,6.6453,6.5447,6.4227,6.3531,6.3531,6.2787,6.2245,6.1941,6.0757,6.0114,6.0114,6.0114,6.052,6.1298,6.1298,6.167,6.2381,6.2381,6.2381,6.2381,6.2381,6.2381,6.2381,6.2381,6.3091,6.414,6.414,6.4783,6.573,6.617,6.6542,6.6812,6.6812,6.6812,6.6812,6.6812,6.6812,6.6812,6.6812,6.6812,6.6914,6.732,6.7658,6.7929,6.8098,6.8368,6.8605,6.8605,6.918,6.9823,7.0128,7.077,7.1312,7.1312,7.1312,7.1312,7.1312,7.1312,7.1312,7.1312,7.1312,7.1312,7.1312,7.1312,7.1312,7.1312,7.1312,7.1312,7.1312,7.1312,7.1312,7.1312,7.1312,7.1312,7.1312,7.1312,7.1312,7.1312,7.1312,7.1312,7.1312,7.1312,7.1312,7.1312,7.1312,7.1312,4.7631,4.7564,4.7428,4.7631,4.7394,4.6917,4.6287,4.6146,4.6277,4.6703,4.6522,0.0,0.0,0.0,4.8489,4.8667,0.0,5.0896,5.1653,5.2268,5.4812,6.0703,6.3459,6.5271,6.6308,6.633,6.5719,6.4313,6.3408,6.2922,6.2922,6.2787,6.2516,6.211,6.14,6.0926,6.0723,6.0723,6.1028,6.1603,6.1603,6.1873,6.2381,6.2381,6.2381,6.2381,6.2381,6.2381,6.2415,6.2618,6.3463,6.4613,6.4816,6.5358,6.6068,6.6609,6.6812,6.6812,6.6812,6.6812,6.6812,6.6812,6.6812,6.6812,6.6812,6.6948,6.7218,6.776,6.8199,6.8639,6.9248,6.9553,6.9722,6.9722,7.0128,7.05,7.05,7.0939,7.1312,7.1312,7.1312,7.1312,7.1312,7.1312,7.1312,7.1312,7.1312,7.1312,7.1312,7.1312,7.1312,7.1312,7.1312,7.1312,7.1312,7.1312,7.1312,7.1312,7.1312,7.1312,7.1312,7.1312,7.1312,7.1312,7.1312,7.1312,7.1312,7.1312,7.1312,7.1312,7.1312,7.1312,4.9796,4.9458,4.9086,4.9796,4.8917,4.7665,4.6921,4.6752,4.6549,4.5872,4.6307,4.6811,4.699,4.7627,4.8167,0.0,4.9056,0.0,0.0,5.0663,5.1984,5.543,5.97,6.2467,6.2804,6.348,6.3537,6.2555,6.1772,6.1366,6.1366,6.2719,6.2821,6.14,6.2685,6.3057,6.2313,6.2313,6.2347,6.2347,6.2347,6.2381,6.2381,6.2381,6.2381,6.2381,6.2381,6.2381,6.2448,6.3193,6.3903,6.4681,6.5392,6.6102,6.6779,6.6812,6.6812,6.6812,6.6812,6.6812,6.6812,6.6812,6.6812,6.6812,6.6812,6.732,6.7861,6.7895,6.8977,7.0128,7.0161,7.0703,7.1244,7.1244,7.1278,7.1278,7.1278,7.1312,7.1312,7.1312,7.1312,7.1312,7.1312,7.1312,7.1312,7.1312,7.1312,7.1312,7.1312,7.1312,7.1312,7.1312,7.1312,7.1312,7.1312,7.1312,7.1312,7.1312,7.1312,7.1312,7.1312,7.1312,7.1312,7.1312,7.1312,7.1312,7.1312,7.1312,7.1312,7.1312,7.1312,7.1312,4.9898,4.956,4.9187,4.9898,4.9729,4.9154,4.8409,4.8274,4.8173,4.7936,4.7293,4.7014,4.7607,4.7937,4.8167,0.0,0.0,4.9603,0.0,4.9876,5.0629,5.268,5.6406,5.9064,5.967,6.071,6.1003,6.0216,5.9945,6.0013,6.0486,6.1941,6.255,6.2042,6.299,6.3159,6.2381,6.2381,6.2381,6.2381,6.2381,6.2381,6.2381,6.2381,6.2381,6.2381,6.2381,6.2685,6.3159,6.3396,6.4241,6.5358,6.5595,6.6136,6.6812,6.6812,6.6812,6.6812,6.6812,6.6812,6.6812,6.6812,6.6812,6.6914,6.7387,6.7692,6.8098,6.9113,6.9789,7.0297,7.0804,7.1109,7.1312,7.1312,7.1312,7.1312,7.1312,7.1312,7.1312,7.1312,7.1312,7.1312,7.1312,7.1312,7.1312,7.1312,7.1312,7.1312,7.1312,7.1312,7.1312,7.1312,7.1312,7.1312,7.1312,7.1312,7.1312,7.1312,7.1312,7.1312,7.1312,7.1312,7.1312,7.1312,7.1312,7.1312,7.1312,7.1312,7.1312,7.1312,7.1312,7.1312,4.9898,4.9729,4.9627,5.0608,5.0473,5.0033,4.983,4.939,4.9086,4.9323,4.8646,4.8237,4.9073,4.9002,4.8829,0.0,0.0,0.0,0.0,4.932,4.9634,5.0527,5.3514,5.5757,5.6469,5.7514,5.7848,5.7103,5.7036,5.7476,5.849,6.0452,6.1704,6.2009,6.3226,6.3531,6.2787,6.2516,6.2381,6.2381,6.2381,6.2381,6.2381,6.2381,6.2381,6.2415,6.2685,6.3057,6.3565,6.4072,6.485,6.573,6.5967,6.6373,6.6812,6.6812,6.6812,6.6812,6.6812,6.6981,6.7184,6.7184,6.7387,6.7726,6.8199,6.8504,6.891,6.9891,7.0398,7.0703,7.1176,7.1312,7.1312,7.1312,7.1312,7.1312,7.1312,7.1312,7.1312,7.1312,7.1109,7.1007,7.1278,7.1075,7.1007,7.1278,7.1312,7.1312,7.1312,7.1312,7.1312,7.1312,7.1312,7.1312,7.1312,7.1312,7.1312,7.1312,7.1312,7.1312,7.1312,7.1312,7.1312,7.1312,7.1312,7.1312,7.1312,7.1312,7.1312,7.1312,7.1312,7.1312]}]]